<?xml version="1.0" encoding="UTF-8" standalone="no" ?>
<gpx xmlns="http://www.topografix.com/GPX/1/1" xmlns:xsi="http://www.w3.org/2001/XMLSchema-instance" xsi:schemaLocation="http://www.topografix.com/GPX/1/1 http://www.topografix.com/GPX/1/1/gpx.xsd" version="1.1" creator="VisuGPX - https://www.visugpx.com">
  <metadata>
    <name>Vosges-Juin2021</name>
  </metadata>
  <trk>
    <name><![CDATA[2021-06-18_16-19_Fri]]></name>
    <extensions>
      <line xmlns="http://www.topografix.com/GPX/gpx_style/0/2">
        <color>FF00FF</color>
        <width>4</width>
      </line>
    </extensions>
    <trkseg>
      <trkpt lat="47.75914" lon="7.33118">
        <ele>236.22</ele>
        <time>2021-06-23T09:23:08Z</time>
      </trkpt>
      <trkpt lat="47.75914" lon="7.33118">
        <ele>236.22</ele>
        <time>2021-06-23T09:23:08Z</time>
      </trkpt>
      <trkpt lat="47.75941" lon="7.33159">
        <ele>236.68</ele>
        <time>2021-06-23T09:23:20Z</time>
      </trkpt>
      <trkpt lat="47.75926" lon="7.33178">
        <ele>237.42</ele>
        <time>2021-06-23T09:23:26Z</time>
      </trkpt>
      <trkpt lat="47.75869" lon="7.33122">
        <ele>236.11</ele>
        <time>2021-06-23T09:23:35Z</time>
      </trkpt>
      <trkpt lat="47.75855" lon="7.33099">
        <ele>235.98</ele>
        <time>2021-06-23T09:23:40Z</time>
      </trkpt>
      <trkpt lat="47.7585" lon="7.33085">
        <ele>235.85</ele>
        <time>2021-06-23T09:23:46Z</time>
      </trkpt>
      <trkpt lat="47.75848" lon="7.33066">
        <ele>236.29</ele>
        <time>2021-06-23T09:23:51Z</time>
      </trkpt>
      <trkpt lat="47.75852" lon="7.33044">
        <ele>236.33</ele>
        <time>2021-06-23T09:23:57Z</time>
      </trkpt>
      <trkpt lat="47.75868" lon="7.33">
        <ele>237</ele>
        <time>2021-06-23T09:24:02Z</time>
      </trkpt>
      <trkpt lat="47.75885" lon="7.32969">
        <ele>237</ele>
        <time>2021-06-23T09:24:08Z</time>
      </trkpt>
      <trkpt lat="47.75903" lon="7.32942">
        <ele>237.6</ele>
        <time>2021-06-23T09:24:13Z</time>
      </trkpt>
      <trkpt lat="47.75945" lon="7.32885">
        <ele>241</ele>
        <time>2021-06-23T09:24:18Z</time>
      </trkpt>
      <trkpt lat="47.75971" lon="7.32849">
        <ele>239.09</ele>
        <time>2021-06-23T09:24:24Z</time>
      </trkpt>
      <trkpt lat="47.76014" lon="7.32798">
        <ele>239.13</ele>
        <time>2021-06-23T09:24:29Z</time>
      </trkpt>
      <trkpt lat="47.7613" lon="7.32675">
        <ele>238.89</ele>
        <time>2021-06-23T09:24:35Z</time>
      </trkpt>
      <trkpt lat="47.76157" lon="7.32651">
        <ele>239.76</ele>
        <time>2021-06-23T09:24:40Z</time>
      </trkpt>
      <trkpt lat="47.76198" lon="7.32619">
        <ele>239.36</ele>
        <time>2021-06-23T09:24:46Z</time>
      </trkpt>
      <trkpt lat="47.76355" lon="7.32489">
        <ele>238.19</ele>
        <time>2021-06-23T09:24:51Z</time>
      </trkpt>
      <trkpt lat="47.76397" lon="7.32445">
        <ele>237.66</ele>
        <time>2021-06-23T09:24:57Z</time>
      </trkpt>
      <trkpt lat="47.76464" lon="7.32389">
        <ele>237.99</ele>
        <time>2021-06-23T09:25:02Z</time>
      </trkpt>
      <trkpt lat="47.76526" lon="7.32496">
        <ele>236.94</ele>
        <time>2021-06-23T09:25:06Z</time>
      </trkpt>
      <trkpt lat="47.76534" lon="7.32507">
        <ele>237.23</ele>
        <time>2021-06-23T09:25:09Z</time>
      </trkpt>
      <trkpt lat="47.76537" lon="7.32509">
        <ele>237.55</ele>
        <time>2021-06-23T09:25:13Z</time>
      </trkpt>
      <trkpt lat="47.76537" lon="7.32509">
        <ele>237.55</ele>
        <time>2021-06-23T09:25:13Z</time>
      </trkpt>
      <trkpt lat="47.76552" lon="7.32516">
        <ele>237.88</ele>
        <time>2021-06-23T09:25:23Z</time>
      </trkpt>
      <trkpt lat="47.76597" lon="7.32524">
        <ele>239</ele>
        <time>2021-06-23T09:25:32Z</time>
      </trkpt>
      <trkpt lat="47.76694" lon="7.3255">
        <ele>236.2</ele>
        <time>2021-06-23T09:25:42Z</time>
      </trkpt>
      <trkpt lat="47.76964" lon="7.32617">
        <ele>238.64</ele>
        <time>2021-06-23T09:25:51Z</time>
      </trkpt>
      <trkpt lat="47.77123" lon="7.32663">
        <ele>235.63</ele>
        <time>2021-06-23T09:26:01Z</time>
      </trkpt>
      <trkpt lat="47.77231" lon="7.32691">
        <ele>235.8</ele>
        <time>2021-06-23T09:26:10Z</time>
      </trkpt>
      <trkpt lat="47.77257" lon="7.32701">
        <ele>235</ele>
        <time>2021-06-23T09:26:20Z</time>
      </trkpt>
      <trkpt lat="47.77377" lon="7.32774">
        <ele>236</ele>
        <time>2021-06-23T09:26:29Z</time>
      </trkpt>
      <trkpt lat="47.77391" lon="7.32788">
        <ele>236.12</ele>
        <time>2021-06-23T09:26:39Z</time>
      </trkpt>
      <trkpt lat="47.774" lon="7.32795">
        <ele>236.79</ele>
        <time>2021-06-23T09:26:48Z</time>
      </trkpt>
      <trkpt lat="47.77501" lon="7.32857">
        <ele>238.86</ele>
        <time>2021-06-23T09:26:58Z</time>
      </trkpt>
      <trkpt lat="47.77614" lon="7.32901">
        <ele>235.43</ele>
        <time>2021-06-23T09:27:07Z</time>
      </trkpt>
      <trkpt lat="47.7762" lon="7.3291">
        <ele>235.74</ele>
        <time>2021-06-23T09:27:11Z</time>
      </trkpt>
      <trkpt lat="47.77628" lon="7.32914">
        <ele>235.89</ele>
        <time>2021-06-23T09:27:15Z</time>
      </trkpt>
      <trkpt lat="47.77635" lon="7.32928">
        <ele>236.49</ele>
        <time>2021-06-23T09:27:19Z</time>
      </trkpt>
      <trkpt lat="47.77695" lon="7.33085">
        <ele>237.99</ele>
        <time>2021-06-23T09:27:23Z</time>
      </trkpt>
      <trkpt lat="47.77708" lon="7.33115">
        <ele>238.01</ele>
        <time>2021-06-23T09:27:28Z</time>
      </trkpt>
      <trkpt lat="47.77777" lon="7.33256">
        <ele>233.04</ele>
        <time>2021-06-23T09:27:32Z</time>
      </trkpt>
      <trkpt lat="47.77788" lon="7.33268">
        <ele>233.35</ele>
        <time>2021-06-23T09:27:36Z</time>
      </trkpt>
      <trkpt lat="47.77796" lon="7.33287">
        <ele>233.74</ele>
        <time>2021-06-23T09:27:40Z</time>
      </trkpt>
      <trkpt lat="47.77796" lon="7.33287">
        <ele>233.74</ele>
        <time>2021-06-23T09:27:40Z</time>
      </trkpt>
      <trkpt lat="47.77821" lon="7.33349">
        <ele>237</ele>
        <time>2021-06-23T09:27:43Z</time>
      </trkpt>
      <trkpt lat="47.77822" lon="7.33373">
        <ele>238.52</ele>
        <time>2021-06-23T09:27:45Z</time>
      </trkpt>
      <trkpt lat="47.77818" lon="7.33394">
        <ele>239.63</ele>
        <time>2021-06-23T09:27:48Z</time>
      </trkpt>
      <trkpt lat="47.77813" lon="7.33403">
        <ele>239.87</ele>
        <time>2021-06-23T09:27:52Z</time>
      </trkpt>
      <trkpt lat="47.77809" lon="7.33414">
        <ele>239.99</ele>
        <time>2021-06-23T09:27:56Z</time>
      </trkpt>
      <trkpt lat="47.77808" lon="7.33426">
        <ele>239.7</ele>
        <time>2021-06-23T09:28:00Z</time>
      </trkpt>
      <trkpt lat="47.77809" lon="7.33438">
        <ele>239.33</ele>
        <time>2021-06-23T09:28:04Z</time>
      </trkpt>
      <trkpt lat="47.77812" lon="7.33449">
        <ele>239.06</ele>
        <time>2021-06-23T09:28:07Z</time>
      </trkpt>
      <trkpt lat="47.77816" lon="7.33459">
        <ele>238.87</ele>
        <time>2021-06-23T09:28:11Z</time>
      </trkpt>
      <trkpt lat="47.77823" lon="7.33466">
        <ele>238.82</ele>
        <time>2021-06-23T09:28:15Z</time>
      </trkpt>
      <trkpt lat="47.7783" lon="7.33471">
        <ele>238.9</ele>
        <time>2021-06-23T09:28:19Z</time>
      </trkpt>
      <trkpt lat="47.77838" lon="7.33473">
        <ele>238.79</ele>
        <time>2021-06-23T09:28:23Z</time>
      </trkpt>
      <trkpt lat="47.77846" lon="7.33472">
        <ele>238.55</ele>
        <time>2021-06-23T09:28:27Z</time>
      </trkpt>
      <trkpt lat="47.77856" lon="7.3348">
        <ele>237.66</ele>
        <time>2021-06-23T09:28:31Z</time>
      </trkpt>
      <trkpt lat="47.77866" lon="7.33498">
        <ele>235.96</ele>
        <time>2021-06-23T09:28:35Z</time>
      </trkpt>
      <trkpt lat="47.77881" lon="7.33537">
        <ele>236.87</ele>
        <time>2021-06-23T09:28:39Z</time>
      </trkpt>
      <trkpt lat="47.77896" lon="7.33617">
        <ele>237.26</ele>
        <time>2021-06-23T09:28:42Z</time>
      </trkpt>
      <trkpt lat="47.77901" lon="7.33653">
        <ele>235.57</ele>
        <time>2021-06-23T09:28:46Z</time>
      </trkpt>
      <trkpt lat="47.77905" lon="7.33712">
        <ele>235.74</ele>
        <time>2021-06-23T09:28:50Z</time>
      </trkpt>
      <trkpt lat="47.7793" lon="7.34244">
        <ele>233.2</ele>
        <time>2021-06-23T09:28:54Z</time>
      </trkpt>
      <trkpt lat="47.7794" lon="7.34421">
        <ele>228.48</ele>
        <time>2021-06-23T09:28:58Z</time>
      </trkpt>
      <trkpt lat="47.77953" lon="7.34563">
        <ele>233.41</ele>
        <time>2021-06-23T09:29:02Z</time>
      </trkpt>
      <trkpt lat="47.77953" lon="7.34604">
        <ele>231.46</ele>
        <time>2021-06-23T09:29:06Z</time>
      </trkpt>
      <trkpt lat="47.77948" lon="7.34645">
        <ele>231.02</ele>
        <time>2021-06-23T09:29:10Z</time>
      </trkpt>
      <trkpt lat="47.77944" lon="7.34658">
        <ele>230.97</ele>
        <time>2021-06-23T09:29:14Z</time>
      </trkpt>
      <trkpt lat="47.77938" lon="7.3467">
        <ele>230.79</ele>
        <time>2021-06-23T09:29:17Z</time>
      </trkpt>
      <trkpt lat="47.7793" lon="7.34678">
        <ele>230.69</ele>
        <time>2021-06-23T09:29:21Z</time>
      </trkpt>
      <trkpt lat="47.77912" lon="7.3472">
        <ele>231.9</ele>
        <time>2021-06-23T09:29:25Z</time>
      </trkpt>
      <trkpt lat="47.77907" lon="7.34726">
        <ele>232.09</ele>
        <time>2021-06-23T09:29:28Z</time>
      </trkpt>
      <trkpt lat="47.77906" lon="7.34731">
        <ele>232.18</ele>
        <time>2021-06-23T09:29:31Z</time>
      </trkpt>
      <trkpt lat="47.77907" lon="7.3474">
        <ele>232.4</ele>
        <time>2021-06-23T09:29:35Z</time>
      </trkpt>
      <trkpt lat="47.77908" lon="7.34744">
        <ele>232.55</ele>
        <time>2021-06-23T09:29:38Z</time>
      </trkpt>
      <trkpt lat="47.77909" lon="7.34758">
        <ele>232.65</ele>
        <time>2021-06-23T09:29:41Z</time>
      </trkpt>
      <trkpt lat="47.77907" lon="7.34776">
        <ele>232.36</ele>
        <time>2021-06-23T09:29:44Z</time>
      </trkpt>
      <trkpt lat="47.77909" lon="7.34788">
        <ele>232.68</ele>
        <time>2021-06-23T09:29:47Z</time>
      </trkpt>
      <trkpt lat="47.77891" lon="7.34892">
        <ele>231.07</ele>
        <time>2021-06-23T09:29:50Z</time>
      </trkpt>
      <trkpt lat="47.77869" lon="7.35006">
        <ele>232.44</ele>
        <time>2021-06-23T09:29:53Z</time>
      </trkpt>
      <trkpt lat="47.77827" lon="7.35126">
        <ele>231.18</ele>
        <time>2021-06-23T09:29:56Z</time>
      </trkpt>
      <trkpt lat="47.77812" lon="7.35175">
        <ele>230.71</ele>
        <time>2021-06-23T09:29:59Z</time>
      </trkpt>
      <trkpt lat="47.77796" lon="7.35235">
        <ele>231.8</ele>
        <time>2021-06-23T09:30:02Z</time>
      </trkpt>
      <trkpt lat="47.77794" lon="7.35268">
        <ele>232.43</ele>
        <time>2021-06-23T09:30:05Z</time>
      </trkpt>
      <trkpt lat="47.77786" lon="7.35299">
        <ele>232.84</ele>
        <time>2021-06-23T09:30:08Z</time>
      </trkpt>
      <trkpt lat="47.77783" lon="7.35303">
        <ele>232.93</ele>
        <time>2021-06-23T09:30:12Z</time>
      </trkpt>
      <trkpt lat="47.77781" lon="7.35315">
        <ele>233</ele>
        <time>2021-06-23T09:30:16Z</time>
      </trkpt>
      <trkpt lat="47.77781" lon="7.35321">
        <ele>233</ele>
        <time>2021-06-23T09:30:19Z</time>
      </trkpt>
      <trkpt lat="47.77786" lon="7.3533">
        <ele>233</ele>
        <time>2021-06-23T09:30:23Z</time>
      </trkpt>
      <trkpt lat="47.77793" lon="7.35333">
        <ele>233</ele>
        <time>2021-06-23T09:30:27Z</time>
      </trkpt>
      <trkpt lat="47.77798" lon="7.35345">
        <ele>232.68</ele>
        <time>2021-06-23T09:30:30Z</time>
      </trkpt>
      <trkpt lat="47.77806" lon="7.35357">
        <ele>232.15</ele>
        <time>2021-06-23T09:30:34Z</time>
      </trkpt>
      <trkpt lat="47.77819" lon="7.35404">
        <ele>230.72</ele>
        <time>2021-06-23T09:30:38Z</time>
      </trkpt>
      <trkpt lat="47.7783" lon="7.35436">
        <ele>230.27</ele>
        <time>2021-06-23T09:30:41Z</time>
      </trkpt>
      <trkpt lat="47.77979" lon="7.35796">
        <ele>227.76</ele>
        <time>2021-06-23T09:30:45Z</time>
      </trkpt>
      <trkpt lat="47.77993" lon="7.35839">
        <ele>227.41</ele>
        <time>2021-06-23T09:30:49Z</time>
      </trkpt>
      <trkpt lat="47.78002" lon="7.35875">
        <ele>227.92</ele>
        <time>2021-06-23T09:30:52Z</time>
      </trkpt>
      <trkpt lat="47.78018" lon="7.35956">
        <ele>229.15</ele>
        <time>2021-06-23T09:30:56Z</time>
      </trkpt>
      <trkpt lat="47.78025" lon="7.36016">
        <ele>229</ele>
        <time>2021-06-23T09:31:00Z</time>
      </trkpt>
      <trkpt lat="47.78027" lon="7.36059">
        <ele>229</ele>
        <time>2021-06-23T09:31:04Z</time>
      </trkpt>
      <trkpt lat="47.78028" lon="7.36116">
        <ele>230.42</ele>
        <time>2021-06-23T09:31:07Z</time>
      </trkpt>
      <trkpt lat="47.78024" lon="7.36186">
        <ele>232.59</ele>
        <time>2021-06-23T09:31:11Z</time>
      </trkpt>
      <trkpt lat="47.7802" lon="7.36225">
        <ele>230.91</ele>
        <time>2021-06-23T09:31:15Z</time>
      </trkpt>
      <trkpt lat="47.78012" lon="7.36271">
        <ele>229.71</ele>
        <time>2021-06-23T09:31:18Z</time>
      </trkpt>
      <trkpt lat="47.77957" lon="7.36475">
        <ele>232.46</ele>
        <time>2021-06-23T09:31:22Z</time>
      </trkpt>
      <trkpt lat="47.77952" lon="7.36481">
        <ele>232.27</ele>
        <time>2021-06-23T09:31:26Z</time>
      </trkpt>
      <trkpt lat="47.7795" lon="7.3649">
        <ele>232.2</ele>
        <time>2021-06-23T09:31:29Z</time>
      </trkpt>
      <trkpt lat="47.77951" lon="7.36495">
        <ele>232.22</ele>
        <time>2021-06-23T09:31:33Z</time>
      </trkpt>
      <trkpt lat="47.77944" lon="7.3652">
        <ele>232.71</ele>
        <time>2021-06-23T09:31:36Z</time>
      </trkpt>
      <trkpt lat="47.77932" lon="7.36556">
        <ele>232.46</ele>
        <time>2021-06-23T09:31:40Z</time>
      </trkpt>
      <trkpt lat="47.77867" lon="7.3678">
        <ele>229.06</ele>
        <time>2021-06-23T09:31:43Z</time>
      </trkpt>
      <trkpt lat="47.77858" lon="7.36806">
        <ele>230</ele>
        <time>2021-06-23T09:31:47Z</time>
      </trkpt>
      <trkpt lat="47.77852" lon="7.3681">
        <ele>230.11</ele>
        <time>2021-06-23T09:31:53Z</time>
      </trkpt>
      <trkpt lat="47.77849" lon="7.36815">
        <ele>230.19</ele>
        <time>2021-06-23T09:31:58Z</time>
      </trkpt>
      <trkpt lat="47.77846" lon="7.36827">
        <ele>230.35</ele>
        <time>2021-06-23T09:32:04Z</time>
      </trkpt>
      <trkpt lat="47.77848" lon="7.36838">
        <ele>230.52</ele>
        <time>2021-06-23T09:32:09Z</time>
      </trkpt>
      <trkpt lat="47.77853" lon="7.36847">
        <ele>230.7</ele>
        <time>2021-06-23T09:32:15Z</time>
      </trkpt>
      <trkpt lat="47.77857" lon="7.3685">
        <ele>230.83</ele>
        <time>2021-06-23T09:32:21Z</time>
      </trkpt>
      <trkpt lat="47.77856" lon="7.36896">
        <ele>232.93</ele>
        <time>2021-06-23T09:32:26Z</time>
      </trkpt>
      <trkpt lat="47.77852" lon="7.36951">
        <ele>234</ele>
        <time>2021-06-23T09:32:32Z</time>
      </trkpt>
      <trkpt lat="47.77853" lon="7.37029">
        <ele>231.99</ele>
        <time>2021-06-23T09:32:37Z</time>
      </trkpt>
      <trkpt lat="47.77909" lon="7.37566">
        <ele>228.63</ele>
        <time>2021-06-23T09:32:43Z</time>
      </trkpt>
      <trkpt lat="47.77929" lon="7.37775">
        <ele>231</ele>
        <time>2021-06-23T09:32:49Z</time>
      </trkpt>
      <trkpt lat="47.77935" lon="7.37814">
        <ele>230</ele>
        <time>2021-06-23T09:32:54Z</time>
      </trkpt>
      <trkpt lat="47.77943" lon="7.37835">
        <ele>230.31</ele>
        <time>2021-06-23T09:33:00Z</time>
      </trkpt>
      <trkpt lat="47.77943" lon="7.37835">
        <ele>230.31</ele>
        <time>2021-06-23T09:33:00Z</time>
      </trkpt>
      <trkpt lat="47.77955" lon="7.37866">
        <ele>230.62</ele>
        <time>2021-06-23T09:33:01Z</time>
      </trkpt>
      <trkpt lat="47.77957" lon="7.37883">
        <ele>230.57</ele>
        <time>2021-06-23T09:33:03Z</time>
      </trkpt>
      <trkpt lat="47.77953" lon="7.37899">
        <ele>230.44</ele>
        <time>2021-06-23T09:33:05Z</time>
      </trkpt>
      <trkpt lat="47.77939" lon="7.37924">
        <ele>229.79</ele>
        <time>2021-06-23T09:33:07Z</time>
      </trkpt>
      <trkpt lat="47.7793" lon="7.37921">
        <ele>229.93</ele>
        <time>2021-06-23T09:33:10Z</time>
      </trkpt>
      <trkpt lat="47.77918" lon="7.37924">
        <ele>229.99</ele>
        <time>2021-06-23T09:33:13Z</time>
      </trkpt>
      <trkpt lat="47.77912" lon="7.37929">
        <ele>230.18</ele>
        <time>2021-06-23T09:33:16Z</time>
      </trkpt>
      <trkpt lat="47.77905" lon="7.37938">
        <ele>230.42</ele>
        <time>2021-06-23T09:33:19Z</time>
      </trkpt>
      <trkpt lat="47.779" lon="7.37954">
        <ele>230.27</ele>
        <time>2021-06-23T09:33:22Z</time>
      </trkpt>
      <trkpt lat="47.77899" lon="7.37969">
        <ele>229.76</ele>
        <time>2021-06-23T09:33:25Z</time>
      </trkpt>
      <trkpt lat="47.77904" lon="7.37989">
        <ele>229.46</ele>
        <time>2021-06-23T09:33:28Z</time>
      </trkpt>
      <trkpt lat="47.77909" lon="7.37998">
        <ele>229.27</ele>
        <time>2021-06-23T09:33:31Z</time>
      </trkpt>
      <trkpt lat="47.77918" lon="7.38006">
        <ele>229</ele>
        <time>2021-06-23T09:33:34Z</time>
      </trkpt>
      <trkpt lat="47.7793" lon="7.38008">
        <ele>229</ele>
        <time>2021-06-23T09:33:37Z</time>
      </trkpt>
      <trkpt lat="47.77945" lon="7.38026">
        <ele>229</ele>
        <time>2021-06-23T09:33:40Z</time>
      </trkpt>
      <trkpt lat="47.77956" lon="7.38057">
        <ele>229.61</ele>
        <time>2021-06-23T09:33:43Z</time>
      </trkpt>
      <trkpt lat="47.77978" lon="7.38254">
        <ele>229.03</ele>
        <time>2021-06-23T09:33:46Z</time>
      </trkpt>
      <trkpt lat="47.7799" lon="7.38373">
        <ele>230.16</ele>
        <time>2021-06-23T09:33:49Z</time>
      </trkpt>
      <trkpt lat="47.77997" lon="7.38474">
        <ele>231.05</ele>
        <time>2021-06-23T09:33:52Z</time>
      </trkpt>
      <trkpt lat="47.77999" lon="7.38552">
        <ele>230</ele>
        <time>2021-06-23T09:33:55Z</time>
      </trkpt>
      <trkpt lat="47.7799" lon="7.38578">
        <ele>229.19</ele>
        <time>2021-06-23T09:33:58Z</time>
      </trkpt>
      <trkpt lat="47.77985" lon="7.38584">
        <ele>228.97</ele>
        <time>2021-06-23T09:34:00Z</time>
      </trkpt>
      <trkpt lat="47.77982" lon="7.38592">
        <ele>228.68</ele>
        <time>2021-06-23T09:34:02Z</time>
      </trkpt>
      <trkpt lat="47.7798" lon="7.38602">
        <ele>228.34</ele>
        <time>2021-06-23T09:34:04Z</time>
      </trkpt>
      <trkpt lat="47.7798" lon="7.38612">
        <ele>228</ele>
        <time>2021-06-23T09:34:06Z</time>
      </trkpt>
      <trkpt lat="47.77982" lon="7.38621">
        <ele>228</ele>
        <time>2021-06-23T09:34:08Z</time>
      </trkpt>
      <trkpt lat="47.77986" lon="7.38629">
        <ele>228</ele>
        <time>2021-06-23T09:34:10Z</time>
      </trkpt>
      <trkpt lat="47.77992" lon="7.38634">
        <ele>228</ele>
        <time>2021-06-23T09:34:12Z</time>
      </trkpt>
      <trkpt lat="47.77998" lon="7.38658">
        <ele>229.4</ele>
        <time>2021-06-23T09:34:14Z</time>
      </trkpt>
      <trkpt lat="47.77999" lon="7.38832">
        <ele>231.08</ele>
        <time>2021-06-23T09:34:16Z</time>
      </trkpt>
      <trkpt lat="47.7799" lon="7.38855">
        <ele>230.5</ele>
        <time>2021-06-23T09:34:18Z</time>
      </trkpt>
      <trkpt lat="47.77983" lon="7.38868">
        <ele>230.62</ele>
        <time>2021-06-23T09:34:20Z</time>
      </trkpt>
      <trkpt lat="47.77981" lon="7.38881">
        <ele>230.69</ele>
        <time>2021-06-23T09:34:21Z</time>
      </trkpt>
      <trkpt lat="47.77984" lon="7.38896">
        <ele>230.83</ele>
        <time>2021-06-23T09:34:22Z</time>
      </trkpt>
      <trkpt lat="47.7799" lon="7.38908">
        <ele>231.04</ele>
        <time>2021-06-23T09:34:23Z</time>
      </trkpt>
      <trkpt lat="47.78001" lon="7.38914">
        <ele>230.88</ele>
        <time>2021-06-23T09:34:24Z</time>
      </trkpt>
      <trkpt lat="47.78009" lon="7.38912">
        <ele>230.56</ele>
        <time>2021-06-23T09:34:25Z</time>
      </trkpt>
      <trkpt lat="47.78019" lon="7.38903">
        <ele>230.17</ele>
        <time>2021-06-23T09:34:27Z</time>
      </trkpt>
      <trkpt lat="47.78023" lon="7.38892">
        <ele>230.02</ele>
        <time>2021-06-23T09:34:28Z</time>
      </trkpt>
      <trkpt lat="47.78043" lon="7.3889">
        <ele>230.42</ele>
        <time>2021-06-23T09:34:29Z</time>
      </trkpt>
      <trkpt lat="47.78043" lon="7.3889">
        <ele>230.42</ele>
        <time>2021-06-23T09:34:29Z</time>
      </trkpt>
      <trkpt lat="47.78084" lon="7.38893">
        <ele>230.98</ele>
        <time>2021-06-23T09:34:38Z</time>
      </trkpt>
      <trkpt lat="47.78125" lon="7.38887">
        <ele>230.05</ele>
        <time>2021-06-23T09:34:48Z</time>
      </trkpt>
      <trkpt lat="47.7841" lon="7.38843">
        <ele>229.08</ele>
        <time>2021-06-23T09:34:58Z</time>
      </trkpt>
      <trkpt lat="47.78551" lon="7.38818">
        <ele>227</ele>
        <time>2021-06-23T09:35:07Z</time>
      </trkpt>
      <trkpt lat="47.78587" lon="7.38814">
        <ele>227.81</ele>
        <time>2021-06-23T09:35:17Z</time>
      </trkpt>
      <trkpt lat="47.78605" lon="7.38825">
        <ele>228.08</ele>
        <time>2021-06-23T09:35:27Z</time>
      </trkpt>
      <trkpt lat="47.78611" lon="7.38836">
        <ele>227.87</ele>
        <time>2021-06-23T09:35:30Z</time>
      </trkpt>
      <trkpt lat="47.78621" lon="7.38842">
        <ele>227.8</ele>
        <time>2021-06-23T09:35:34Z</time>
      </trkpt>
      <trkpt lat="47.78628" lon="7.3884">
        <ele>227.9</ele>
        <time>2021-06-23T09:35:37Z</time>
      </trkpt>
      <trkpt lat="47.78634" lon="7.38834">
        <ele>228</ele>
        <time>2021-06-23T09:35:40Z</time>
      </trkpt>
      <trkpt lat="47.78639" lon="7.38821">
        <ele>228.45</ele>
        <time>2021-06-23T09:35:44Z</time>
      </trkpt>
      <trkpt lat="47.78655" lon="7.38809">
        <ele>229.46</ele>
        <time>2021-06-23T09:35:47Z</time>
      </trkpt>
      <trkpt lat="47.78678" lon="7.38798">
        <ele>230</ele>
        <time>2021-06-23T09:35:51Z</time>
      </trkpt>
      <trkpt lat="47.78708" lon="7.38791">
        <ele>230</ele>
        <time>2021-06-23T09:35:54Z</time>
      </trkpt>
      <trkpt lat="47.78907" lon="7.38758">
        <ele>228.72</ele>
        <time>2021-06-23T09:35:58Z</time>
      </trkpt>
      <trkpt lat="47.78923" lon="7.38764">
        <ele>229.62</ele>
        <time>2021-06-23T09:36:01Z</time>
      </trkpt>
      <trkpt lat="47.78925" lon="7.3877">
        <ele>229.82</ele>
        <time>2021-06-23T09:36:10Z</time>
      </trkpt>
      <trkpt lat="47.78933" lon="7.38779">
        <ele>230.03</ele>
        <time>2021-06-23T09:36:19Z</time>
      </trkpt>
      <trkpt lat="47.78943" lon="7.38783">
        <ele>230.16</ele>
        <time>2021-06-23T09:36:28Z</time>
      </trkpt>
      <trkpt lat="47.78953" lon="7.38777">
        <ele>229.69</ele>
        <time>2021-06-23T09:36:37Z</time>
      </trkpt>
      <trkpt lat="47.7896" lon="7.38765">
        <ele>229.18</ele>
        <time>2021-06-23T09:36:46Z</time>
      </trkpt>
      <trkpt lat="47.78961" lon="7.38757">
        <ele>228.93</ele>
        <time>2021-06-23T09:36:55Z</time>
      </trkpt>
      <trkpt lat="47.78979" lon="7.38745">
        <ele>228</ele>
        <time>2021-06-23T09:37:04Z</time>
      </trkpt>
      <trkpt lat="47.79406" lon="7.38672">
        <ele>228.32</ele>
        <time>2021-06-23T09:37:13Z</time>
      </trkpt>
      <trkpt lat="47.79514" lon="7.38656">
        <ele>226</ele>
        <time>2021-06-23T09:37:22Z</time>
      </trkpt>
      <trkpt lat="47.79703" lon="7.38624">
        <ele>226.71</ele>
        <time>2021-06-23T09:37:32Z</time>
      </trkpt>
      <trkpt lat="47.80069" lon="7.3856">
        <ele>228.59</ele>
        <time>2021-06-23T09:37:41Z</time>
      </trkpt>
      <trkpt lat="47.80161" lon="7.38546">
        <ele>226.52</ele>
        <time>2021-06-23T09:37:50Z</time>
      </trkpt>
      <trkpt lat="47.80185" lon="7.3854">
        <ele>226.16</ele>
        <time>2021-06-23T09:37:59Z</time>
      </trkpt>
      <trkpt lat="47.80688" lon="7.38455">
        <ele>226.28</ele>
        <time>2021-06-23T09:38:08Z</time>
      </trkpt>
      <trkpt lat="47.81567" lon="7.38308">
        <ele>225</ele>
        <time>2021-06-23T09:38:17Z</time>
      </trkpt>
      <trkpt lat="47.81612" lon="7.38298">
        <ele>226</ele>
        <time>2021-06-23T09:38:26Z</time>
      </trkpt>
      <trkpt lat="47.81699" lon="7.38286">
        <ele>228</ele>
        <time>2021-06-23T09:38:35Z</time>
      </trkpt>
      <trkpt lat="47.81857" lon="7.38258">
        <ele>226.04</ele>
        <time>2021-06-23T09:38:44Z</time>
      </trkpt>
      <trkpt lat="47.81965" lon="7.38246">
        <ele>226.11</ele>
        <time>2021-06-23T09:38:53Z</time>
      </trkpt>
      <trkpt lat="47.81986" lon="7.38249">
        <ele>226.53</ele>
        <time>2021-06-23T09:39:02Z</time>
      </trkpt>
      <trkpt lat="47.82037" lon="7.38243">
        <ele>228.25</ele>
        <time>2021-06-23T09:39:11Z</time>
      </trkpt>
      <trkpt lat="47.82042" lon="7.38239">
        <ele>228.31</ele>
        <time>2021-06-23T09:39:20Z</time>
      </trkpt>
      <trkpt lat="47.82046" lon="7.38233">
        <ele>228.24</ele>
        <time>2021-06-23T09:39:29Z</time>
      </trkpt>
      <trkpt lat="47.82063" lon="7.38234">
        <ele>228.06</ele>
        <time>2021-06-23T09:39:42Z</time>
      </trkpt>
      <trkpt lat="47.82153" lon="7.38226">
        <ele>225.06</ele>
        <time>2021-06-23T09:39:55Z</time>
      </trkpt>
      <trkpt lat="47.8225" lon="7.38212">
        <ele>224.6</ele>
        <time>2021-06-23T09:40:08Z</time>
      </trkpt>
      <trkpt lat="47.82323" lon="7.38198">
        <ele>222.73</ele>
        <time>2021-06-23T09:40:21Z</time>
      </trkpt>
      <trkpt lat="47.82362" lon="7.38186">
        <ele>223</ele>
        <time>2021-06-23T09:40:34Z</time>
      </trkpt>
      <trkpt lat="47.82485" lon="7.38163">
        <ele>224.54</ele>
        <time>2021-06-23T09:40:47Z</time>
      </trkpt>
      <trkpt lat="47.82659" lon="7.38124">
        <ele>221.72</ele>
        <time>2021-06-23T09:41:00Z</time>
      </trkpt>
      <trkpt lat="47.82896" lon="7.38077">
        <ele>220.48</ele>
        <time>2021-06-23T09:41:13Z</time>
      </trkpt>
      <trkpt lat="47.83195" lon="7.38013">
        <ele>219.54</ele>
        <time>2021-06-23T09:41:26Z</time>
      </trkpt>
      <trkpt lat="47.83418" lon="7.37967">
        <ele>220.82</ele>
        <time>2021-06-23T09:41:40Z</time>
      </trkpt>
      <trkpt lat="47.8358" lon="7.3794">
        <ele>219.12</ele>
        <time>2021-06-23T09:41:53Z</time>
      </trkpt>
      <trkpt lat="47.8522" lon="7.37631">
        <ele>217.66</ele>
        <time>2021-06-23T09:42:06Z</time>
      </trkpt>
      <trkpt lat="47.85415" lon="7.37592">
        <ele>217.95</ele>
        <time>2021-06-23T09:42:19Z</time>
      </trkpt>
      <trkpt lat="47.85462" lon="7.37579">
        <ele>218</ele>
        <time>2021-06-23T09:42:32Z</time>
      </trkpt>
      <trkpt lat="47.85507" lon="7.3756">
        <ele>215.6</ele>
        <time>2021-06-23T09:42:45Z</time>
      </trkpt>
      <trkpt lat="47.85507" lon="7.3756">
        <ele>215.6</ele>
        <time>2021-06-23T09:42:45Z</time>
      </trkpt>
      <trkpt lat="47.85804" lon="7.3744">
        <ele>213.2</ele>
        <time>2021-06-23T09:42:51Z</time>
      </trkpt>
      <trkpt lat="47.85838" lon="7.37421">
        <ele>213.14</ele>
        <time>2021-06-23T09:42:58Z</time>
      </trkpt>
      <trkpt lat="47.86025" lon="7.37294">
        <ele>216</ele>
        <time>2021-06-23T09:43:05Z</time>
      </trkpt>
      <trkpt lat="47.86201" lon="7.37169">
        <ele>216.51</ele>
        <time>2021-06-23T09:43:11Z</time>
      </trkpt>
      <trkpt lat="47.86245" lon="7.37125">
        <ele>217.81</ele>
        <time>2021-06-23T09:43:18Z</time>
      </trkpt>
      <trkpt lat="47.86281" lon="7.37068">
        <ele>216.89</ele>
        <time>2021-06-23T09:43:25Z</time>
      </trkpt>
      <trkpt lat="47.86308" lon="7.37016">
        <ele>215</ele>
        <time>2021-06-23T09:43:32Z</time>
      </trkpt>
      <trkpt lat="47.86381" lon="7.36808">
        <ele>215</ele>
        <time>2021-06-23T09:43:38Z</time>
      </trkpt>
      <trkpt lat="47.8641" lon="7.36732">
        <ele>215.17</ele>
        <time>2021-06-23T09:43:45Z</time>
      </trkpt>
      <trkpt lat="47.86443" lon="7.36653">
        <ele>215</ele>
        <time>2021-06-23T09:43:52Z</time>
      </trkpt>
      <trkpt lat="47.86481" lon="7.36572">
        <ele>213</ele>
        <time>2021-06-23T09:43:58Z</time>
      </trkpt>
      <trkpt lat="47.86551" lon="7.36437">
        <ele>213.56</ele>
        <time>2021-06-23T09:44:05Z</time>
      </trkpt>
      <trkpt lat="47.86632" lon="7.36311">
        <ele>213</ele>
        <time>2021-06-23T09:44:12Z</time>
      </trkpt>
      <trkpt lat="47.86683" lon="7.36243">
        <ele>213.26</ele>
        <time>2021-06-23T09:44:18Z</time>
      </trkpt>
      <trkpt lat="47.86784" lon="7.36091">
        <ele>213.56</ele>
        <time>2021-06-23T09:44:25Z</time>
      </trkpt>
      <trkpt lat="47.8679" lon="7.36087">
        <ele>213.09</ele>
        <time>2021-06-23T09:44:32Z</time>
      </trkpt>
      <trkpt lat="47.86796" lon="7.36087">
        <ele>212.7</ele>
        <time>2021-06-23T09:44:38Z</time>
      </trkpt>
      <trkpt lat="47.86801" lon="7.36084">
        <ele>212.35</ele>
        <time>2021-06-23T09:44:43Z</time>
      </trkpt>
      <trkpt lat="47.86806" lon="7.36076">
        <ele>211.99</ele>
        <time>2021-06-23T09:44:49Z</time>
      </trkpt>
      <trkpt lat="47.86807" lon="7.3606">
        <ele>211.94</ele>
        <time>2021-06-23T09:44:55Z</time>
      </trkpt>
      <trkpt lat="47.86813" lon="7.36047">
        <ele>211.74</ele>
        <time>2021-06-23T09:45:01Z</time>
      </trkpt>
      <trkpt lat="47.86998" lon="7.35763">
        <ele>212.93</ele>
        <time>2021-06-23T09:45:06Z</time>
      </trkpt>
      <trkpt lat="47.87145" lon="7.35542">
        <ele>214.27</ele>
        <time>2021-06-23T09:45:12Z</time>
      </trkpt>
      <trkpt lat="47.87181" lon="7.35493">
        <ele>212.82</ele>
        <time>2021-06-23T09:45:18Z</time>
      </trkpt>
      <trkpt lat="47.8724" lon="7.35431">
        <ele>211.36</ele>
        <time>2021-06-23T09:45:24Z</time>
      </trkpt>
      <trkpt lat="47.87257" lon="7.3542">
        <ele>211</ele>
        <time>2021-06-23T09:45:29Z</time>
      </trkpt>
      <trkpt lat="47.87266" lon="7.35417">
        <ele>211</ele>
        <time>2021-06-23T09:45:35Z</time>
      </trkpt>
      <trkpt lat="47.87278" lon="7.3542">
        <ele>211.02</ele>
        <time>2021-06-23T09:45:41Z</time>
      </trkpt>
      <trkpt lat="47.87288" lon="7.35426">
        <ele>211.38</ele>
        <time>2021-06-23T09:45:44Z</time>
      </trkpt>
      <trkpt lat="47.87299" lon="7.35427">
        <ele>211.76</ele>
        <time>2021-06-23T09:45:47Z</time>
      </trkpt>
      <trkpt lat="47.8731" lon="7.35421">
        <ele>212</ele>
        <time>2021-06-23T09:45:50Z</time>
      </trkpt>
      <trkpt lat="47.87319" lon="7.35407">
        <ele>212</ele>
        <time>2021-06-23T09:45:53Z</time>
      </trkpt>
      <trkpt lat="47.87323" lon="7.35387">
        <ele>212.03</ele>
        <time>2021-06-23T09:45:57Z</time>
      </trkpt>
      <trkpt lat="47.87338" lon="7.35368">
        <ele>211.96</ele>
        <time>2021-06-23T09:46:00Z</time>
      </trkpt>
      <trkpt lat="47.87378" lon="7.35347">
        <ele>212.5</ele>
        <time>2021-06-23T09:46:03Z</time>
      </trkpt>
      <trkpt lat="47.87416" lon="7.35335">
        <ele>212.94</ele>
        <time>2021-06-23T09:46:06Z</time>
      </trkpt>
      <trkpt lat="47.87461" lon="7.35324">
        <ele>213.59</ele>
        <time>2021-06-23T09:46:09Z</time>
      </trkpt>
      <trkpt lat="47.87572" lon="7.35321">
        <ele>213.19</ele>
        <time>2021-06-23T09:46:12Z</time>
      </trkpt>
      <trkpt lat="47.87589" lon="7.35331">
        <ele>213</ele>
        <time>2021-06-23T09:46:15Z</time>
      </trkpt>
      <trkpt lat="47.87594" lon="7.35346">
        <ele>213</ele>
        <time>2021-06-23T09:46:17Z</time>
      </trkpt>
      <trkpt lat="47.87605" lon="7.35361">
        <ele>213</ele>
        <time>2021-06-23T09:46:18Z</time>
      </trkpt>
      <trkpt lat="47.87618" lon="7.35367">
        <ele>212.95</ele>
        <time>2021-06-23T09:46:20Z</time>
      </trkpt>
      <trkpt lat="47.8763" lon="7.35364">
        <ele>212.93</ele>
        <time>2021-06-23T09:46:21Z</time>
      </trkpt>
      <trkpt lat="47.87641" lon="7.35356">
        <ele>213.12</ele>
        <time>2021-06-23T09:46:22Z</time>
      </trkpt>
      <trkpt lat="47.87652" lon="7.35333">
        <ele>213.51</ele>
        <time>2021-06-23T09:46:24Z</time>
      </trkpt>
      <trkpt lat="47.87653" lon="7.35307">
        <ele>213.49</ele>
        <time>2021-06-23T09:46:25Z</time>
      </trkpt>
      <trkpt lat="47.87648" lon="7.35289">
        <ele>213.27</ele>
        <time>2021-06-23T09:46:27Z</time>
      </trkpt>
      <trkpt lat="47.87638" lon="7.35275">
        <ele>212.97</ele>
        <time>2021-06-23T09:46:28Z</time>
      </trkpt>
      <trkpt lat="47.87625" lon="7.35269">
        <ele>212.34</ele>
        <time>2021-06-23T09:46:30Z</time>
      </trkpt>
      <trkpt lat="47.87611" lon="7.35271">
        <ele>212.05</ele>
        <time>2021-06-23T09:46:31Z</time>
      </trkpt>
      <trkpt lat="47.87611" lon="7.35271">
        <ele>212.05</ele>
        <time>2021-06-23T09:46:31Z</time>
      </trkpt>
      <trkpt lat="47.87597" lon="7.35284">
        <ele>212.22</ele>
        <time>2021-06-23T09:46:41Z</time>
      </trkpt>
      <trkpt lat="47.8759" lon="7.35301">
        <ele>212.83</ele>
        <time>2021-06-23T09:46:50Z</time>
      </trkpt>
      <trkpt lat="47.87589" lon="7.35331">
        <ele>213</ele>
        <time>2021-06-23T09:46:59Z</time>
      </trkpt>
      <trkpt lat="47.87594" lon="7.35346">
        <ele>213</ele>
        <time>2021-06-23T09:47:09Z</time>
      </trkpt>
      <trkpt lat="47.87605" lon="7.35361">
        <ele>213</ele>
        <time>2021-06-23T09:47:18Z</time>
      </trkpt>
      <trkpt lat="47.87618" lon="7.35367">
        <ele>212.95</ele>
        <time>2021-06-23T09:47:28Z</time>
      </trkpt>
      <trkpt lat="47.8763" lon="7.35364">
        <ele>212.93</ele>
        <time>2021-06-23T09:47:37Z</time>
      </trkpt>
      <trkpt lat="47.87641" lon="7.35356">
        <ele>213.12</ele>
        <time>2021-06-23T09:47:47Z</time>
      </trkpt>
      <trkpt lat="47.87652" lon="7.35333">
        <ele>213.51</ele>
        <time>2021-06-23T09:47:56Z</time>
      </trkpt>
      <trkpt lat="47.87663" lon="7.35328">
        <ele>213.13</ele>
        <time>2021-06-23T09:48:05Z</time>
      </trkpt>
      <trkpt lat="47.87689" lon="7.35321">
        <ele>212.56</ele>
        <time>2021-06-23T09:48:15Z</time>
      </trkpt>
      <trkpt lat="47.88982" lon="7.35361">
        <ele>210.66</ele>
        <time>2021-06-23T09:48:24Z</time>
      </trkpt>
      <trkpt lat="47.89026" lon="7.35358">
        <ele>210.01</ele>
        <time>2021-06-23T09:48:34Z</time>
      </trkpt>
      <trkpt lat="47.89064" lon="7.35349">
        <ele>210.16</ele>
        <time>2021-06-23T09:48:43Z</time>
      </trkpt>
      <trkpt lat="47.8921" lon="7.353">
        <ele>210.8</ele>
        <time>2021-06-23T09:48:52Z</time>
      </trkpt>
      <trkpt lat="47.89244" lon="7.35294">
        <ele>210</ele>
        <time>2021-06-23T09:49:02Z</time>
      </trkpt>
      <trkpt lat="47.89326" lon="7.35288">
        <ele>209.46</ele>
        <time>2021-06-23T09:49:11Z</time>
      </trkpt>
      <trkpt lat="47.89473" lon="7.35291">
        <ele>210.98</ele>
        <time>2021-06-23T09:49:21Z</time>
      </trkpt>
      <trkpt lat="47.89763" lon="7.35324">
        <ele>209.75</ele>
        <time>2021-06-23T09:49:30Z</time>
      </trkpt>
      <trkpt lat="47.89763" lon="7.35324">
        <ele>209.75</ele>
        <time>2021-06-23T09:49:30Z</time>
      </trkpt>
      <trkpt lat="47.89821" lon="7.35337">
        <ele>206.56</ele>
        <time>2021-06-23T09:49:38Z</time>
      </trkpt>
      <trkpt lat="47.89862" lon="7.35349">
        <ele>206.59</ele>
        <time>2021-06-23T09:49:45Z</time>
      </trkpt>
      <trkpt lat="47.89933" lon="7.35391">
        <ele>208.07</ele>
        <time>2021-06-23T09:49:52Z</time>
      </trkpt>
      <trkpt lat="47.8995" lon="7.35405">
        <ele>208.58</ele>
        <time>2021-06-23T09:50:00Z</time>
      </trkpt>
      <trkpt lat="47.90009" lon="7.35466">
        <ele>209.33</ele>
        <time>2021-06-23T09:50:07Z</time>
      </trkpt>
      <trkpt lat="47.90056" lon="7.3552">
        <ele>209.99</ele>
        <time>2021-06-23T09:50:14Z</time>
      </trkpt>
      <trkpt lat="47.90113" lon="7.35566">
        <ele>208.44</ele>
        <time>2021-06-23T09:50:22Z</time>
      </trkpt>
      <trkpt lat="47.90168" lon="7.35598">
        <ele>208.49</ele>
        <time>2021-06-23T09:50:29Z</time>
      </trkpt>
      <trkpt lat="47.90242" lon="7.35627">
        <ele>208.71</ele>
        <time>2021-06-23T09:50:36Z</time>
      </trkpt>
      <trkpt lat="47.906" lon="7.35721">
        <ele>208.41</ele>
        <time>2021-06-23T09:50:44Z</time>
      </trkpt>
      <trkpt lat="47.90644" lon="7.35738">
        <ele>207.28</ele>
        <time>2021-06-23T09:50:51Z</time>
      </trkpt>
      <trkpt lat="47.90685" lon="7.35759">
        <ele>205.35</ele>
        <time>2021-06-23T09:50:58Z</time>
      </trkpt>
      <trkpt lat="47.90708" lon="7.35772">
        <ele>205.39</ele>
        <time>2021-06-23T09:51:06Z</time>
      </trkpt>
      <trkpt lat="47.90745" lon="7.358">
        <ele>207.46</ele>
        <time>2021-06-23T09:51:13Z</time>
      </trkpt>
      <trkpt lat="47.90821" lon="7.35869">
        <ele>206.54</ele>
        <time>2021-06-23T09:51:20Z</time>
      </trkpt>
      <trkpt lat="47.90883" lon="7.3593">
        <ele>207.62</ele>
        <time>2021-06-23T09:51:28Z</time>
      </trkpt>
      <trkpt lat="47.90948" lon="7.35979">
        <ele>207.26</ele>
        <time>2021-06-23T09:51:35Z</time>
      </trkpt>
      <trkpt lat="47.91008" lon="7.36008">
        <ele>208.92</ele>
        <time>2021-06-23T09:51:42Z</time>
      </trkpt>
      <trkpt lat="47.91066" lon="7.36027">
        <ele>206.63</ele>
        <time>2021-06-23T09:51:50Z</time>
      </trkpt>
      <trkpt lat="47.91093" lon="7.36051">
        <ele>204.9</ele>
        <time>2021-06-23T09:51:57Z</time>
      </trkpt>
      <trkpt lat="47.91096" lon="7.36063">
        <ele>204.54</ele>
        <time>2021-06-23T09:51:58Z</time>
      </trkpt>
      <trkpt lat="47.91101" lon="7.36071">
        <ele>204.36</ele>
        <time>2021-06-23T09:51:59Z</time>
      </trkpt>
      <trkpt lat="47.91107" lon="7.36076">
        <ele>204.13</ele>
        <time>2021-06-23T09:51:59Z</time>
      </trkpt>
      <trkpt lat="47.91112" lon="7.36077">
        <ele>204.17</ele>
        <time>2021-06-23T09:52:00Z</time>
      </trkpt>
      <trkpt lat="47.91112" lon="7.36077">
        <ele>204.17</ele>
        <time>2021-06-23T09:52:00Z</time>
      </trkpt>
      <trkpt lat="47.91116" lon="7.36078">
        <ele>204.21</ele>
        <time>2021-06-23T09:52:08Z</time>
      </trkpt>
      <trkpt lat="47.91127" lon="7.36073">
        <ele>204.79</ele>
        <time>2021-06-23T09:52:17Z</time>
      </trkpt>
      <trkpt lat="47.91135" lon="7.36059">
        <ele>205.64</ele>
        <time>2021-06-23T09:52:25Z</time>
      </trkpt>
      <trkpt lat="47.91145" lon="7.36047">
        <ele>206.25</ele>
        <time>2021-06-23T09:52:34Z</time>
      </trkpt>
      <trkpt lat="47.9117" lon="7.36036">
        <ele>206.14</ele>
        <time>2021-06-23T09:52:42Z</time>
      </trkpt>
      <trkpt lat="47.9123" lon="7.36023">
        <ele>208</ele>
        <time>2021-06-23T09:52:50Z</time>
      </trkpt>
      <trkpt lat="47.91285" lon="7.35998">
        <ele>206.74</ele>
        <time>2021-06-23T09:52:59Z</time>
      </trkpt>
      <trkpt lat="47.91835" lon="7.35724">
        <ele>206.08</ele>
        <time>2021-06-23T09:53:07Z</time>
      </trkpt>
      <trkpt lat="47.91959" lon="7.35665">
        <ele>208.55</ele>
        <time>2021-06-23T09:53:16Z</time>
      </trkpt>
      <trkpt lat="47.92024" lon="7.35649">
        <ele>209.3</ele>
        <time>2021-06-23T09:53:24Z</time>
      </trkpt>
      <trkpt lat="47.92077" lon="7.35641">
        <ele>210</ele>
        <time>2021-06-23T09:53:32Z</time>
      </trkpt>
      <trkpt lat="47.92157" lon="7.35642">
        <ele>206.82</ele>
        <time>2021-06-23T09:53:41Z</time>
      </trkpt>
      <trkpt lat="47.92157" lon="7.35642">
        <ele>206.82</ele>
        <time>2021-06-23T09:53:41Z</time>
      </trkpt>
      <trkpt lat="47.92199" lon="7.3565">
        <ele>206.23</ele>
        <time>2021-06-23T09:53:43Z</time>
      </trkpt>
      <trkpt lat="47.9227" lon="7.3567">
        <ele>208</ele>
        <time>2021-06-23T09:53:45Z</time>
      </trkpt>
      <trkpt lat="47.92323" lon="7.35701">
        <ele>205.1</ele>
        <time>2021-06-23T09:53:47Z</time>
      </trkpt>
      <trkpt lat="47.92346" lon="7.35724">
        <ele>205.62</ele>
        <time>2021-06-23T09:53:49Z</time>
      </trkpt>
      <trkpt lat="47.92364" lon="7.35747">
        <ele>206.05</ele>
        <time>2021-06-23T09:53:51Z</time>
      </trkpt>
      <trkpt lat="47.92379" lon="7.3575">
        <ele>207.3</ele>
        <time>2021-06-23T09:53:57Z</time>
      </trkpt>
      <trkpt lat="47.92406" lon="7.3573">
        <ele>207.46</ele>
        <time>2021-06-23T09:54:03Z</time>
      </trkpt>
      <trkpt lat="47.92418" lon="7.35726">
        <ele>208</ele>
        <time>2021-06-23T09:54:08Z</time>
      </trkpt>
      <trkpt lat="47.92446" lon="7.35722">
        <ele>207.9</ele>
        <time>2021-06-23T09:54:14Z</time>
      </trkpt>
      <trkpt lat="47.92824" lon="7.35835">
        <ele>203.6</ele>
        <time>2021-06-23T09:54:20Z</time>
      </trkpt>
      <trkpt lat="47.92989" lon="7.35894">
        <ele>207.37</ele>
        <time>2021-06-23T09:54:26Z</time>
      </trkpt>
      <trkpt lat="47.93088" lon="7.35924">
        <ele>205.09</ele>
        <time>2021-06-23T09:54:31Z</time>
      </trkpt>
      <trkpt lat="47.93155" lon="7.35937">
        <ele>204</ele>
        <time>2021-06-23T09:54:37Z</time>
      </trkpt>
      <trkpt lat="47.93256" lon="7.35951">
        <ele>204.46</ele>
        <time>2021-06-23T09:54:43Z</time>
      </trkpt>
      <trkpt lat="47.93299" lon="7.35961">
        <ele>205.58</ele>
        <time>2021-06-23T09:54:49Z</time>
      </trkpt>
      <trkpt lat="47.9368" lon="7.36072">
        <ele>203</ele>
        <time>2021-06-23T09:54:55Z</time>
      </trkpt>
      <trkpt lat="47.93796" lon="7.36116">
        <ele>205.18</ele>
        <time>2021-06-23T09:55:00Z</time>
      </trkpt>
      <trkpt lat="47.93897" lon="7.36141">
        <ele>204.71</ele>
        <time>2021-06-23T09:55:06Z</time>
      </trkpt>
      <trkpt lat="47.94409" lon="7.36301">
        <ele>202.15</ele>
        <time>2021-06-23T09:55:12Z</time>
      </trkpt>
      <trkpt lat="47.94423" lon="7.36303">
        <ele>202.11</ele>
        <time>2021-06-23T09:55:18Z</time>
      </trkpt>
      <trkpt lat="47.94437" lon="7.36298">
        <ele>202.26</ele>
        <time>2021-06-23T09:55:23Z</time>
      </trkpt>
      <trkpt lat="47.94452" lon="7.36289">
        <ele>202.45</ele>
        <time>2021-06-23T09:55:29Z</time>
      </trkpt>
      <trkpt lat="47.94478" lon="7.36255">
        <ele>201.55</ele>
        <time>2021-06-23T09:55:35Z</time>
      </trkpt>
      <trkpt lat="47.94491" lon="7.36244">
        <ele>200.67</ele>
        <time>2021-06-23T09:55:41Z</time>
      </trkpt>
      <trkpt lat="47.94506" lon="7.36238">
        <ele>200</ele>
        <time>2021-06-23T09:55:47Z</time>
      </trkpt>
      <trkpt lat="47.94519" lon="7.3624">
        <ele>200</ele>
        <time>2021-06-23T09:55:52Z</time>
      </trkpt>
      <trkpt lat="47.94544" lon="7.36252">
        <ele>201.17</ele>
        <time>2021-06-23T09:55:58Z</time>
      </trkpt>
      <trkpt lat="47.94554" lon="7.36262">
        <ele>201.93</ele>
        <time>2021-06-23T09:56:04Z</time>
      </trkpt>
      <trkpt lat="47.94567" lon="7.36283">
        <ele>202.88</ele>
        <time>2021-06-23T09:56:10Z</time>
      </trkpt>
      <trkpt lat="47.94583" lon="7.36324">
        <ele>203.66</ele>
        <time>2021-06-23T09:56:15Z</time>
      </trkpt>
      <trkpt lat="47.94597" lon="7.3635">
        <ele>203.8</ele>
        <time>2021-06-23T09:56:21Z</time>
      </trkpt>
      <trkpt lat="47.94616" lon="7.36365">
        <ele>203.09</ele>
        <time>2021-06-23T09:56:27Z</time>
      </trkpt>
      <trkpt lat="47.94632" lon="7.36372">
        <ele>202.82</ele>
        <time>2021-06-23T09:56:33Z</time>
      </trkpt>
      <trkpt lat="47.94754" lon="7.3641">
        <ele>201.09</ele>
        <time>2021-06-23T09:56:39Z</time>
      </trkpt>
      <trkpt lat="47.94938" lon="7.36462">
        <ele>201.14</ele>
        <time>2021-06-23T09:56:44Z</time>
      </trkpt>
      <trkpt lat="47.95111" lon="7.36515">
        <ele>202.98</ele>
        <time>2021-06-23T09:56:50Z</time>
      </trkpt>
      <trkpt lat="47.95133" lon="7.36518">
        <ele>201.93</ele>
        <time>2021-06-23T09:56:56Z</time>
      </trkpt>
      <trkpt lat="47.95148" lon="7.36512">
        <ele>201.08</ele>
        <time>2021-06-23T09:57:02Z</time>
      </trkpt>
      <trkpt lat="47.9516" lon="7.36501">
        <ele>200.26</ele>
        <time>2021-06-23T09:57:07Z</time>
      </trkpt>
      <trkpt lat="47.95171" lon="7.36484">
        <ele>198.71</ele>
        <time>2021-06-23T09:57:13Z</time>
      </trkpt>
      <trkpt lat="47.95196" lon="7.36416">
        <ele>199.01</ele>
        <time>2021-06-23T09:57:19Z</time>
      </trkpt>
      <trkpt lat="47.95201" lon="7.36409">
        <ele>199.36</ele>
        <time>2021-06-23T09:57:25Z</time>
      </trkpt>
      <trkpt lat="47.95207" lon="7.36402">
        <ele>199.77</ele>
        <time>2021-06-23T09:57:31Z</time>
      </trkpt>
      <trkpt lat="47.95216" lon="7.36401">
        <ele>200.01</ele>
        <time>2021-06-23T09:57:36Z</time>
      </trkpt>
      <trkpt lat="47.95236" lon="7.36411">
        <ele>199.79</ele>
        <time>2021-06-23T09:57:42Z</time>
      </trkpt>
      <trkpt lat="47.95234" lon="7.36425">
        <ele>199.01</ele>
        <time>2021-06-23T09:57:44Z</time>
      </trkpt>
      <trkpt lat="47.95237" lon="7.36441">
        <ele>198.21</ele>
        <time>2021-06-23T09:57:46Z</time>
      </trkpt>
      <trkpt lat="47.95241" lon="7.36448">
        <ele>197.96</ele>
        <time>2021-06-23T09:57:48Z</time>
      </trkpt>
      <trkpt lat="47.95249" lon="7.36454">
        <ele>197.99</ele>
        <time>2021-06-23T09:57:50Z</time>
      </trkpt>
      <trkpt lat="47.9521" lon="7.36729">
        <ele>200.89</ele>
        <time>2021-06-23T09:57:53Z</time>
      </trkpt>
      <trkpt lat="47.952" lon="7.3673">
        <ele>200.79</ele>
        <time>2021-06-23T09:57:57Z</time>
      </trkpt>
      <trkpt lat="47.95189" lon="7.36742">
        <ele>200.43</ele>
        <time>2021-06-23T09:58:02Z</time>
      </trkpt>
      <trkpt lat="47.95185" lon="7.36756">
        <ele>200.33</ele>
        <time>2021-06-23T09:58:06Z</time>
      </trkpt>
      <trkpt lat="47.95186" lon="7.36766">
        <ele>200.3</ele>
        <time>2021-06-23T09:58:11Z</time>
      </trkpt>
      <trkpt lat="47.9519" lon="7.36777">
        <ele>200.17</ele>
        <time>2021-06-23T09:58:15Z</time>
      </trkpt>
      <trkpt lat="47.95196" lon="7.36785">
        <ele>200.37</ele>
        <time>2021-06-23T09:58:20Z</time>
      </trkpt>
      <trkpt lat="47.95204" lon="7.36788">
        <ele>200.82</ele>
        <time>2021-06-23T09:58:25Z</time>
      </trkpt>
      <trkpt lat="47.95214" lon="7.36786">
        <ele>201.27</ele>
        <time>2021-06-23T09:58:29Z</time>
      </trkpt>
      <trkpt lat="47.95221" lon="7.36777">
        <ele>201.9</ele>
        <time>2021-06-23T09:58:34Z</time>
      </trkpt>
      <trkpt lat="47.95225" lon="7.36765">
        <ele>201.68</ele>
        <time>2021-06-23T09:58:38Z</time>
      </trkpt>
      <trkpt lat="47.9526" lon="7.36773">
        <ele>203</ele>
        <time>2021-06-23T09:58:43Z</time>
      </trkpt>
      <trkpt lat="47.95285" lon="7.36772">
        <ele>202.74</ele>
        <time>2021-06-23T09:58:47Z</time>
      </trkpt>
      <trkpt lat="47.95309" lon="7.36762">
        <ele>201.94</ele>
        <time>2021-06-23T09:58:52Z</time>
      </trkpt>
      <trkpt lat="47.95368" lon="7.3671">
        <ele>202</ele>
        <time>2021-06-23T09:58:57Z</time>
      </trkpt>
      <trkpt lat="47.95397" lon="7.36698">
        <ele>202</ele>
        <time>2021-06-23T09:59:01Z</time>
      </trkpt>
      <trkpt lat="47.95424" lon="7.36694">
        <ele>202.25</ele>
        <time>2021-06-23T09:59:06Z</time>
      </trkpt>
      <trkpt lat="47.95448" lon="7.36698">
        <ele>203</ele>
        <time>2021-06-23T09:59:10Z</time>
      </trkpt>
      <trkpt lat="47.95736" lon="7.36784">
        <ele>202.88</ele>
        <time>2021-06-23T09:59:15Z</time>
      </trkpt>
      <trkpt lat="47.95986" lon="7.36862">
        <ele>199.51</ele>
        <time>2021-06-23T09:59:19Z</time>
      </trkpt>
      <trkpt lat="47.96036" lon="7.36871">
        <ele>201.06</ele>
        <time>2021-06-23T09:59:24Z</time>
      </trkpt>
      <trkpt lat="47.96122" lon="7.36897">
        <ele>202.44</ele>
        <time>2021-06-23T09:59:29Z</time>
      </trkpt>
      <trkpt lat="47.96265" lon="7.3695">
        <ele>200.55</ele>
        <time>2021-06-23T09:59:33Z</time>
      </trkpt>
      <trkpt lat="47.96563" lon="7.37045">
        <ele>200.11</ele>
        <time>2021-06-23T09:59:38Z</time>
      </trkpt>
      <trkpt lat="47.96829" lon="7.37126">
        <ele>198.93</ele>
        <time>2021-06-23T09:59:42Z</time>
      </trkpt>
      <trkpt lat="47.96989" lon="7.3718">
        <ele>200.1</ele>
        <time>2021-06-23T09:59:47Z</time>
      </trkpt>
      <trkpt lat="47.96999" lon="7.37189">
        <ele>199.82</ele>
        <time>2021-06-23T09:59:51Z</time>
      </trkpt>
      <trkpt lat="47.97009" lon="7.37201">
        <ele>199.68</ele>
        <time>2021-06-23T09:59:56Z</time>
      </trkpt>
      <trkpt lat="47.97017" lon="7.37216">
        <ele>199.4</ele>
        <time>2021-06-23T10:00:00Z</time>
      </trkpt>
      <trkpt lat="47.97023" lon="7.37234">
        <ele>198.75</ele>
        <time>2021-06-23T10:00:05Z</time>
      </trkpt>
      <trkpt lat="47.9703" lon="7.37291">
        <ele>197.55</ele>
        <time>2021-06-23T10:00:10Z</time>
      </trkpt>
      <trkpt lat="47.97035" lon="7.37305">
        <ele>197.26</ele>
        <time>2021-06-23T10:00:14Z</time>
      </trkpt>
      <trkpt lat="47.97051" lon="7.37324">
        <ele>198.5</ele>
        <time>2021-06-23T10:00:19Z</time>
      </trkpt>
      <trkpt lat="47.97057" lon="7.37335">
        <ele>199.07</ele>
        <time>2021-06-23T10:00:23Z</time>
      </trkpt>
      <trkpt lat="47.97068" lon="7.37342">
        <ele>199.16</ele>
        <time>2021-06-23T10:00:28Z</time>
      </trkpt>
      <trkpt lat="47.97085" lon="7.37337">
        <ele>199</ele>
        <time>2021-06-23T10:00:32Z</time>
      </trkpt>
      <trkpt lat="47.97094" lon="7.37331">
        <ele>198.94</ele>
        <time>2021-06-23T10:00:37Z</time>
      </trkpt>
      <trkpt lat="47.97115" lon="7.37326">
        <ele>199.03</ele>
        <time>2021-06-23T10:00:42Z</time>
      </trkpt>
      <trkpt lat="47.97129" lon="7.37313">
        <ele>199.46</ele>
        <time>2021-06-23T10:00:46Z</time>
      </trkpt>
      <trkpt lat="47.97153" lon="7.3727">
        <ele>199.85</ele>
        <time>2021-06-23T10:00:51Z</time>
      </trkpt>
      <trkpt lat="47.97166" lon="7.37254">
        <ele>199.98</ele>
        <time>2021-06-23T10:00:55Z</time>
      </trkpt>
      <trkpt lat="47.97176" lon="7.37248">
        <ele>200.33</ele>
        <time>2021-06-23T10:01:00Z</time>
      </trkpt>
      <trkpt lat="47.97191" lon="7.37245">
        <ele>200.88</ele>
        <time>2021-06-23T10:01:04Z</time>
      </trkpt>
      <trkpt lat="47.97203" lon="7.37246">
        <ele>200.72</ele>
        <time>2021-06-23T10:01:09Z</time>
      </trkpt>
      <trkpt lat="47.97606" lon="7.37376">
        <ele>197.9</ele>
        <time>2021-06-23T10:01:14Z</time>
      </trkpt>
      <trkpt lat="47.97822" lon="7.37441">
        <ele>197.11</ele>
        <time>2021-06-23T10:01:18Z</time>
      </trkpt>
      <trkpt lat="47.97864" lon="7.37458">
        <ele>197.95</ele>
        <time>2021-06-23T10:01:23Z</time>
      </trkpt>
      <trkpt lat="47.97889" lon="7.37476">
        <ele>196.83</ele>
        <time>2021-06-23T10:01:27Z</time>
      </trkpt>
      <trkpt lat="47.97929" lon="7.37519">
        <ele>195.29</ele>
        <time>2021-06-23T10:01:32Z</time>
      </trkpt>
      <trkpt lat="47.97959" lon="7.37543">
        <ele>196.53</ele>
        <time>2021-06-23T10:01:36Z</time>
      </trkpt>
      <trkpt lat="47.97989" lon="7.37555">
        <ele>197.61</ele>
        <time>2021-06-23T10:01:41Z</time>
      </trkpt>
      <trkpt lat="47.9802" lon="7.37558">
        <ele>199.38</ele>
        <time>2021-06-23T10:01:46Z</time>
      </trkpt>
      <trkpt lat="47.98035" lon="7.37556">
        <ele>199.72</ele>
        <time>2021-06-23T10:01:50Z</time>
      </trkpt>
      <trkpt lat="47.98093" lon="7.37538">
        <ele>198</ele>
        <time>2021-06-23T10:01:55Z</time>
      </trkpt>
      <trkpt lat="47.98107" lon="7.37537">
        <ele>198</ele>
        <time>2021-06-23T10:01:59Z</time>
      </trkpt>
      <trkpt lat="47.98133" lon="7.3754">
        <ele>197.22</ele>
        <time>2021-06-23T10:02:04Z</time>
      </trkpt>
      <trkpt lat="47.9866" lon="7.37707">
        <ele>196.79</ele>
        <time>2021-06-23T10:02:08Z</time>
      </trkpt>
      <trkpt lat="47.98771" lon="7.37734">
        <ele>195.86</ele>
        <time>2021-06-23T10:02:13Z</time>
      </trkpt>
      <trkpt lat="47.98788" lon="7.37739">
        <ele>196.14</ele>
        <time>2021-06-23T10:02:18Z</time>
      </trkpt>
      <trkpt lat="47.98878" lon="7.37777">
        <ele>195.01</ele>
        <time>2021-06-23T10:02:22Z</time>
      </trkpt>
      <trkpt lat="47.9913" lon="7.37858">
        <ele>195.27</ele>
        <time>2021-06-23T10:02:27Z</time>
      </trkpt>
      <trkpt lat="47.99149" lon="7.3787">
        <ele>196.66</ele>
        <time>2021-06-23T10:02:31Z</time>
      </trkpt>
      <trkpt lat="47.99162" lon="7.37891">
        <ele>197.88</ele>
        <time>2021-06-23T10:02:36Z</time>
      </trkpt>
      <trkpt lat="47.99166" lon="7.37912">
        <ele>198.79</ele>
        <time>2021-06-23T10:02:40Z</time>
      </trkpt>
      <trkpt lat="47.99164" lon="7.37956">
        <ele>198.42</ele>
        <time>2021-06-23T10:02:45Z</time>
      </trkpt>
      <trkpt lat="47.99154" lon="7.38026">
        <ele>196.11</ele>
        <time>2021-06-23T10:02:50Z</time>
      </trkpt>
      <trkpt lat="47.99152" lon="7.38058">
        <ele>195.9</ele>
        <time>2021-06-23T10:02:54Z</time>
      </trkpt>
      <trkpt lat="47.99159" lon="7.38078">
        <ele>195.85</ele>
        <time>2021-06-23T10:02:59Z</time>
      </trkpt>
      <trkpt lat="47.99184" lon="7.38106">
        <ele>196.12</ele>
        <time>2021-06-23T10:03:03Z</time>
      </trkpt>
      <trkpt lat="47.99185" lon="7.38114">
        <ele>195.9</ele>
        <time>2021-06-23T10:03:04Z</time>
      </trkpt>
      <trkpt lat="47.99189" lon="7.38121">
        <ele>195.66</ele>
        <time>2021-06-23T10:03:04Z</time>
      </trkpt>
      <trkpt lat="47.99193" lon="7.38125">
        <ele>195.51</ele>
        <time>2021-06-23T10:03:04Z</time>
      </trkpt>
      <trkpt lat="47.99199" lon="7.38126">
        <ele>195.22</ele>
        <time>2021-06-23T10:03:04Z</time>
      </trkpt>
      <trkpt lat="47.99204" lon="7.38124">
        <ele>195.02</ele>
        <time>2021-06-23T10:03:05Z</time>
      </trkpt>
      <trkpt lat="47.99209" lon="7.3812">
        <ele>195.04</ele>
        <time>2021-06-23T10:03:05Z</time>
      </trkpt>
      <trkpt lat="47.99212" lon="7.38112">
        <ele>195.33</ele>
        <time>2021-06-23T10:03:05Z</time>
      </trkpt>
      <trkpt lat="47.99213" lon="7.38103">
        <ele>195.63</ele>
        <time>2021-06-23T10:03:06Z</time>
      </trkpt>
      <trkpt lat="47.99211" lon="7.38095">
        <ele>195.96</ele>
        <time>2021-06-23T10:03:06Z</time>
      </trkpt>
      <trkpt lat="47.99208" lon="7.38088">
        <ele>196.35</ele>
        <time>2021-06-23T10:03:06Z</time>
      </trkpt>
      <trkpt lat="47.99203" lon="7.38084">
        <ele>196.66</ele>
        <time>2021-06-23T10:03:07Z</time>
      </trkpt>
      <trkpt lat="47.99198" lon="7.38083">
        <ele>196.89</ele>
        <time>2021-06-23T10:03:07Z</time>
      </trkpt>
      <trkpt lat="47.99192" lon="7.38085">
        <ele>196.86</ele>
        <time>2021-06-23T10:03:07Z</time>
      </trkpt>
      <trkpt lat="47.99188" lon="7.3809">
        <ele>196.59</ele>
        <time>2021-06-23T10:03:07Z</time>
      </trkpt>
      <trkpt lat="47.99185" lon="7.38097">
        <ele>196.22</ele>
        <time>2021-06-23T10:03:08Z</time>
      </trkpt>
      <trkpt lat="47.99185" lon="7.38097">
        <ele>196.22</ele>
        <time>2021-06-23T10:03:08Z</time>
      </trkpt>
      <trkpt lat="47.99184" lon="7.38106">
        <ele>196.12</ele>
        <time>2021-06-23T10:03:09Z</time>
      </trkpt>
      <trkpt lat="47.99185" lon="7.38114">
        <ele>195.9</ele>
        <time>2021-06-23T10:03:10Z</time>
      </trkpt>
      <trkpt lat="47.99189" lon="7.38121">
        <ele>195.66</ele>
        <time>2021-06-23T10:03:11Z</time>
      </trkpt>
      <trkpt lat="47.99193" lon="7.38125">
        <ele>195.51</ele>
        <time>2021-06-23T10:03:12Z</time>
      </trkpt>
      <trkpt lat="47.99199" lon="7.38126">
        <ele>195.22</ele>
        <time>2021-06-23T10:03:13Z</time>
      </trkpt>
      <trkpt lat="47.99204" lon="7.38124">
        <ele>195.02</ele>
        <time>2021-06-23T10:03:14Z</time>
      </trkpt>
      <trkpt lat="47.99209" lon="7.3812">
        <ele>195.04</ele>
        <time>2021-06-23T10:03:15Z</time>
      </trkpt>
      <trkpt lat="47.99212" lon="7.38112">
        <ele>195.33</ele>
        <time>2021-06-23T10:03:16Z</time>
      </trkpt>
      <trkpt lat="47.99213" lon="7.38103">
        <ele>195.63</ele>
        <time>2021-06-23T10:03:17Z</time>
      </trkpt>
      <trkpt lat="47.99211" lon="7.38095">
        <ele>195.96</ele>
        <time>2021-06-23T10:03:18Z</time>
      </trkpt>
      <trkpt lat="47.99208" lon="7.38088">
        <ele>196.35</ele>
        <time>2021-06-23T10:03:20Z</time>
      </trkpt>
      <trkpt lat="47.99203" lon="7.38084">
        <ele>196.66</ele>
        <time>2021-06-23T10:03:21Z</time>
      </trkpt>
      <trkpt lat="47.99211" lon="7.38062">
        <ele>196.85</ele>
        <time>2021-06-23T10:03:22Z</time>
      </trkpt>
      <trkpt lat="47.99221" lon="7.38025">
        <ele>197</ele>
        <time>2021-06-23T10:03:23Z</time>
      </trkpt>
      <trkpt lat="47.99315" lon="7.37746">
        <ele>194.89</ele>
        <time>2021-06-23T10:03:24Z</time>
      </trkpt>
      <trkpt lat="47.9933" lon="7.37715">
        <ele>194.9</ele>
        <time>2021-06-23T10:03:25Z</time>
      </trkpt>
      <trkpt lat="47.99339" lon="7.37701">
        <ele>195.21</ele>
        <time>2021-06-23T10:03:26Z</time>
      </trkpt>
      <trkpt lat="47.99344" lon="7.377">
        <ele>195.4</ele>
        <time>2021-06-23T10:03:30Z</time>
      </trkpt>
      <trkpt lat="47.99349" lon="7.37697">
        <ele>195.57</ele>
        <time>2021-06-23T10:03:35Z</time>
      </trkpt>
      <trkpt lat="47.99353" lon="7.3769">
        <ele>195.82</ele>
        <time>2021-06-23T10:03:39Z</time>
      </trkpt>
      <trkpt lat="47.99354" lon="7.37682">
        <ele>196.1</ele>
        <time>2021-06-23T10:03:44Z</time>
      </trkpt>
      <trkpt lat="47.99354" lon="7.37673">
        <ele>196.28</ele>
        <time>2021-06-23T10:03:48Z</time>
      </trkpt>
      <trkpt lat="47.99351" lon="7.37666">
        <ele>196.26</ele>
        <time>2021-06-23T10:03:53Z</time>
      </trkpt>
      <trkpt lat="47.99365" lon="7.37623">
        <ele>197.51</ele>
        <time>2021-06-23T10:03:57Z</time>
      </trkpt>
      <trkpt lat="47.99388" lon="7.37567">
        <ele>196.44</ele>
        <time>2021-06-23T10:04:02Z</time>
      </trkpt>
      <trkpt lat="47.99419" lon="7.37498">
        <ele>194.91</ele>
        <time>2021-06-23T10:04:06Z</time>
      </trkpt>
      <trkpt lat="47.99445" lon="7.37431">
        <ele>194.99</ele>
        <time>2021-06-23T10:04:10Z</time>
      </trkpt>
      <trkpt lat="47.99469" lon="7.3735">
        <ele>194</ele>
        <time>2021-06-23T10:04:15Z</time>
      </trkpt>
      <trkpt lat="47.99518" lon="7.37136">
        <ele>195</ele>
        <time>2021-06-23T10:04:19Z</time>
      </trkpt>
      <trkpt lat="47.99529" lon="7.37098">
        <ele>195.46</ele>
        <time>2021-06-23T10:04:24Z</time>
      </trkpt>
      <trkpt lat="47.99547" lon="7.37048">
        <ele>195.49</ele>
        <time>2021-06-23T10:04:28Z</time>
      </trkpt>
      <trkpt lat="47.99564" lon="7.37008">
        <ele>195.3</ele>
        <time>2021-06-23T10:04:33Z</time>
      </trkpt>
      <trkpt lat="47.99788" lon="7.36525">
        <ele>195</ele>
        <time>2021-06-23T10:04:37Z</time>
      </trkpt>
      <trkpt lat="47.99796" lon="7.36505">
        <ele>195</ele>
        <time>2021-06-23T10:04:42Z</time>
      </trkpt>
      <trkpt lat="47.9981" lon="7.36461">
        <ele>195</ele>
        <time>2021-06-23T10:04:46Z</time>
      </trkpt>
      <trkpt lat="47.99846" lon="7.36331">
        <ele>193.42</ele>
        <time>2021-06-23T10:04:51Z</time>
      </trkpt>
      <trkpt lat="47.99871" lon="7.36258">
        <ele>193.35</ele>
        <time>2021-06-23T10:04:55Z</time>
      </trkpt>
      <trkpt lat="47.99911" lon="7.36169">
        <ele>193.8</ele>
        <time>2021-06-23T10:04:59Z</time>
      </trkpt>
      <trkpt lat="47.99974" lon="7.36038">
        <ele>193.29</ele>
        <time>2021-06-23T10:05:04Z</time>
      </trkpt>
      <trkpt lat="47.99988" lon="7.35998">
        <ele>192.5</ele>
        <time>2021-06-23T10:05:08Z</time>
      </trkpt>
      <trkpt lat="48.00001" lon="7.35954">
        <ele>194.27</ele>
        <time>2021-06-23T10:05:13Z</time>
      </trkpt>
      <trkpt lat="48.00017" lon="7.35878">
        <ele>194.61</ele>
        <time>2021-06-23T10:05:17Z</time>
      </trkpt>
      <trkpt lat="48.00025" lon="7.35796">
        <ele>197.35</ele>
        <time>2021-06-23T10:05:22Z</time>
      </trkpt>
      <trkpt lat="48.00031" lon="7.35363">
        <ele>198.21</ele>
        <time>2021-06-23T10:05:26Z</time>
      </trkpt>
      <trkpt lat="48.00036" lon="7.3518">
        <ele>197.78</ele>
        <time>2021-06-23T10:05:31Z</time>
      </trkpt>
      <trkpt lat="48.00045" lon="7.35086">
        <ele>196.63</ele>
        <time>2021-06-23T10:05:35Z</time>
      </trkpt>
      <trkpt lat="48.00054" lon="7.35021">
        <ele>197.87</ele>
        <time>2021-06-23T10:05:39Z</time>
      </trkpt>
      <trkpt lat="48.00055" lon="7.35011">
        <ele>197.99</ele>
        <time>2021-06-23T10:05:44Z</time>
      </trkpt>
      <trkpt lat="48.0006" lon="7.3498">
        <ele>198.07</ele>
        <time>2021-06-23T10:05:48Z</time>
      </trkpt>
      <trkpt lat="48.00085" lon="7.3486">
        <ele>198.15</ele>
        <time>2021-06-23T10:05:53Z</time>
      </trkpt>
      <trkpt lat="48.00168" lon="7.34486">
        <ele>197.5</ele>
        <time>2021-06-23T10:05:57Z</time>
      </trkpt>
      <trkpt lat="48.00168" lon="7.34486">
        <ele>197.5</ele>
        <time>2021-06-23T10:05:57Z</time>
      </trkpt>
      <trkpt lat="48.00186" lon="7.34414">
        <ele>198.09</ele>
        <time>2021-06-23T10:06:03Z</time>
      </trkpt>
      <trkpt lat="48.00212" lon="7.34352">
        <ele>199.38</ele>
        <time>2021-06-23T10:06:09Z</time>
      </trkpt>
      <trkpt lat="48.00236" lon="7.3431">
        <ele>198.09</ele>
        <time>2021-06-23T10:06:15Z</time>
      </trkpt>
      <trkpt lat="48.00261" lon="7.34274">
        <ele>198.52</ele>
        <time>2021-06-23T10:06:21Z</time>
      </trkpt>
      <trkpt lat="48.00302" lon="7.34237">
        <ele>200.9</ele>
        <time>2021-06-23T10:06:27Z</time>
      </trkpt>
      <trkpt lat="48.00334" lon="7.34215">
        <ele>202.23</ele>
        <time>2021-06-23T10:06:33Z</time>
      </trkpt>
      <trkpt lat="48.00451" lon="7.3415">
        <ele>200</ele>
        <time>2021-06-23T10:06:38Z</time>
      </trkpt>
      <trkpt lat="48.00524" lon="7.34085">
        <ele>198.06</ele>
        <time>2021-06-23T10:06:44Z</time>
      </trkpt>
      <trkpt lat="48.00639" lon="7.33977">
        <ele>192.17</ele>
        <time>2021-06-23T10:06:50Z</time>
      </trkpt>
      <trkpt lat="48.00785" lon="7.33845">
        <ele>191.25</ele>
        <time>2021-06-23T10:06:56Z</time>
      </trkpt>
      <trkpt lat="48.01024" lon="7.33708">
        <ele>191</ele>
        <time>2021-06-23T10:07:02Z</time>
      </trkpt>
      <trkpt lat="48.01092" lon="7.33678">
        <ele>191.13</ele>
        <time>2021-06-23T10:07:08Z</time>
      </trkpt>
      <trkpt lat="48.01165" lon="7.33655">
        <ele>190.97</ele>
        <time>2021-06-23T10:07:14Z</time>
      </trkpt>
      <trkpt lat="48.01277" lon="7.33637">
        <ele>191</ele>
        <time>2021-06-23T10:07:20Z</time>
      </trkpt>
      <trkpt lat="48.01494" lon="7.33635">
        <ele>191.69</ele>
        <time>2021-06-23T10:07:25Z</time>
      </trkpt>
      <trkpt lat="48.01549" lon="7.3363">
        <ele>188.99</ele>
        <time>2021-06-23T10:07:31Z</time>
      </trkpt>
      <trkpt lat="48.01666" lon="7.33596">
        <ele>189</ele>
        <time>2021-06-23T10:07:37Z</time>
      </trkpt>
      <trkpt lat="48.01739" lon="7.33562">
        <ele>192.38</ele>
        <time>2021-06-23T10:07:43Z</time>
      </trkpt>
      <trkpt lat="48.01789" lon="7.33531">
        <ele>193.36</ele>
        <time>2021-06-23T10:07:49Z</time>
      </trkpt>
      <trkpt lat="48.01828" lon="7.33502">
        <ele>194.77</ele>
        <time>2021-06-23T10:07:55Z</time>
      </trkpt>
      <trkpt lat="48.01897" lon="7.33443">
        <ele>192.65</ele>
        <time>2021-06-23T10:08:01Z</time>
      </trkpt>
      <trkpt lat="48.01936" lon="7.33401">
        <ele>191.83</ele>
        <time>2021-06-23T10:08:07Z</time>
      </trkpt>
      <trkpt lat="48.01936" lon="7.33401">
        <ele>191.83</ele>
        <time>2021-06-23T10:08:07Z</time>
      </trkpt>
      <trkpt lat="48.01968" lon="7.33366">
        <ele>191</ele>
        <time>2021-06-23T10:08:12Z</time>
      </trkpt>
      <trkpt lat="48.02005" lon="7.33318">
        <ele>191.08</ele>
        <time>2021-06-23T10:08:17Z</time>
      </trkpt>
      <trkpt lat="48.0205" lon="7.33253">
        <ele>191.63</ele>
        <time>2021-06-23T10:08:23Z</time>
      </trkpt>
      <trkpt lat="48.02107" lon="7.33149">
        <ele>192.14</ele>
        <time>2021-06-23T10:08:28Z</time>
      </trkpt>
      <trkpt lat="48.02144" lon="7.33067">
        <ele>191.93</ele>
        <time>2021-06-23T10:08:34Z</time>
      </trkpt>
      <trkpt lat="48.02157" lon="7.33032">
        <ele>192.57</ele>
        <time>2021-06-23T10:08:39Z</time>
      </trkpt>
      <trkpt lat="48.02224" lon="7.32839">
        <ele>191.93</ele>
        <time>2021-06-23T10:08:44Z</time>
      </trkpt>
      <trkpt lat="48.02234" lon="7.32803">
        <ele>192.19</ele>
        <time>2021-06-23T10:08:50Z</time>
      </trkpt>
      <trkpt lat="48.02241" lon="7.32806">
        <ele>191.62</ele>
        <time>2021-06-23T10:08:54Z</time>
      </trkpt>
      <trkpt lat="48.02249" lon="7.32803">
        <ele>191.24</ele>
        <time>2021-06-23T10:08:58Z</time>
      </trkpt>
      <trkpt lat="48.02253" lon="7.32799">
        <ele>191.59</ele>
        <time>2021-06-23T10:09:02Z</time>
      </trkpt>
      <trkpt lat="48.02258" lon="7.32789">
        <ele>192.47</ele>
        <time>2021-06-23T10:09:06Z</time>
      </trkpt>
      <trkpt lat="48.02259" lon="7.3278">
        <ele>193.15</ele>
        <time>2021-06-23T10:09:10Z</time>
      </trkpt>
      <trkpt lat="48.02258" lon="7.32771">
        <ele>193.29</ele>
        <time>2021-06-23T10:09:14Z</time>
      </trkpt>
      <trkpt lat="48.02254" lon="7.32762">
        <ele>193.16</ele>
        <time>2021-06-23T10:09:18Z</time>
      </trkpt>
      <trkpt lat="48.02248" lon="7.32756">
        <ele>192.93</ele>
        <time>2021-06-23T10:09:22Z</time>
      </trkpt>
      <trkpt lat="48.02308" lon="7.32543">
        <ele>189.97</ele>
        <time>2021-06-23T10:09:26Z</time>
      </trkpt>
      <trkpt lat="48.02376" lon="7.32311">
        <ele>194.65</ele>
        <time>2021-06-23T10:09:30Z</time>
      </trkpt>
      <trkpt lat="48.024" lon="7.3224">
        <ele>194.47</ele>
        <time>2021-06-23T10:09:34Z</time>
      </trkpt>
      <trkpt lat="48.02416" lon="7.32197">
        <ele>193.04</ele>
        <time>2021-06-23T10:09:38Z</time>
      </trkpt>
      <trkpt lat="48.0246" lon="7.32095">
        <ele>193.51</ele>
        <time>2021-06-23T10:09:42Z</time>
      </trkpt>
      <trkpt lat="48.02502" lon="7.32012">
        <ele>193.31</ele>
        <time>2021-06-23T10:09:46Z</time>
      </trkpt>
      <trkpt lat="48.02545" lon="7.31942">
        <ele>191.53</ele>
        <time>2021-06-23T10:09:50Z</time>
      </trkpt>
      <trkpt lat="48.02609" lon="7.31849">
        <ele>190</ele>
        <time>2021-06-23T10:09:54Z</time>
      </trkpt>
      <trkpt lat="48.0278" lon="7.3161">
        <ele>189.08</ele>
        <time>2021-06-23T10:09:58Z</time>
      </trkpt>
      <trkpt lat="48.02836" lon="7.31536">
        <ele>191.1</ele>
        <time>2021-06-23T10:10:02Z</time>
      </trkpt>
      <trkpt lat="48.02867" lon="7.315">
        <ele>192.42</ele>
        <time>2021-06-23T10:10:06Z</time>
      </trkpt>
      <trkpt lat="48.02975" lon="7.31404">
        <ele>192</ele>
        <time>2021-06-23T10:10:10Z</time>
      </trkpt>
      <trkpt lat="48.02994" lon="7.31385">
        <ele>192</ele>
        <time>2021-06-23T10:10:14Z</time>
      </trkpt>
      <trkpt lat="48.03098" lon="7.31255">
        <ele>195.8</ele>
        <time>2021-06-23T10:10:18Z</time>
      </trkpt>
      <trkpt lat="48.0315" lon="7.31193">
        <ele>197.7</ele>
        <time>2021-06-23T10:10:22Z</time>
      </trkpt>
      <trkpt lat="48.0316" lon="7.31184">
        <ele>198</ele>
        <time>2021-06-23T10:10:26Z</time>
      </trkpt>
      <trkpt lat="48.03175" lon="7.31177">
        <ele>198.39</ele>
        <time>2021-06-23T10:10:30Z</time>
      </trkpt>
      <trkpt lat="48.03184" lon="7.31176">
        <ele>198.2</ele>
        <time>2021-06-23T10:10:34Z</time>
      </trkpt>
      <trkpt lat="48.03184" lon="7.31176">
        <ele>198.2</ele>
        <time>2021-06-23T10:10:34Z</time>
      </trkpt>
      <trkpt lat="48.03223" lon="7.31171">
        <ele>198</ele>
        <time>2021-06-23T10:10:39Z</time>
      </trkpt>
      <trkpt lat="48.03232" lon="7.3117">
        <ele>198</ele>
        <time>2021-06-23T10:10:44Z</time>
      </trkpt>
      <trkpt lat="48.03307" lon="7.31183">
        <ele>198.03</ele>
        <time>2021-06-23T10:10:49Z</time>
      </trkpt>
      <trkpt lat="48.03353" lon="7.31186">
        <ele>198.31</ele>
        <time>2021-06-23T10:10:55Z</time>
      </trkpt>
      <trkpt lat="48.03395" lon="7.31184">
        <ele>198.07</ele>
        <time>2021-06-23T10:11:00Z</time>
      </trkpt>
      <trkpt lat="48.03655" lon="7.31145">
        <ele>198.76</ele>
        <time>2021-06-23T10:11:05Z</time>
      </trkpt>
      <trkpt lat="48.038" lon="7.31117">
        <ele>204.37</ele>
        <time>2021-06-23T10:11:10Z</time>
      </trkpt>
      <trkpt lat="48.0383" lon="7.31115">
        <ele>205.45</ele>
        <time>2021-06-23T10:11:16Z</time>
      </trkpt>
      <trkpt lat="48.03935" lon="7.31119">
        <ele>207.63</ele>
        <time>2021-06-23T10:11:21Z</time>
      </trkpt>
      <trkpt lat="48.04084" lon="7.31138">
        <ele>202</ele>
        <time>2021-06-23T10:11:26Z</time>
      </trkpt>
      <trkpt lat="48.04142" lon="7.31135">
        <ele>203</ele>
        <time>2021-06-23T10:11:31Z</time>
      </trkpt>
      <trkpt lat="48.0415" lon="7.31137">
        <ele>203</ele>
        <time>2021-06-23T10:11:37Z</time>
      </trkpt>
      <trkpt lat="48.04158" lon="7.31141">
        <ele>202.92</ele>
        <time>2021-06-23T10:11:42Z</time>
      </trkpt>
      <trkpt lat="48.04319" lon="7.31186">
        <ele>196.79</ele>
        <time>2021-06-23T10:11:47Z</time>
      </trkpt>
      <trkpt lat="48.04352" lon="7.31193">
        <ele>196.09</ele>
        <time>2021-06-23T10:11:52Z</time>
      </trkpt>
      <trkpt lat="48.04361" lon="7.31192">
        <ele>196.1</ele>
        <time>2021-06-23T10:11:58Z</time>
      </trkpt>
      <trkpt lat="48.04366" lon="7.31189">
        <ele>196.36</ele>
        <time>2021-06-23T10:12:03Z</time>
      </trkpt>
      <trkpt lat="48.04391" lon="7.31159">
        <ele>197.2</ele>
        <time>2021-06-23T10:12:08Z</time>
      </trkpt>
      <trkpt lat="48.04427" lon="7.31123">
        <ele>196.84</ele>
        <time>2021-06-23T10:12:13Z</time>
      </trkpt>
      <trkpt lat="48.045" lon="7.31063">
        <ele>198</ele>
        <time>2021-06-23T10:12:19Z</time>
      </trkpt>
      <trkpt lat="48.04575" lon="7.31036">
        <ele>197</ele>
        <time>2021-06-23T10:12:24Z</time>
      </trkpt>
      <trkpt lat="48.04578" lon="7.3106">
        <ele>197.03</ele>
        <time>2021-06-23T10:12:27Z</time>
      </trkpt>
      <trkpt lat="48.04575" lon="7.31089">
        <ele>197.01</ele>
        <time>2021-06-23T10:12:31Z</time>
      </trkpt>
      <trkpt lat="48.04575" lon="7.31089">
        <ele>197.01</ele>
        <time>2021-06-23T10:12:31Z</time>
      </trkpt>
      <trkpt lat="48.04578" lon="7.3106">
        <ele>197.03</ele>
        <time>2021-06-23T10:12:34Z</time>
      </trkpt>
      <trkpt lat="48.04575" lon="7.31036">
        <ele>197</ele>
        <time>2021-06-23T10:12:37Z</time>
      </trkpt>
      <trkpt lat="48.04591" lon="7.31022">
        <ele>197.05</ele>
        <time>2021-06-23T10:12:42Z</time>
      </trkpt>
      <trkpt lat="48.0461" lon="7.31021">
        <ele>197.24</ele>
        <time>2021-06-23T10:12:47Z</time>
      </trkpt>
      <trkpt lat="48.04663" lon="7.31035">
        <ele>197.78</ele>
        <time>2021-06-23T10:12:52Z</time>
      </trkpt>
      <trkpt lat="48.04688" lon="7.31046">
        <ele>197.07</ele>
        <time>2021-06-23T10:12:57Z</time>
      </trkpt>
      <trkpt lat="48.04718" lon="7.31075">
        <ele>196.14</ele>
        <time>2021-06-23T10:13:02Z</time>
      </trkpt>
      <trkpt lat="48.0474" lon="7.31093">
        <ele>196.12</ele>
        <time>2021-06-23T10:13:07Z</time>
      </trkpt>
      <trkpt lat="48.04779" lon="7.31114">
        <ele>196</ele>
        <time>2021-06-23T10:13:12Z</time>
      </trkpt>
      <trkpt lat="48.04839" lon="7.31133">
        <ele>196.79</ele>
        <time>2021-06-23T10:13:17Z</time>
      </trkpt>
      <trkpt lat="48.04868" lon="7.3114">
        <ele>197.27</ele>
        <time>2021-06-23T10:13:22Z</time>
      </trkpt>
      <trkpt lat="48.04888" lon="7.31142">
        <ele>197.86</ele>
        <time>2021-06-23T10:13:26Z</time>
      </trkpt>
      <trkpt lat="48.04934" lon="7.31136">
        <ele>197.34</ele>
        <time>2021-06-23T10:13:31Z</time>
      </trkpt>
      <trkpt lat="48.05003" lon="7.31122">
        <ele>198.05</ele>
        <time>2021-06-23T10:13:36Z</time>
      </trkpt>
      <trkpt lat="48.05266" lon="7.31067">
        <ele>196.24</ele>
        <time>2021-06-23T10:13:41Z</time>
      </trkpt>
      <trkpt lat="48.05338" lon="7.31049">
        <ele>198.13</ele>
        <time>2021-06-23T10:13:46Z</time>
      </trkpt>
      <trkpt lat="48.05363" lon="7.31048">
        <ele>198.85</ele>
        <time>2021-06-23T10:13:51Z</time>
      </trkpt>
      <trkpt lat="48.05381" lon="7.31052">
        <ele>199.76</ele>
        <time>2021-06-23T10:13:56Z</time>
      </trkpt>
      <trkpt lat="48.054" lon="7.31069">
        <ele>200.2</ele>
        <time>2021-06-23T10:14:01Z</time>
      </trkpt>
      <trkpt lat="48.0541" lon="7.31085">
        <ele>199.98</ele>
        <time>2021-06-23T10:14:06Z</time>
      </trkpt>
      <trkpt lat="48.0541" lon="7.31101">
        <ele>199.84</ele>
        <time>2021-06-23T10:14:11Z</time>
      </trkpt>
      <trkpt lat="48.05412" lon="7.31113">
        <ele>199.77</ele>
        <time>2021-06-23T10:14:16Z</time>
      </trkpt>
      <trkpt lat="48.05417" lon="7.31124">
        <ele>199.56</ele>
        <time>2021-06-23T10:14:21Z</time>
      </trkpt>
      <trkpt lat="48.05423" lon="7.3113">
        <ele>199.47</ele>
        <time>2021-06-23T10:14:26Z</time>
      </trkpt>
      <trkpt lat="48.0543" lon="7.31134">
        <ele>199.56</ele>
        <time>2021-06-23T10:14:31Z</time>
      </trkpt>
      <trkpt lat="48.05437" lon="7.31135">
        <ele>199.75</ele>
        <time>2021-06-23T10:14:36Z</time>
      </trkpt>
      <trkpt lat="48.05444" lon="7.31134">
        <ele>199.97</ele>
        <time>2021-06-23T10:14:41Z</time>
      </trkpt>
      <trkpt lat="48.05452" lon="7.31129">
        <ele>200.1</ele>
        <time>2021-06-23T10:14:46Z</time>
      </trkpt>
      <trkpt lat="48.05458" lon="7.3112">
        <ele>200.34</ele>
        <time>2021-06-23T10:14:51Z</time>
      </trkpt>
      <trkpt lat="48.05462" lon="7.31108">
        <ele>200.74</ele>
        <time>2021-06-23T10:14:56Z</time>
      </trkpt>
      <trkpt lat="48.05464" lon="7.31095">
        <ele>201.26</ele>
        <time>2021-06-23T10:15:01Z</time>
      </trkpt>
      <trkpt lat="48.05479" lon="7.31084">
        <ele>201.98</ele>
        <time>2021-06-23T10:15:06Z</time>
      </trkpt>
      <trkpt lat="48.05511" lon="7.31067">
        <ele>202.35</ele>
        <time>2021-06-23T10:15:11Z</time>
      </trkpt>
      <trkpt lat="48.05585" lon="7.31037">
        <ele>202.35</ele>
        <time>2021-06-23T10:15:16Z</time>
      </trkpt>
      <trkpt lat="48.05609" lon="7.31018">
        <ele>202.57</ele>
        <time>2021-06-23T10:15:21Z</time>
      </trkpt>
      <trkpt lat="48.05689" lon="7.30983">
        <ele>204</ele>
        <time>2021-06-23T10:15:26Z</time>
      </trkpt>
      <trkpt lat="48.05732" lon="7.3097">
        <ele>203.3</ele>
        <time>2021-06-23T10:15:31Z</time>
      </trkpt>
      <trkpt lat="48.05793" lon="7.30964">
        <ele>203.24</ele>
        <time>2021-06-23T10:15:36Z</time>
      </trkpt>
      <trkpt lat="48.05843" lon="7.30966">
        <ele>205.63</ele>
        <time>2021-06-23T10:15:41Z</time>
      </trkpt>
      <trkpt lat="48.06098" lon="7.3101">
        <ele>207.01</ele>
        <time>2021-06-23T10:15:46Z</time>
      </trkpt>
      <trkpt lat="48.06172" lon="7.31022">
        <ele>206.35</ele>
        <time>2021-06-23T10:15:51Z</time>
      </trkpt>
      <trkpt lat="48.06218" lon="7.31027">
        <ele>207.86</ele>
        <time>2021-06-23T10:15:56Z</time>
      </trkpt>
      <trkpt lat="48.06253" lon="7.31022">
        <ele>207.9</ele>
        <time>2021-06-23T10:16:01Z</time>
      </trkpt>
      <trkpt lat="48.06286" lon="7.31013">
        <ele>207</ele>
        <time>2021-06-23T10:16:06Z</time>
      </trkpt>
      <trkpt lat="48.0632" lon="7.31">
        <ele>208.05</ele>
        <time>2021-06-23T10:16:11Z</time>
      </trkpt>
      <trkpt lat="48.06356" lon="7.30981">
        <ele>209.13</ele>
        <time>2021-06-23T10:16:16Z</time>
      </trkpt>
      <trkpt lat="48.06443" lon="7.30928">
        <ele>210.61</ele>
        <time>2021-06-23T10:16:21Z</time>
      </trkpt>
      <trkpt lat="48.06468" lon="7.30918">
        <ele>210.97</ele>
        <time>2021-06-23T10:16:26Z</time>
      </trkpt>
      <trkpt lat="48.06507" lon="7.30906">
        <ele>208.64</ele>
        <time>2021-06-23T10:16:31Z</time>
      </trkpt>
      <trkpt lat="48.06538" lon="7.30902">
        <ele>207.66</ele>
        <time>2021-06-23T10:16:36Z</time>
      </trkpt>
      <trkpt lat="48.06569" lon="7.30903">
        <ele>208.26</ele>
        <time>2021-06-23T10:16:41Z</time>
      </trkpt>
      <trkpt lat="48.0662" lon="7.30913">
        <ele>210.21</ele>
        <time>2021-06-23T10:16:46Z</time>
      </trkpt>
      <trkpt lat="48.06728" lon="7.3094">
        <ele>212.32</ele>
        <time>2021-06-23T10:16:51Z</time>
      </trkpt>
      <trkpt lat="48.06806" lon="7.30958">
        <ele>212.51</ele>
        <time>2021-06-23T10:16:56Z</time>
      </trkpt>
      <trkpt lat="48.06832" lon="7.30968">
        <ele>212.01</ele>
        <time>2021-06-23T10:17:01Z</time>
      </trkpt>
      <trkpt lat="48.06937" lon="7.31011">
        <ele>213.73</ele>
        <time>2021-06-23T10:17:06Z</time>
      </trkpt>
      <trkpt lat="48.07296" lon="7.3111">
        <ele>214.03</ele>
        <time>2021-06-23T10:17:11Z</time>
      </trkpt>
      <trkpt lat="48.07367" lon="7.31125">
        <ele>212.5</ele>
        <time>2021-06-23T10:17:17Z</time>
      </trkpt>
      <trkpt lat="48.07421" lon="7.31136">
        <ele>212.12</ele>
        <time>2021-06-23T10:17:22Z</time>
      </trkpt>
      <trkpt lat="48.0744" lon="7.31144">
        <ele>212</ele>
        <time>2021-06-23T10:17:27Z</time>
      </trkpt>
      <trkpt lat="48.07456" lon="7.31156">
        <ele>211.57</ele>
        <time>2021-06-23T10:17:32Z</time>
      </trkpt>
      <trkpt lat="48.07462" lon="7.3117">
        <ele>211.52</ele>
        <time>2021-06-23T10:17:37Z</time>
      </trkpt>
      <trkpt lat="48.07466" lon="7.31177">
        <ele>211.8</ele>
        <time>2021-06-23T10:17:42Z</time>
      </trkpt>
      <trkpt lat="48.07478" lon="7.31183">
        <ele>212.45</ele>
        <time>2021-06-23T10:17:47Z</time>
      </trkpt>
      <trkpt lat="48.07486" lon="7.31183">
        <ele>212.86</ele>
        <time>2021-06-23T10:17:53Z</time>
      </trkpt>
      <trkpt lat="48.07498" lon="7.31175">
        <ele>213.16</ele>
        <time>2021-06-23T10:17:58Z</time>
      </trkpt>
      <trkpt lat="48.07505" lon="7.31161">
        <ele>213.19</ele>
        <time>2021-06-23T10:18:03Z</time>
      </trkpt>
      <trkpt lat="48.07527" lon="7.31157">
        <ele>214.55</ele>
        <time>2021-06-23T10:18:09Z</time>
      </trkpt>
      <trkpt lat="48.07755" lon="7.31183">
        <ele>215.65</ele>
        <time>2021-06-23T10:18:14Z</time>
      </trkpt>
      <trkpt lat="48.0815" lon="7.31197">
        <ele>213.64</ele>
        <time>2021-06-23T10:18:19Z</time>
      </trkpt>
      <trkpt lat="48.08341" lon="7.31221">
        <ele>213.21</ele>
        <time>2021-06-23T10:18:24Z</time>
      </trkpt>
      <trkpt lat="48.08365" lon="7.31229">
        <ele>214.44</ele>
        <time>2021-06-23T10:18:30Z</time>
      </trkpt>
      <trkpt lat="48.08371" lon="7.31246">
        <ele>215.53</ele>
        <time>2021-06-23T10:18:31Z</time>
      </trkpt>
      <trkpt lat="48.0838" lon="7.31255">
        <ele>216.59</ele>
        <time>2021-06-23T10:18:32Z</time>
      </trkpt>
      <trkpt lat="48.0839" lon="7.3126">
        <ele>217.33</ele>
        <time>2021-06-23T10:18:34Z</time>
      </trkpt>
      <trkpt lat="48.08399" lon="7.31259">
        <ele>216.96</ele>
        <time>2021-06-23T10:18:35Z</time>
      </trkpt>
      <trkpt lat="48.08408" lon="7.31254">
        <ele>216.46</ele>
        <time>2021-06-23T10:18:37Z</time>
      </trkpt>
      <trkpt lat="48.08418" lon="7.31236">
        <ele>215.43</ele>
        <time>2021-06-23T10:18:38Z</time>
      </trkpt>
      <trkpt lat="48.08421" lon="7.31221">
        <ele>214.85</ele>
        <time>2021-06-23T10:18:39Z</time>
      </trkpt>
      <trkpt lat="48.0842" lon="7.31206">
        <ele>214.89</ele>
        <time>2021-06-23T10:18:41Z</time>
      </trkpt>
      <trkpt lat="48.08413" lon="7.31188">
        <ele>215.03</ele>
        <time>2021-06-23T10:18:42Z</time>
      </trkpt>
      <trkpt lat="48.08411" lon="7.31187">
        <ele>215.18</ele>
        <time>2021-06-23T10:18:43Z</time>
      </trkpt>
      <trkpt lat="48.08411" lon="7.31187">
        <ele>215.18</ele>
        <time>2021-06-23T10:18:43Z</time>
      </trkpt>
      <trkpt lat="48.08401" lon="7.31177">
        <ele>215.34</ele>
        <time>2021-06-23T10:18:46Z</time>
      </trkpt>
      <trkpt lat="48.08395" lon="7.31147">
        <ele>216.51</ele>
        <time>2021-06-23T10:18:48Z</time>
      </trkpt>
      <trkpt lat="48.08399" lon="7.31091">
        <ele>217.27</ele>
        <time>2021-06-23T10:18:50Z</time>
      </trkpt>
      <trkpt lat="48.08408" lon="7.31072">
        <ele>217.67</ele>
        <time>2021-06-23T10:18:53Z</time>
      </trkpt>
      <trkpt lat="48.08414" lon="7.31069">
        <ele>217.88</ele>
        <time>2021-06-23T10:18:56Z</time>
      </trkpt>
      <trkpt lat="48.08417" lon="7.31065">
        <ele>217.98</ele>
        <time>2021-06-23T10:18:59Z</time>
      </trkpt>
      <trkpt lat="48.0842" lon="7.31054">
        <ele>217.87</ele>
        <time>2021-06-23T10:19:02Z</time>
      </trkpt>
      <trkpt lat="48.08418" lon="7.31041">
        <ele>217.94</ele>
        <time>2021-06-23T10:19:05Z</time>
      </trkpt>
      <trkpt lat="48.08412" lon="7.31033">
        <ele>217.97</ele>
        <time>2021-06-23T10:19:08Z</time>
      </trkpt>
      <trkpt lat="48.08404" lon="7.31031">
        <ele>217.95</ele>
        <time>2021-06-23T10:19:11Z</time>
      </trkpt>
      <trkpt lat="48.08398" lon="7.31007">
        <ele>218</ele>
        <time>2021-06-23T10:19:14Z</time>
      </trkpt>
      <trkpt lat="48.08391" lon="7.30954">
        <ele>217.33</ele>
        <time>2021-06-23T10:19:17Z</time>
      </trkpt>
      <trkpt lat="48.08387" lon="7.30889">
        <ele>216.05</ele>
        <time>2021-06-23T10:19:20Z</time>
      </trkpt>
      <trkpt lat="48.08394" lon="7.30762">
        <ele>218.6</ele>
        <time>2021-06-23T10:19:23Z</time>
      </trkpt>
      <trkpt lat="48.08403" lon="7.3064">
        <ele>218.56</ele>
        <time>2021-06-23T10:19:26Z</time>
      </trkpt>
      <trkpt lat="48.08417" lon="7.305">
        <ele>218.02</ele>
        <time>2021-06-23T10:19:29Z</time>
      </trkpt>
      <trkpt lat="48.08428" lon="7.30416">
        <ele>219.59</ele>
        <time>2021-06-23T10:19:32Z</time>
      </trkpt>
      <trkpt lat="48.08456" lon="7.30255">
        <ele>220.1</ele>
        <time>2021-06-23T10:19:35Z</time>
      </trkpt>
      <trkpt lat="48.08461" lon="7.30212">
        <ele>219.62</ele>
        <time>2021-06-23T10:19:38Z</time>
      </trkpt>
      <trkpt lat="48.08463" lon="7.30163">
        <ele>219</ele>
        <time>2021-06-23T10:19:41Z</time>
      </trkpt>
      <trkpt lat="48.08459" lon="7.30073">
        <ele>220.38</ele>
        <time>2021-06-23T10:19:44Z</time>
      </trkpt>
      <trkpt lat="48.08422" lon="7.29789">
        <ele>222.38</ele>
        <time>2021-06-23T10:19:47Z</time>
      </trkpt>
      <trkpt lat="48.08416" lon="7.29713">
        <ele>223.33</ele>
        <time>2021-06-23T10:19:50Z</time>
      </trkpt>
      <trkpt lat="48.08407" lon="7.29539">
        <ele>227.09</ele>
        <time>2021-06-23T10:19:53Z</time>
      </trkpt>
      <trkpt lat="48.08408" lon="7.29417">
        <ele>227.71</ele>
        <time>2021-06-23T10:19:56Z</time>
      </trkpt>
      <trkpt lat="48.08407" lon="7.2931">
        <ele>224</ele>
        <time>2021-06-23T10:19:59Z</time>
      </trkpt>
      <trkpt lat="48.08404" lon="7.29252">
        <ele>227.79</ele>
        <time>2021-06-23T10:20:02Z</time>
      </trkpt>
      <trkpt lat="48.08394" lon="7.29155">
        <ele>229.92</ele>
        <time>2021-06-23T10:20:05Z</time>
      </trkpt>
      <trkpt lat="48.08392" lon="7.29119">
        <ele>229.97</ele>
        <time>2021-06-23T10:20:08Z</time>
      </trkpt>
      <trkpt lat="48.08393" lon="7.29056">
        <ele>232.73</ele>
        <time>2021-06-23T10:20:11Z</time>
      </trkpt>
      <trkpt lat="48.08396" lon="7.28998">
        <ele>230</ele>
        <time>2021-06-23T10:20:14Z</time>
      </trkpt>
      <trkpt lat="48.08408" lon="7.28938">
        <ele>230.52</ele>
        <time>2021-06-23T10:20:17Z</time>
      </trkpt>
      <trkpt lat="48.08428" lon="7.28874">
        <ele>230.52</ele>
        <time>2021-06-23T10:20:20Z</time>
      </trkpt>
      <trkpt lat="48.08483" lon="7.28717">
        <ele>231.79</ele>
        <time>2021-06-23T10:20:23Z</time>
      </trkpt>
      <trkpt lat="48.08488" lon="7.28698">
        <ele>232.13</ele>
        <time>2021-06-23T10:20:27Z</time>
      </trkpt>
      <trkpt lat="48.08493" lon="7.28699">
        <ele>232.48</ele>
        <time>2021-06-23T10:20:32Z</time>
      </trkpt>
      <trkpt lat="48.08497" lon="7.28696">
        <ele>232.8</ele>
        <time>2021-06-23T10:20:37Z</time>
      </trkpt>
      <trkpt lat="48.085" lon="7.2869">
        <ele>233.18</ele>
        <time>2021-06-23T10:20:42Z</time>
      </trkpt>
      <trkpt lat="48.085" lon="7.28679">
        <ele>233.56</ele>
        <time>2021-06-23T10:20:48Z</time>
      </trkpt>
      <trkpt lat="48.08496" lon="7.28671">
        <ele>233.38</ele>
        <time>2021-06-23T10:20:53Z</time>
      </trkpt>
      <trkpt lat="48.08505" lon="7.28627">
        <ele>234.65</ele>
        <time>2021-06-23T10:20:58Z</time>
      </trkpt>
      <trkpt lat="48.0853" lon="7.28379">
        <ele>233.39</ele>
        <time>2021-06-23T10:21:03Z</time>
      </trkpt>
      <trkpt lat="48.0853" lon="7.28343">
        <ele>233.35</ele>
        <time>2021-06-23T10:21:09Z</time>
      </trkpt>
      <trkpt lat="48.08529" lon="7.28315">
        <ele>233</ele>
        <time>2021-06-23T10:21:14Z</time>
      </trkpt>
      <trkpt lat="48.08523" lon="7.28262">
        <ele>233.39</ele>
        <time>2021-06-23T10:21:19Z</time>
      </trkpt>
      <trkpt lat="48.08512" lon="7.28197">
        <ele>233.61</ele>
        <time>2021-06-23T10:21:24Z</time>
      </trkpt>
      <trkpt lat="48.08512" lon="7.28167">
        <ele>233.56</ele>
        <time>2021-06-23T10:21:30Z</time>
      </trkpt>
      <trkpt lat="48.08519" lon="7.28138">
        <ele>233.32</ele>
        <time>2021-06-23T10:21:35Z</time>
      </trkpt>
      <trkpt lat="48.08524" lon="7.28127">
        <ele>233.44</ele>
        <time>2021-06-23T10:21:40Z</time>
      </trkpt>
      <trkpt lat="48.08558" lon="7.28063">
        <ele>234</ele>
        <time>2021-06-23T10:21:45Z</time>
      </trkpt>
      <trkpt lat="48.08575" lon="7.28036">
        <ele>234</ele>
        <time>2021-06-23T10:21:51Z</time>
      </trkpt>
      <trkpt lat="48.08584" lon="7.28019">
        <ele>233.67</ele>
        <time>2021-06-23T10:21:56Z</time>
      </trkpt>
      <trkpt lat="48.08587" lon="7.28009">
        <ele>233.31</ele>
        <time>2021-06-23T10:22:01Z</time>
      </trkpt>
      <trkpt lat="48.08622" lon="7.27947">
        <ele>234.29</ele>
        <time>2021-06-23T10:22:07Z</time>
      </trkpt>
      <trkpt lat="48.08627" lon="7.27936">
        <ele>234.73</ele>
        <time>2021-06-23T10:22:12Z</time>
      </trkpt>
      <trkpt lat="48.08627" lon="7.27927">
        <ele>234.93</ele>
        <time>2021-06-23T10:22:17Z</time>
      </trkpt>
      <trkpt lat="48.0862" lon="7.27887">
        <ele>236.37</ele>
        <time>2021-06-23T10:22:22Z</time>
      </trkpt>
      <trkpt lat="48.08612" lon="7.27862">
        <ele>237</ele>
        <time>2021-06-23T10:22:28Z</time>
      </trkpt>
      <trkpt lat="48.08603" lon="7.27836">
        <ele>237.29</ele>
        <time>2021-06-23T10:22:33Z</time>
      </trkpt>
      <trkpt lat="48.08599" lon="7.27817">
        <ele>237.72</ele>
        <time>2021-06-23T10:22:38Z</time>
      </trkpt>
      <trkpt lat="48.08585" lon="7.27714">
        <ele>236.79</ele>
        <time>2021-06-23T10:22:43Z</time>
      </trkpt>
      <trkpt lat="48.08574" lon="7.27594">
        <ele>236.66</ele>
        <time>2021-06-23T10:22:49Z</time>
      </trkpt>
      <trkpt lat="48.08568" lon="7.27492">
        <ele>236.28</ele>
        <time>2021-06-23T10:22:54Z</time>
      </trkpt>
      <trkpt lat="48.08565" lon="7.27369">
        <ele>239.42</ele>
        <time>2021-06-23T10:22:59Z</time>
      </trkpt>
      <trkpt lat="48.08569" lon="7.27231">
        <ele>236.93</ele>
        <time>2021-06-23T10:23:04Z</time>
      </trkpt>
      <trkpt lat="48.08581" lon="7.27046">
        <ele>237.45</ele>
        <time>2021-06-23T10:23:10Z</time>
      </trkpt>
      <trkpt lat="48.08585" lon="7.26879">
        <ele>243.25</ele>
        <time>2021-06-23T10:23:15Z</time>
      </trkpt>
      <trkpt lat="48.0858" lon="7.26766">
        <ele>242.54</ele>
        <time>2021-06-23T10:23:20Z</time>
      </trkpt>
      <trkpt lat="48.08574" lon="7.26669">
        <ele>240.63</ele>
        <time>2021-06-23T10:23:26Z</time>
      </trkpt>
      <trkpt lat="48.0857" lon="7.26633">
        <ele>241.87</ele>
        <time>2021-06-23T10:23:31Z</time>
      </trkpt>
      <trkpt lat="48.08565" lon="7.266">
        <ele>242.65</ele>
        <time>2021-06-23T10:23:36Z</time>
      </trkpt>
      <trkpt lat="48.08554" lon="7.26559">
        <ele>242</ele>
        <time>2021-06-23T10:23:41Z</time>
      </trkpt>
      <trkpt lat="48.08422" lon="7.26126">
        <ele>249.38</ele>
        <time>2021-06-23T10:23:47Z</time>
      </trkpt>
      <trkpt lat="48.08392" lon="7.25966">
        <ele>252.49</ele>
        <time>2021-06-23T10:23:52Z</time>
      </trkpt>
      <trkpt lat="48.08385" lon="7.25911">
        <ele>253.8</ele>
        <time>2021-06-23T10:23:57Z</time>
      </trkpt>
      <trkpt lat="48.08378" lon="7.25514">
        <ele>268.8</ele>
        <time>2021-06-23T10:24:02Z</time>
      </trkpt>
      <trkpt lat="48.08383" lon="7.25458">
        <ele>271.79</ele>
        <time>2021-06-23T10:24:08Z</time>
      </trkpt>
      <trkpt lat="48.08415" lon="7.25267">
        <ele>282.49</ele>
        <time>2021-06-23T10:24:13Z</time>
      </trkpt>
      <trkpt lat="48.08417" lon="7.25244">
        <ele>283</ele>
        <time>2021-06-23T10:24:18Z</time>
      </trkpt>
      <trkpt lat="48.08416" lon="7.25216">
        <ele>283.01</ele>
        <time>2021-06-23T10:24:23Z</time>
      </trkpt>
      <trkpt lat="48.08407" lon="7.25134">
        <ele>284.63</ele>
        <time>2021-06-23T10:24:29Z</time>
      </trkpt>
      <trkpt lat="48.08403" lon="7.24893">
        <ele>300.4</ele>
        <time>2021-06-23T10:24:34Z</time>
      </trkpt>
      <trkpt lat="48.08404" lon="7.24787">
        <ele>305.88</ele>
        <time>2021-06-23T10:24:39Z</time>
      </trkpt>
      <trkpt lat="48.08407" lon="7.24725">
        <ele>305.09</ele>
        <time>2021-06-23T10:24:45Z</time>
      </trkpt>
      <trkpt lat="48.0842" lon="7.24586">
        <ele>309.59</ele>
        <time>2021-06-23T10:24:50Z</time>
      </trkpt>
      <trkpt lat="48.08417" lon="7.2438">
        <ele>318.33</ele>
        <time>2021-06-23T10:24:55Z</time>
      </trkpt>
      <trkpt lat="48.08418" lon="7.24332">
        <ele>319.95</ele>
        <time>2021-06-23T10:25:00Z</time>
      </trkpt>
      <trkpt lat="48.08426" lon="7.24252">
        <ele>327.16</ele>
        <time>2021-06-23T10:25:06Z</time>
      </trkpt>
      <trkpt lat="48.08434" lon="7.24205">
        <ele>329.6</ele>
        <time>2021-06-23T10:25:11Z</time>
      </trkpt>
      <trkpt lat="48.08447" lon="7.24156">
        <ele>331.71</ele>
        <time>2021-06-23T10:25:16Z</time>
      </trkpt>
      <trkpt lat="48.08463" lon="7.24116">
        <ele>333.28</ele>
        <time>2021-06-23T10:25:21Z</time>
      </trkpt>
      <trkpt lat="48.08463" lon="7.24116">
        <ele>333.28</ele>
        <time>2021-06-23T10:25:21Z</time>
      </trkpt>
      <trkpt lat="48.08475" lon="7.2409">
        <ele>333.55</ele>
        <time>2021-06-23T10:25:24Z</time>
      </trkpt>
      <trkpt lat="48.08597" lon="7.23913">
        <ele>347.91</ele>
        <time>2021-06-23T10:25:26Z</time>
      </trkpt>
      <trkpt lat="48.08626" lon="7.2389">
        <ele>351.38</ele>
        <time>2021-06-23T10:25:29Z</time>
      </trkpt>
      <trkpt lat="48.08728" lon="7.23828">
        <ele>348.03</ele>
        <time>2021-06-23T10:25:31Z</time>
      </trkpt>
      <trkpt lat="48.0874" lon="7.23825">
        <ele>348.76</ele>
        <time>2021-06-23T10:25:33Z</time>
      </trkpt>
      <trkpt lat="48.08783" lon="7.23821">
        <ele>353.15</ele>
        <time>2021-06-23T10:25:36Z</time>
      </trkpt>
      <trkpt lat="48.08792" lon="7.23817">
        <ele>355.06</ele>
        <time>2021-06-23T10:25:38Z</time>
      </trkpt>
      <trkpt lat="48.088" lon="7.23806">
        <ele>357.2</ele>
        <time>2021-06-23T10:25:40Z</time>
      </trkpt>
      <trkpt lat="48.08809" lon="7.23779">
        <ele>360.84</ele>
        <time>2021-06-23T10:25:43Z</time>
      </trkpt>
      <trkpt lat="48.08813" lon="7.23756">
        <ele>363.9</ele>
        <time>2021-06-23T10:25:45Z</time>
      </trkpt>
      <trkpt lat="48.08819" lon="7.23657">
        <ele>373.27</ele>
        <time>2021-06-23T10:25:47Z</time>
      </trkpt>
      <trkpt lat="48.08822" lon="7.23638">
        <ele>374.38</ele>
        <time>2021-06-23T10:25:50Z</time>
      </trkpt>
      <trkpt lat="48.08827" lon="7.23622">
        <ele>375.55</ele>
        <time>2021-06-23T10:25:52Z</time>
      </trkpt>
      <trkpt lat="48.08835" lon="7.2361">
        <ele>376.19</ele>
        <time>2021-06-23T10:25:54Z</time>
      </trkpt>
      <trkpt lat="48.08842" lon="7.23606">
        <ele>377.07</ele>
        <time>2021-06-23T10:25:57Z</time>
      </trkpt>
      <trkpt lat="48.08852" lon="7.23605">
        <ele>377.94</ele>
        <time>2021-06-23T10:25:59Z</time>
      </trkpt>
      <trkpt lat="48.0886" lon="7.23607">
        <ele>378.33</ele>
        <time>2021-06-23T10:26:01Z</time>
      </trkpt>
      <trkpt lat="48.0887" lon="7.23615">
        <ele>380.44</ele>
        <time>2021-06-23T10:26:04Z</time>
      </trkpt>
      <trkpt lat="48.08876" lon="7.23629">
        <ele>381.16</ele>
        <time>2021-06-23T10:26:06Z</time>
      </trkpt>
      <trkpt lat="48.0888" lon="7.23648">
        <ele>378.21</ele>
        <time>2021-06-23T10:26:08Z</time>
      </trkpt>
      <trkpt lat="48.0888" lon="7.23648">
        <ele>378.21</ele>
        <time>2021-06-23T10:26:08Z</time>
      </trkpt>
      <trkpt lat="48.08884" lon="7.2373">
        <ele>373.48</ele>
        <time>2021-06-23T10:26:11Z</time>
      </trkpt>
      <trkpt lat="48.08887" lon="7.23745">
        <ele>371.33</ele>
        <time>2021-06-23T10:26:13Z</time>
      </trkpt>
      <trkpt lat="48.08893" lon="7.23754">
        <ele>371.2</ele>
        <time>2021-06-23T10:26:15Z</time>
      </trkpt>
      <trkpt lat="48.08967" lon="7.23776">
        <ele>374.67</ele>
        <time>2021-06-23T10:26:18Z</time>
      </trkpt>
      <trkpt lat="48.08997" lon="7.2378">
        <ele>375.25</ele>
        <time>2021-06-23T10:26:20Z</time>
      </trkpt>
      <trkpt lat="48.0901" lon="7.23778">
        <ele>376.39</ele>
        <time>2021-06-23T10:26:22Z</time>
      </trkpt>
      <trkpt lat="48.09058" lon="7.23755">
        <ele>386.6</ele>
        <time>2021-06-23T10:26:25Z</time>
      </trkpt>
      <trkpt lat="48.09078" lon="7.23752">
        <ele>387.29</ele>
        <time>2021-06-23T10:26:27Z</time>
      </trkpt>
      <trkpt lat="48.09099" lon="7.23753">
        <ele>388.28</ele>
        <time>2021-06-23T10:26:29Z</time>
      </trkpt>
      <trkpt lat="48.09134" lon="7.2376">
        <ele>389.35</ele>
        <time>2021-06-23T10:26:32Z</time>
      </trkpt>
      <trkpt lat="48.09176" lon="7.23774">
        <ele>389.8</ele>
        <time>2021-06-23T10:26:34Z</time>
      </trkpt>
      <trkpt lat="48.09204" lon="7.23786">
        <ele>393.99</ele>
        <time>2021-06-23T10:26:36Z</time>
      </trkpt>
      <trkpt lat="48.09222" lon="7.23803">
        <ele>398.29</ele>
        <time>2021-06-23T10:26:39Z</time>
      </trkpt>
      <trkpt lat="48.09229" lon="7.23812">
        <ele>399.88</ele>
        <time>2021-06-23T10:26:41Z</time>
      </trkpt>
      <trkpt lat="48.09229" lon="7.23812">
        <ele>399.88</ele>
        <time>2021-06-23T10:26:41Z</time>
      </trkpt>
      <trkpt lat="48.09236" lon="7.23827">
        <ele>400.08</ele>
        <time>2021-06-23T10:26:43Z</time>
      </trkpt>
      <trkpt lat="48.09238" lon="7.23837">
        <ele>399.32</ele>
        <time>2021-06-23T10:26:45Z</time>
      </trkpt>
      <trkpt lat="48.09237" lon="7.23859">
        <ele>398.15</ele>
        <time>2021-06-23T10:26:47Z</time>
      </trkpt>
      <trkpt lat="48.09228" lon="7.23876">
        <ele>399.36</ele>
        <time>2021-06-23T10:26:49Z</time>
      </trkpt>
      <trkpt lat="48.09218" lon="7.23883">
        <ele>400.09</ele>
        <time>2021-06-23T10:26:51Z</time>
      </trkpt>
      <trkpt lat="48.09159" lon="7.23883">
        <ele>400.8</ele>
        <time>2021-06-23T10:26:52Z</time>
      </trkpt>
      <trkpt lat="48.09125" lon="7.23881">
        <ele>399.84</ele>
        <time>2021-06-23T10:26:54Z</time>
      </trkpt>
      <trkpt lat="48.09084" lon="7.23888">
        <ele>400.74</ele>
        <time>2021-06-23T10:26:56Z</time>
      </trkpt>
      <trkpt lat="48.09071" lon="7.23895">
        <ele>402.47</ele>
        <time>2021-06-23T10:26:58Z</time>
      </trkpt>
      <trkpt lat="48.09025" lon="7.23931">
        <ele>410.14</ele>
        <time>2021-06-23T10:27:00Z</time>
      </trkpt>
      <trkpt lat="48.09011" lon="7.23936">
        <ele>410.7</ele>
        <time>2021-06-23T10:27:02Z</time>
      </trkpt>
      <trkpt lat="48.08972" lon="7.23946">
        <ele>412.46</ele>
        <time>2021-06-23T10:27:04Z</time>
      </trkpt>
      <trkpt lat="48.08921" lon="7.23967">
        <ele>414.03</ele>
        <time>2021-06-23T10:27:06Z</time>
      </trkpt>
      <trkpt lat="48.08902" lon="7.23978">
        <ele>412.39</ele>
        <time>2021-06-23T10:27:08Z</time>
      </trkpt>
      <trkpt lat="48.08886" lon="7.2399">
        <ele>411.88</ele>
        <time>2021-06-23T10:27:10Z</time>
      </trkpt>
      <trkpt lat="48.08875" lon="7.24">
        <ele>412.19</ele>
        <time>2021-06-23T10:27:12Z</time>
      </trkpt>
      <trkpt lat="48.08838" lon="7.24063">
        <ele>417.86</ele>
        <time>2021-06-23T10:27:13Z</time>
      </trkpt>
      <trkpt lat="48.088" lon="7.24106">
        <ele>420.35</ele>
        <time>2021-06-23T10:27:15Z</time>
      </trkpt>
      <trkpt lat="48.08792" lon="7.2412">
        <ele>420.55</ele>
        <time>2021-06-23T10:27:17Z</time>
      </trkpt>
      <trkpt lat="48.0879" lon="7.2413">
        <ele>420.87</ele>
        <time>2021-06-23T10:27:19Z</time>
      </trkpt>
      <trkpt lat="48.08791" lon="7.24144">
        <ele>421.36</ele>
        <time>2021-06-23T10:27:21Z</time>
      </trkpt>
      <trkpt lat="48.08797" lon="7.24166">
        <ele>421.79</ele>
        <time>2021-06-23T10:27:23Z</time>
      </trkpt>
      <trkpt lat="48.08801" lon="7.2417">
        <ele>422.07</ele>
        <time>2021-06-23T10:27:25Z</time>
      </trkpt>
      <trkpt lat="48.08801" lon="7.2417">
        <ele>422.07</ele>
        <time>2021-06-23T10:27:25Z</time>
      </trkpt>
      <trkpt lat="48.08809" lon="7.2418">
        <ele>422.35</ele>
        <time>2021-06-23T10:27:27Z</time>
      </trkpt>
      <trkpt lat="48.08818" lon="7.24183">
        <ele>424.04</ele>
        <time>2021-06-23T10:27:29Z</time>
      </trkpt>
      <trkpt lat="48.08826" lon="7.24181">
        <ele>425.92</ele>
        <time>2021-06-23T10:27:31Z</time>
      </trkpt>
      <trkpt lat="48.08834" lon="7.24171">
        <ele>427.89</ele>
        <time>2021-06-23T10:27:34Z</time>
      </trkpt>
      <trkpt lat="48.08839" lon="7.24158">
        <ele>428.93</ele>
        <time>2021-06-23T10:27:36Z</time>
      </trkpt>
      <trkpt lat="48.08847" lon="7.24115">
        <ele>427.83</ele>
        <time>2021-06-23T10:27:38Z</time>
      </trkpt>
      <trkpt lat="48.08852" lon="7.24102">
        <ele>427.39</ele>
        <time>2021-06-23T10:27:40Z</time>
      </trkpt>
      <trkpt lat="48.08864" lon="7.24081">
        <ele>427.12</ele>
        <time>2021-06-23T10:27:43Z</time>
      </trkpt>
      <trkpt lat="48.08877" lon="7.24064">
        <ele>427.33</ele>
        <time>2021-06-23T10:27:45Z</time>
      </trkpt>
      <trkpt lat="48.0889" lon="7.24053">
        <ele>428.87</ele>
        <time>2021-06-23T10:27:47Z</time>
      </trkpt>
      <trkpt lat="48.08905" lon="7.24046">
        <ele>431.15</ele>
        <time>2021-06-23T10:27:49Z</time>
      </trkpt>
      <trkpt lat="48.08981" lon="7.24023">
        <ele>440.12</ele>
        <time>2021-06-23T10:27:51Z</time>
      </trkpt>
      <trkpt lat="48.09119" lon="7.2401">
        <ele>448.44</ele>
        <time>2021-06-23T10:27:54Z</time>
      </trkpt>
      <trkpt lat="48.09147" lon="7.24018">
        <ele>451.04</ele>
        <time>2021-06-23T10:27:56Z</time>
      </trkpt>
      <trkpt lat="48.09291" lon="7.24129">
        <ele>464.06</ele>
        <time>2021-06-23T10:27:58Z</time>
      </trkpt>
      <trkpt lat="48.09328" lon="7.24168">
        <ele>469.33</ele>
        <time>2021-06-23T10:28:00Z</time>
      </trkpt>
      <trkpt lat="48.09336" lon="7.24174">
        <ele>470.07</ele>
        <time>2021-06-23T10:28:03Z</time>
      </trkpt>
      <trkpt lat="48.09369" lon="7.24187">
        <ele>471.63</ele>
        <time>2021-06-23T10:28:05Z</time>
      </trkpt>
      <trkpt lat="48.09388" lon="7.24188">
        <ele>472.23</ele>
        <time>2021-06-23T10:28:07Z</time>
      </trkpt>
      <trkpt lat="48.09403" lon="7.24185">
        <ele>473.79</ele>
        <time>2021-06-23T10:28:09Z</time>
      </trkpt>
      <trkpt lat="48.09428" lon="7.24176">
        <ele>477.06</ele>
        <time>2021-06-23T10:28:11Z</time>
      </trkpt>
      <trkpt lat="48.09436" lon="7.2417">
        <ele>478.11</ele>
        <time>2021-06-23T10:28:14Z</time>
      </trkpt>
      <trkpt lat="48.0944" lon="7.24159">
        <ele>478.43</ele>
        <time>2021-06-23T10:28:16Z</time>
      </trkpt>
      <trkpt lat="48.09441" lon="7.24148">
        <ele>478.34</ele>
        <time>2021-06-23T10:28:18Z</time>
      </trkpt>
      <trkpt lat="48.09439" lon="7.24134">
        <ele>477.54</ele>
        <time>2021-06-23T10:28:20Z</time>
      </trkpt>
      <trkpt lat="48.09428" lon="7.24104">
        <ele>473.97</ele>
        <time>2021-06-23T10:28:22Z</time>
      </trkpt>
      <trkpt lat="48.09424" lon="7.24085">
        <ele>472.49</ele>
        <time>2021-06-23T10:28:25Z</time>
      </trkpt>
      <trkpt lat="48.09425" lon="7.24069">
        <ele>470.99</ele>
        <time>2021-06-23T10:28:27Z</time>
      </trkpt>
      <trkpt lat="48.09428" lon="7.24054">
        <ele>470.47</ele>
        <time>2021-06-23T10:28:29Z</time>
      </trkpt>
      <trkpt lat="48.09434" lon="7.24043">
        <ele>470.54</ele>
        <time>2021-06-23T10:28:31Z</time>
      </trkpt>
      <trkpt lat="48.09446" lon="7.24035">
        <ele>472.53</ele>
        <time>2021-06-23T10:28:34Z</time>
      </trkpt>
      <trkpt lat="48.09575" lon="7.23995">
        <ele>485.74</ele>
        <time>2021-06-23T10:28:36Z</time>
      </trkpt>
      <trkpt lat="48.0965" lon="7.23975">
        <ele>492.35</ele>
        <time>2021-06-23T10:28:38Z</time>
      </trkpt>
      <trkpt lat="48.09665" lon="7.23968">
        <ele>495.17</ele>
        <time>2021-06-23T10:28:40Z</time>
      </trkpt>
      <trkpt lat="48.09671" lon="7.23963">
        <ele>497.01</ele>
        <time>2021-06-23T10:28:42Z</time>
      </trkpt>
      <trkpt lat="48.09675" lon="7.23954">
        <ele>498.73</ele>
        <time>2021-06-23T10:28:45Z</time>
      </trkpt>
      <trkpt lat="48.09676" lon="7.23942">
        <ele>498.86</ele>
        <time>2021-06-23T10:28:47Z</time>
      </trkpt>
      <trkpt lat="48.09671" lon="7.23906">
        <ele>496.51</ele>
        <time>2021-06-23T10:28:49Z</time>
      </trkpt>
      <trkpt lat="48.09671" lon="7.23906">
        <ele>496.51</ele>
        <time>2021-06-23T10:28:49Z</time>
      </trkpt>
      <trkpt lat="48.09669" lon="7.23893">
        <ele>494.16</ele>
        <time>2021-06-23T10:28:51Z</time>
      </trkpt>
      <trkpt lat="48.09672" lon="7.23869">
        <ele>496.77</ele>
        <time>2021-06-23T10:28:52Z</time>
      </trkpt>
      <trkpt lat="48.09682" lon="7.23818">
        <ele>506.59</ele>
        <time>2021-06-23T10:28:54Z</time>
      </trkpt>
      <trkpt lat="48.09682" lon="7.23805">
        <ele>508.07</ele>
        <time>2021-06-23T10:28:56Z</time>
      </trkpt>
      <trkpt lat="48.09679" lon="7.23792">
        <ele>509.88</ele>
        <time>2021-06-23T10:28:58Z</time>
      </trkpt>
      <trkpt lat="48.09669" lon="7.23786">
        <ele>508.66</ele>
        <time>2021-06-23T10:28:59Z</time>
      </trkpt>
      <trkpt lat="48.0966" lon="7.23786">
        <ele>507.14</ele>
        <time>2021-06-23T10:29:01Z</time>
      </trkpt>
      <trkpt lat="48.09648" lon="7.23792">
        <ele>503.81</ele>
        <time>2021-06-23T10:29:03Z</time>
      </trkpt>
      <trkpt lat="48.09638" lon="7.23794">
        <ele>501.6</ele>
        <time>2021-06-23T10:29:04Z</time>
      </trkpt>
      <trkpt lat="48.09628" lon="7.23791">
        <ele>501.57</ele>
        <time>2021-06-23T10:29:06Z</time>
      </trkpt>
      <trkpt lat="48.09558" lon="7.2375">
        <ele>512.03</ele>
        <time>2021-06-23T10:29:08Z</time>
      </trkpt>
      <trkpt lat="48.09538" lon="7.23741">
        <ele>513.59</ele>
        <time>2021-06-23T10:29:10Z</time>
      </trkpt>
      <trkpt lat="48.09477" lon="7.2372">
        <ele>514.11</ele>
        <time>2021-06-23T10:29:11Z</time>
      </trkpt>
      <trkpt lat="48.09464" lon="7.23714">
        <ele>513.62</ele>
        <time>2021-06-23T10:29:13Z</time>
      </trkpt>
      <trkpt lat="48.09451" lon="7.23704">
        <ele>513.48</ele>
        <time>2021-06-23T10:29:15Z</time>
      </trkpt>
      <trkpt lat="48.09436" lon="7.23686">
        <ele>513.38</ele>
        <time>2021-06-23T10:29:16Z</time>
      </trkpt>
      <trkpt lat="48.09428" lon="7.23671">
        <ele>512.91</ele>
        <time>2021-06-23T10:29:18Z</time>
      </trkpt>
      <trkpt lat="48.09424" lon="7.2365">
        <ele>513.12</ele>
        <time>2021-06-23T10:29:20Z</time>
      </trkpt>
      <trkpt lat="48.09425" lon="7.23629">
        <ele>513.68</ele>
        <time>2021-06-23T10:29:22Z</time>
      </trkpt>
      <trkpt lat="48.09429" lon="7.23607">
        <ele>513.99</ele>
        <time>2021-06-23T10:29:23Z</time>
      </trkpt>
      <trkpt lat="48.09438" lon="7.23582">
        <ele>514.36</ele>
        <time>2021-06-23T10:29:25Z</time>
      </trkpt>
      <trkpt lat="48.09447" lon="7.23563">
        <ele>514.14</ele>
        <time>2021-06-23T10:29:27Z</time>
      </trkpt>
      <trkpt lat="48.09458" lon="7.23544">
        <ele>515.92</ele>
        <time>2021-06-23T10:29:29Z</time>
      </trkpt>
      <trkpt lat="48.09528" lon="7.2347">
        <ele>526.33</ele>
        <time>2021-06-23T10:29:30Z</time>
      </trkpt>
      <trkpt lat="48.09576" lon="7.23422">
        <ele>530.39</ele>
        <time>2021-06-23T10:29:32Z</time>
      </trkpt>
      <trkpt lat="48.09592" lon="7.23398">
        <ele>533.23</ele>
        <time>2021-06-23T10:29:34Z</time>
      </trkpt>
      <trkpt lat="48.09608" lon="7.23367">
        <ele>534.47</ele>
        <time>2021-06-23T10:29:35Z</time>
      </trkpt>
      <trkpt lat="48.09634" lon="7.23307">
        <ele>537.77</ele>
        <time>2021-06-23T10:29:37Z</time>
      </trkpt>
      <trkpt lat="48.09656" lon="7.23261">
        <ele>544.52</ele>
        <time>2021-06-23T10:29:39Z</time>
      </trkpt>
      <trkpt lat="48.09684" lon="7.23225">
        <ele>550.26</ele>
        <time>2021-06-23T10:29:41Z</time>
      </trkpt>
      <trkpt lat="48.09686" lon="7.23218">
        <ele>551.64</ele>
        <time>2021-06-23T10:29:42Z</time>
      </trkpt>
      <trkpt lat="48.09687" lon="7.23208">
        <ele>554.66</ele>
        <time>2021-06-23T10:29:44Z</time>
      </trkpt>
      <trkpt lat="48.09686" lon="7.23199">
        <ele>556.56</ele>
        <time>2021-06-23T10:29:46Z</time>
      </trkpt>
      <trkpt lat="48.09681" lon="7.23191">
        <ele>558.33</ele>
        <time>2021-06-23T10:29:47Z</time>
      </trkpt>
      <trkpt lat="48.09645" lon="7.23172">
        <ele>558.19</ele>
        <time>2021-06-23T10:29:49Z</time>
      </trkpt>
      <trkpt lat="48.09629" lon="7.2317">
        <ele>556.14</ele>
        <time>2021-06-23T10:29:51Z</time>
      </trkpt>
      <trkpt lat="48.09588" lon="7.2318">
        <ele>547.72</ele>
        <time>2021-06-23T10:29:53Z</time>
      </trkpt>
      <trkpt lat="48.09574" lon="7.2318">
        <ele>548.02</ele>
        <time>2021-06-23T10:29:54Z</time>
      </trkpt>
      <trkpt lat="48.09564" lon="7.23172">
        <ele>551.83</ele>
        <time>2021-06-23T10:29:56Z</time>
      </trkpt>
      <trkpt lat="48.09551" lon="7.23154">
        <ele>561.22</ele>
        <time>2021-06-23T10:29:58Z</time>
      </trkpt>
      <trkpt lat="48.09539" lon="7.23148">
        <ele>562.37</ele>
        <time>2021-06-23T10:29:59Z</time>
      </trkpt>
      <trkpt lat="48.09515" lon="7.23147">
        <ele>557.98</ele>
        <time>2021-06-23T10:30:01Z</time>
      </trkpt>
      <trkpt lat="48.09498" lon="7.23141">
        <ele>555.57</ele>
        <time>2021-06-23T10:30:03Z</time>
      </trkpt>
      <trkpt lat="48.09483" lon="7.2313">
        <ele>556.47</ele>
        <time>2021-06-23T10:30:05Z</time>
      </trkpt>
      <trkpt lat="48.09474" lon="7.23117">
        <ele>559.15</ele>
        <time>2021-06-23T10:30:06Z</time>
      </trkpt>
      <trkpt lat="48.09461" lon="7.23106">
        <ele>562.09</ele>
        <time>2021-06-23T10:30:08Z</time>
      </trkpt>
      <trkpt lat="48.09429" lon="7.23096">
        <ele>564</ele>
        <time>2021-06-23T10:30:10Z</time>
      </trkpt>
      <trkpt lat="48.09395" lon="7.23095">
        <ele>562.2</ele>
        <time>2021-06-23T10:30:11Z</time>
      </trkpt>
      <trkpt lat="48.09385" lon="7.23092">
        <ele>561.53</ele>
        <time>2021-06-23T10:30:13Z</time>
      </trkpt>
      <trkpt lat="48.09377" lon="7.23086">
        <ele>561.25</ele>
        <time>2021-06-23T10:30:15Z</time>
      </trkpt>
      <trkpt lat="48.09367" lon="7.23062">
        <ele>563.87</ele>
        <time>2021-06-23T10:30:17Z</time>
      </trkpt>
      <trkpt lat="48.09363" lon="7.23034">
        <ele>568.86</ele>
        <time>2021-06-23T10:30:18Z</time>
      </trkpt>
      <trkpt lat="48.09359" lon="7.22988">
        <ele>570.21</ele>
        <time>2021-06-23T10:30:20Z</time>
      </trkpt>
      <trkpt lat="48.09358" lon="7.22962">
        <ele>569.11</ele>
        <time>2021-06-23T10:30:22Z</time>
      </trkpt>
      <trkpt lat="48.09363" lon="7.22925">
        <ele>567.11</ele>
        <time>2021-06-23T10:30:23Z</time>
      </trkpt>
      <trkpt lat="48.09372" lon="7.22901">
        <ele>568.08</ele>
        <time>2021-06-23T10:30:25Z</time>
      </trkpt>
      <trkpt lat="48.09386" lon="7.22871">
        <ele>569.34</ele>
        <time>2021-06-23T10:30:27Z</time>
      </trkpt>
      <trkpt lat="48.09386" lon="7.22871">
        <ele>569.34</ele>
        <time>2021-06-23T10:30:27Z</time>
      </trkpt>
      <trkpt lat="48.09402" lon="7.22849">
        <ele>569.29</ele>
        <time>2021-06-23T10:30:28Z</time>
      </trkpt>
      <trkpt lat="48.09407" lon="7.22845">
        <ele>569.78</ele>
        <time>2021-06-23T10:30:30Z</time>
      </trkpt>
      <trkpt lat="48.09417" lon="7.22848">
        <ele>572.52</ele>
        <time>2021-06-23T10:30:32Z</time>
      </trkpt>
      <trkpt lat="48.09423" lon="7.2286">
        <ele>576.58</ele>
        <time>2021-06-23T10:30:33Z</time>
      </trkpt>
      <trkpt lat="48.09423" lon="7.22871">
        <ele>578.77</ele>
        <time>2021-06-23T10:30:35Z</time>
      </trkpt>
      <trkpt lat="48.0942" lon="7.2288">
        <ele>580.02</ele>
        <time>2021-06-23T10:30:37Z</time>
      </trkpt>
      <trkpt lat="48.09416" lon="7.22886">
        <ele>580.24</ele>
        <time>2021-06-23T10:30:38Z</time>
      </trkpt>
      <trkpt lat="48.09398" lon="7.22903">
        <ele>578.05</ele>
        <time>2021-06-23T10:30:40Z</time>
      </trkpt>
      <trkpt lat="48.09391" lon="7.22915">
        <ele>577.38</ele>
        <time>2021-06-23T10:30:41Z</time>
      </trkpt>
      <trkpt lat="48.09387" lon="7.22927">
        <ele>577.23</ele>
        <time>2021-06-23T10:30:43Z</time>
      </trkpt>
      <trkpt lat="48.09385" lon="7.22943">
        <ele>578.14</ele>
        <time>2021-06-23T10:30:45Z</time>
      </trkpt>
      <trkpt lat="48.09386" lon="7.22961">
        <ele>579.63</ele>
        <time>2021-06-23T10:30:46Z</time>
      </trkpt>
      <trkpt lat="48.09402" lon="7.23017">
        <ele>581.99</ele>
        <time>2021-06-23T10:30:48Z</time>
      </trkpt>
      <trkpt lat="48.09412" lon="7.23034">
        <ele>581.64</ele>
        <time>2021-06-23T10:30:50Z</time>
      </trkpt>
      <trkpt lat="48.09425" lon="7.23045">
        <ele>582.09</ele>
        <time>2021-06-23T10:30:51Z</time>
      </trkpt>
      <trkpt lat="48.09437" lon="7.2305">
        <ele>583.14</ele>
        <time>2021-06-23T10:30:53Z</time>
      </trkpt>
      <trkpt lat="48.0946" lon="7.23054">
        <ele>586.86</ele>
        <time>2021-06-23T10:30:54Z</time>
      </trkpt>
      <trkpt lat="48.09588" lon="7.23068">
        <ele>602.86</ele>
        <time>2021-06-23T10:30:56Z</time>
      </trkpt>
      <trkpt lat="48.09601" lon="7.23068">
        <ele>605.24</ele>
        <time>2021-06-23T10:30:58Z</time>
      </trkpt>
      <trkpt lat="48.09669" lon="7.23043">
        <ele>616.24</ele>
        <time>2021-06-23T10:30:59Z</time>
      </trkpt>
      <trkpt lat="48.09684" lon="7.23043">
        <ele>616.74</ele>
        <time>2021-06-23T10:31:01Z</time>
      </trkpt>
      <trkpt lat="48.09726" lon="7.23058">
        <ele>614.54</ele>
        <time>2021-06-23T10:31:03Z</time>
      </trkpt>
      <trkpt lat="48.09854" lon="7.23125">
        <ele>626</ele>
        <time>2021-06-23T10:31:04Z</time>
      </trkpt>
      <trkpt lat="48.09862" lon="7.23131">
        <ele>626.14</ele>
        <time>2021-06-23T10:31:06Z</time>
      </trkpt>
      <trkpt lat="48.0987" lon="7.23142">
        <ele>626.31</ele>
        <time>2021-06-23T10:31:07Z</time>
      </trkpt>
      <trkpt lat="48.09893" lon="7.23185">
        <ele>631.31</ele>
        <time>2021-06-23T10:31:09Z</time>
      </trkpt>
      <trkpt lat="48.09897" lon="7.23203">
        <ele>631.33</ele>
        <time>2021-06-23T10:31:11Z</time>
      </trkpt>
      <trkpt lat="48.09899" lon="7.23232">
        <ele>628.7</ele>
        <time>2021-06-23T10:31:12Z</time>
      </trkpt>
      <trkpt lat="48.09896" lon="7.2325">
        <ele>627.11</ele>
        <time>2021-06-23T10:31:14Z</time>
      </trkpt>
      <trkpt lat="48.09891" lon="7.23266">
        <ele>626.11</ele>
        <time>2021-06-23T10:31:16Z</time>
      </trkpt>
      <trkpt lat="48.09849" lon="7.23339">
        <ele>622.86</ele>
        <time>2021-06-23T10:31:17Z</time>
      </trkpt>
      <trkpt lat="48.09832" lon="7.23366">
        <ele>622.21</ele>
        <time>2021-06-23T10:31:19Z</time>
      </trkpt>
      <trkpt lat="48.09821" lon="7.23389">
        <ele>622.77</ele>
        <time>2021-06-23T10:31:20Z</time>
      </trkpt>
      <trkpt lat="48.09818" lon="7.23397">
        <ele>623.2</ele>
        <time>2021-06-23T10:31:22Z</time>
      </trkpt>
      <trkpt lat="48.09817" lon="7.23412">
        <ele>624.46</ele>
        <time>2021-06-23T10:31:24Z</time>
      </trkpt>
      <trkpt lat="48.09818" lon="7.2343">
        <ele>625.5</ele>
        <time>2021-06-23T10:31:25Z</time>
      </trkpt>
      <trkpt lat="48.0982" lon="7.23438">
        <ele>626.02</ele>
        <time>2021-06-23T10:31:27Z</time>
      </trkpt>
      <trkpt lat="48.09828" lon="7.23452">
        <ele>626.42</ele>
        <time>2021-06-23T10:31:29Z</time>
      </trkpt>
      <trkpt lat="48.09839" lon="7.23463">
        <ele>626.56</ele>
        <time>2021-06-23T10:31:30Z</time>
      </trkpt>
      <trkpt lat="48.09845" lon="7.23466">
        <ele>626.85</ele>
        <time>2021-06-23T10:31:32Z</time>
      </trkpt>
      <trkpt lat="48.09856" lon="7.23468">
        <ele>627.74</ele>
        <time>2021-06-23T10:31:33Z</time>
      </trkpt>
      <trkpt lat="48.09869" lon="7.23462">
        <ele>630.14</ele>
        <time>2021-06-23T10:31:35Z</time>
      </trkpt>
      <trkpt lat="48.09877" lon="7.23455">
        <ele>632.12</ele>
        <time>2021-06-23T10:31:37Z</time>
      </trkpt>
      <trkpt lat="48.09881" lon="7.23446">
        <ele>633.58</ele>
        <time>2021-06-23T10:31:38Z</time>
      </trkpt>
      <trkpt lat="48.09885" lon="7.23425">
        <ele>634.37</ele>
        <time>2021-06-23T10:31:40Z</time>
      </trkpt>
      <trkpt lat="48.09892" lon="7.23352">
        <ele>631.43</ele>
        <time>2021-06-23T10:31:42Z</time>
      </trkpt>
      <trkpt lat="48.09896" lon="7.2334">
        <ele>632.2</ele>
        <time>2021-06-23T10:31:43Z</time>
      </trkpt>
      <trkpt lat="48.09905" lon="7.23333">
        <ele>634.04</ele>
        <time>2021-06-23T10:31:45Z</time>
      </trkpt>
      <trkpt lat="48.09916" lon="7.23339">
        <ele>637.13</ele>
        <time>2021-06-23T10:31:46Z</time>
      </trkpt>
      <trkpt lat="48.0992" lon="7.23348">
        <ele>639.09</ele>
        <time>2021-06-23T10:31:48Z</time>
      </trkpt>
      <trkpt lat="48.0992" lon="7.23354">
        <ele>639.71</ele>
        <time>2021-06-23T10:31:50Z</time>
      </trkpt>
      <trkpt lat="48.09917" lon="7.23399">
        <ele>641.13</ele>
        <time>2021-06-23T10:31:51Z</time>
      </trkpt>
      <trkpt lat="48.09919" lon="7.23413">
        <ele>641.55</ele>
        <time>2021-06-23T10:31:53Z</time>
      </trkpt>
      <trkpt lat="48.09919" lon="7.23413">
        <ele>641.55</ele>
        <time>2021-06-23T10:31:53Z</time>
      </trkpt>
      <trkpt lat="48.0992" lon="7.23421">
        <ele>641.97</ele>
        <time>2021-06-23T10:31:55Z</time>
      </trkpt>
      <trkpt lat="48.09927" lon="7.23446">
        <ele>645.25</ele>
        <time>2021-06-23T10:31:57Z</time>
      </trkpt>
      <trkpt lat="48.09931" lon="7.23451">
        <ele>646.8</ele>
        <time>2021-06-23T10:32:00Z</time>
      </trkpt>
      <trkpt lat="48.09936" lon="7.23453">
        <ele>648.55</ele>
        <time>2021-06-23T10:32:02Z</time>
      </trkpt>
      <trkpt lat="48.09942" lon="7.23449">
        <ele>650.09</ele>
        <time>2021-06-23T10:32:04Z</time>
      </trkpt>
      <trkpt lat="48.09943" lon="7.23438">
        <ele>650.21</ele>
        <time>2021-06-23T10:32:06Z</time>
      </trkpt>
      <trkpt lat="48.09932" lon="7.23403">
        <ele>645</ele>
        <time>2021-06-23T10:32:08Z</time>
      </trkpt>
      <trkpt lat="48.09931" lon="7.23391">
        <ele>644.54</ele>
        <time>2021-06-23T10:32:10Z</time>
      </trkpt>
      <trkpt lat="48.09932" lon="7.23375">
        <ele>644.36</ele>
        <time>2021-06-23T10:32:12Z</time>
      </trkpt>
      <trkpt lat="48.09937" lon="7.23358">
        <ele>645.46</ele>
        <time>2021-06-23T10:32:15Z</time>
      </trkpt>
      <trkpt lat="48.09974" lon="7.2328">
        <ele>654.6</ele>
        <time>2021-06-23T10:32:17Z</time>
      </trkpt>
      <trkpt lat="48.09983" lon="7.23243">
        <ele>653.95</ele>
        <time>2021-06-23T10:32:19Z</time>
      </trkpt>
      <trkpt lat="48.09984" lon="7.23175">
        <ele>655.07</ele>
        <time>2021-06-23T10:32:21Z</time>
      </trkpt>
      <trkpt lat="48.0998" lon="7.23141">
        <ele>657.16</ele>
        <time>2021-06-23T10:32:23Z</time>
      </trkpt>
      <trkpt lat="48.09964" lon="7.23073">
        <ele>660.66</ele>
        <time>2021-06-23T10:32:25Z</time>
      </trkpt>
      <trkpt lat="48.09953" lon="7.23043">
        <ele>661.73</ele>
        <time>2021-06-23T10:32:28Z</time>
      </trkpt>
      <trkpt lat="48.0994" lon="7.23028">
        <ele>661.72</ele>
        <time>2021-06-23T10:32:30Z</time>
      </trkpt>
      <trkpt lat="48.09927" lon="7.23019">
        <ele>661.36</ele>
        <time>2021-06-23T10:32:32Z</time>
      </trkpt>
      <trkpt lat="48.09856" lon="7.22984">
        <ele>660.57</ele>
        <time>2021-06-23T10:32:34Z</time>
      </trkpt>
      <trkpt lat="48.09811" lon="7.22949">
        <ele>671.69</ele>
        <time>2021-06-23T10:32:36Z</time>
      </trkpt>
      <trkpt lat="48.09753" lon="7.22892">
        <ele>677.43</ele>
        <time>2021-06-23T10:32:38Z</time>
      </trkpt>
      <trkpt lat="48.09743" lon="7.2288">
        <ele>675.68</ele>
        <time>2021-06-23T10:32:41Z</time>
      </trkpt>
      <trkpt lat="48.09737" lon="7.22863">
        <ele>674.7</ele>
        <time>2021-06-23T10:32:43Z</time>
      </trkpt>
      <trkpt lat="48.09734" lon="7.22842">
        <ele>675.67</ele>
        <time>2021-06-23T10:32:45Z</time>
      </trkpt>
      <trkpt lat="48.09737" lon="7.22816">
        <ele>677.65</ele>
        <time>2021-06-23T10:32:47Z</time>
      </trkpt>
      <trkpt lat="48.09761" lon="7.22757">
        <ele>679.65</ele>
        <time>2021-06-23T10:32:49Z</time>
      </trkpt>
      <trkpt lat="48.09786" lon="7.22688">
        <ele>676.5</ele>
        <time>2021-06-23T10:32:51Z</time>
      </trkpt>
      <trkpt lat="48.09796" lon="7.22653">
        <ele>677.12</ele>
        <time>2021-06-23T10:32:54Z</time>
      </trkpt>
      <trkpt lat="48.09801" lon="7.22621">
        <ele>677.61</ele>
        <time>2021-06-23T10:32:56Z</time>
      </trkpt>
      <trkpt lat="48.09805" lon="7.2257">
        <ele>678.93</ele>
        <time>2021-06-23T10:32:58Z</time>
      </trkpt>
      <trkpt lat="48.09808" lon="7.22495">
        <ele>678.54</ele>
        <time>2021-06-23T10:33:00Z</time>
      </trkpt>
      <trkpt lat="48.09811" lon="7.22455">
        <ele>678.61</ele>
        <time>2021-06-23T10:33:02Z</time>
      </trkpt>
      <trkpt lat="48.09816" lon="7.22426">
        <ele>679.9</ele>
        <time>2021-06-23T10:33:04Z</time>
      </trkpt>
      <trkpt lat="48.09836" lon="7.22343">
        <ele>681.32</ele>
        <time>2021-06-23T10:33:07Z</time>
      </trkpt>
      <trkpt lat="48.09845" lon="7.22296">
        <ele>683.57</ele>
        <time>2021-06-23T10:33:09Z</time>
      </trkpt>
      <trkpt lat="48.09843" lon="7.22265">
        <ele>683.28</ele>
        <time>2021-06-23T10:33:11Z</time>
      </trkpt>
      <trkpt lat="48.09831" lon="7.22209">
        <ele>681.58</ele>
        <time>2021-06-23T10:33:13Z</time>
      </trkpt>
      <trkpt lat="48.09822" lon="7.22148">
        <ele>683.18</ele>
        <time>2021-06-23T10:33:15Z</time>
      </trkpt>
      <trkpt lat="48.0982" lon="7.2212">
        <ele>685.53</ele>
        <time>2021-06-23T10:33:17Z</time>
      </trkpt>
      <trkpt lat="48.09818" lon="7.22052">
        <ele>687.45</ele>
        <time>2021-06-23T10:33:19Z</time>
      </trkpt>
      <trkpt lat="48.09812" lon="7.2198">
        <ele>688.51</ele>
        <time>2021-06-23T10:33:22Z</time>
      </trkpt>
      <trkpt lat="48.09807" lon="7.2195">
        <ele>688.17</ele>
        <time>2021-06-23T10:33:24Z</time>
      </trkpt>
      <trkpt lat="48.09797" lon="7.2192">
        <ele>687.43</ele>
        <time>2021-06-23T10:33:26Z</time>
      </trkpt>
      <trkpt lat="48.09782" lon="7.21882">
        <ele>687.45</ele>
        <time>2021-06-23T10:33:28Z</time>
      </trkpt>
      <trkpt lat="48.09771" lon="7.21846">
        <ele>687.73</ele>
        <time>2021-06-23T10:33:30Z</time>
      </trkpt>
      <trkpt lat="48.09764" lon="7.21814">
        <ele>688.83</ele>
        <time>2021-06-23T10:33:32Z</time>
      </trkpt>
      <trkpt lat="48.09762" lon="7.21793">
        <ele>689.45</ele>
        <time>2021-06-23T10:33:35Z</time>
      </trkpt>
      <trkpt lat="48.09761" lon="7.21756">
        <ele>691.63</ele>
        <time>2021-06-23T10:33:37Z</time>
      </trkpt>
      <trkpt lat="48.09766" lon="7.21715">
        <ele>694.64</ele>
        <time>2021-06-23T10:33:39Z</time>
      </trkpt>
      <trkpt lat="48.09775" lon="7.2168">
        <ele>695.39</ele>
        <time>2021-06-23T10:33:41Z</time>
      </trkpt>
      <trkpt lat="48.098" lon="7.21599">
        <ele>701.47</ele>
        <time>2021-06-23T10:33:43Z</time>
      </trkpt>
      <trkpt lat="48.09806" lon="7.21584">
        <ele>704.81</ele>
        <time>2021-06-23T10:33:45Z</time>
      </trkpt>
      <trkpt lat="48.09812" lon="7.21574">
        <ele>707.56</ele>
        <time>2021-06-23T10:33:48Z</time>
      </trkpt>
      <trkpt lat="48.09822" lon="7.21566">
        <ele>708.74</ele>
        <time>2021-06-23T10:33:50Z</time>
      </trkpt>
      <trkpt lat="48.09832" lon="7.21565">
        <ele>707.86</ele>
        <time>2021-06-23T10:33:52Z</time>
      </trkpt>
      <trkpt lat="48.09845" lon="7.21571">
        <ele>705.85</ele>
        <time>2021-06-23T10:33:54Z</time>
      </trkpt>
      <trkpt lat="48.09899" lon="7.2162">
        <ele>707.12</ele>
        <time>2021-06-23T10:33:56Z</time>
      </trkpt>
      <trkpt lat="48.09915" lon="7.21631">
        <ele>708.81</ele>
        <time>2021-06-23T10:33:58Z</time>
      </trkpt>
      <trkpt lat="48.09927" lon="7.21635">
        <ele>709.47</ele>
        <time>2021-06-23T10:34:01Z</time>
      </trkpt>
      <trkpt lat="48.09937" lon="7.21635">
        <ele>709.92</ele>
        <time>2021-06-23T10:34:03Z</time>
      </trkpt>
      <trkpt lat="48.09949" lon="7.21632">
        <ele>710.69</ele>
        <time>2021-06-23T10:34:05Z</time>
      </trkpt>
      <trkpt lat="48.0998" lon="7.21614">
        <ele>712.55</ele>
        <time>2021-06-23T10:34:07Z</time>
      </trkpt>
      <trkpt lat="48.1001" lon="7.21585">
        <ele>712.22</ele>
        <time>2021-06-23T10:34:09Z</time>
      </trkpt>
      <trkpt lat="48.10021" lon="7.2157">
        <ele>711.5</ele>
        <time>2021-06-23T10:34:11Z</time>
      </trkpt>
      <trkpt lat="48.10025" lon="7.21561">
        <ele>711.23</ele>
        <time>2021-06-23T10:34:14Z</time>
      </trkpt>
      <trkpt lat="48.10026" lon="7.2155">
        <ele>711.11</ele>
        <time>2021-06-23T10:34:16Z</time>
      </trkpt>
      <trkpt lat="48.10026" lon="7.2155">
        <ele>711.11</ele>
        <time>2021-06-23T10:34:16Z</time>
      </trkpt>
      <trkpt lat="48.10028" lon="7.2154">
        <ele>710.99</ele>
        <time>2021-06-23T10:34:20Z</time>
      </trkpt>
      <trkpt lat="48.10025" lon="7.21517">
        <ele>711.57</ele>
        <time>2021-06-23T10:34:25Z</time>
      </trkpt>
      <trkpt lat="48.10019" lon="7.21503">
        <ele>712.24</ele>
        <time>2021-06-23T10:34:29Z</time>
      </trkpt>
      <trkpt lat="48.09986" lon="7.21433">
        <ele>715.35</ele>
        <time>2021-06-23T10:34:34Z</time>
      </trkpt>
      <trkpt lat="48.09976" lon="7.21396">
        <ele>717.62</ele>
        <time>2021-06-23T10:34:38Z</time>
      </trkpt>
      <trkpt lat="48.09948" lon="7.21199">
        <ele>728.07</ele>
        <time>2021-06-23T10:34:43Z</time>
      </trkpt>
      <trkpt lat="48.09921" lon="7.21079">
        <ele>736.91</ele>
        <time>2021-06-23T10:34:47Z</time>
      </trkpt>
      <trkpt lat="48.09912" lon="7.21047">
        <ele>739.36</ele>
        <time>2021-06-23T10:34:52Z</time>
      </trkpt>
      <trkpt lat="48.09881" lon="7.20983">
        <ele>740.54</ele>
        <time>2021-06-23T10:34:56Z</time>
      </trkpt>
      <trkpt lat="48.0987" lon="7.20957">
        <ele>739.83</ele>
        <time>2021-06-23T10:35:01Z</time>
      </trkpt>
      <trkpt lat="48.09863" lon="7.20931">
        <ele>739.29</ele>
        <time>2021-06-23T10:35:05Z</time>
      </trkpt>
      <trkpt lat="48.09845" lon="7.20774">
        <ele>739.32</ele>
        <time>2021-06-23T10:35:10Z</time>
      </trkpt>
      <trkpt lat="48.09841" lon="7.20666">
        <ele>741.53</ele>
        <time>2021-06-23T10:35:14Z</time>
      </trkpt>
      <trkpt lat="48.09835" lon="7.20578">
        <ele>744.88</ele>
        <time>2021-06-23T10:35:19Z</time>
      </trkpt>
      <trkpt lat="48.0983" lon="7.20532">
        <ele>746.32</ele>
        <time>2021-06-23T10:35:23Z</time>
      </trkpt>
      <trkpt lat="48.09827" lon="7.20519">
        <ele>746.85</ele>
        <time>2021-06-23T10:35:27Z</time>
      </trkpt>
      <trkpt lat="48.0982" lon="7.20507">
        <ele>747.53</ele>
        <time>2021-06-23T10:35:32Z</time>
      </trkpt>
      <trkpt lat="48.09806" lon="7.20489">
        <ele>748.58</ele>
        <time>2021-06-23T10:35:36Z</time>
      </trkpt>
      <trkpt lat="48.09796" lon="7.20483">
        <ele>748.53</ele>
        <time>2021-06-23T10:35:41Z</time>
      </trkpt>
      <trkpt lat="48.0967" lon="7.20443">
        <ele>750.78</ele>
        <time>2021-06-23T10:35:45Z</time>
      </trkpt>
      <trkpt lat="48.09582" lon="7.20425">
        <ele>751.64</ele>
        <time>2021-06-23T10:35:50Z</time>
      </trkpt>
      <trkpt lat="48.09542" lon="7.20401">
        <ele>753.41</ele>
        <time>2021-06-23T10:35:54Z</time>
      </trkpt>
      <trkpt lat="48.09532" lon="7.20403">
        <ele>754.59</ele>
        <time>2021-06-23T10:35:56Z</time>
      </trkpt>
      <trkpt lat="48.09519" lon="7.20397">
        <ele>756.05</ele>
        <time>2021-06-23T10:35:57Z</time>
      </trkpt>
      <trkpt lat="48.09472" lon="7.20366">
        <ele>763.92</ele>
        <time>2021-06-23T10:35:59Z</time>
      </trkpt>
      <trkpt lat="48.09461" lon="7.20363">
        <ele>765.89</ele>
        <time>2021-06-23T10:36:01Z</time>
      </trkpt>
      <trkpt lat="48.09457" lon="7.20367">
        <ele>766.52</ele>
        <time>2021-06-23T10:36:03Z</time>
      </trkpt>
      <trkpt lat="48.09452" lon="7.2038">
        <ele>767.01</ele>
        <time>2021-06-23T10:36:05Z</time>
      </trkpt>
      <trkpt lat="48.0944" lon="7.2043">
        <ele>765.78</ele>
        <time>2021-06-23T10:36:08Z</time>
      </trkpt>
      <trkpt lat="48.09436" lon="7.20436">
        <ele>765.88</ele>
        <time>2021-06-23T10:36:10Z</time>
      </trkpt>
      <trkpt lat="48.09429" lon="7.2044">
        <ele>766.71</ele>
        <time>2021-06-23T10:36:12Z</time>
      </trkpt>
      <trkpt lat="48.09419" lon="7.20437">
        <ele>768.42</ele>
        <time>2021-06-23T10:36:15Z</time>
      </trkpt>
      <trkpt lat="48.09324" lon="7.20388">
        <ele>779.09</ele>
        <time>2021-06-23T10:36:17Z</time>
      </trkpt>
      <trkpt lat="48.09272" lon="7.20344">
        <ele>782.28</ele>
        <time>2021-06-23T10:36:20Z</time>
      </trkpt>
      <trkpt lat="48.09234" lon="7.20309">
        <ele>784.76</ele>
        <time>2021-06-23T10:36:22Z</time>
      </trkpt>
      <trkpt lat="48.09224" lon="7.20297">
        <ele>785.61</ele>
        <time>2021-06-23T10:36:24Z</time>
      </trkpt>
      <trkpt lat="48.09211" lon="7.20277">
        <ele>785.87</ele>
        <time>2021-06-23T10:36:27Z</time>
      </trkpt>
      <trkpt lat="48.09182" lon="7.2021">
        <ele>788.02</ele>
        <time>2021-06-23T10:36:29Z</time>
      </trkpt>
      <trkpt lat="48.09174" lon="7.20189">
        <ele>788.55</ele>
        <time>2021-06-23T10:36:32Z</time>
      </trkpt>
      <trkpt lat="48.09163" lon="7.20144">
        <ele>788.48</ele>
        <time>2021-06-23T10:36:34Z</time>
      </trkpt>
      <trkpt lat="48.09157" lon="7.20105">
        <ele>787</ele>
        <time>2021-06-23T10:36:36Z</time>
      </trkpt>
      <trkpt lat="48.09156" lon="7.2008">
        <ele>786.91</ele>
        <time>2021-06-23T10:36:39Z</time>
      </trkpt>
      <trkpt lat="48.09156" lon="7.19955">
        <ele>786.47</ele>
        <time>2021-06-23T10:36:41Z</time>
      </trkpt>
      <trkpt lat="48.09152" lon="7.19927">
        <ele>786.39</ele>
        <time>2021-06-23T10:36:44Z</time>
      </trkpt>
      <trkpt lat="48.09132" lon="7.19853">
        <ele>786.47</ele>
        <time>2021-06-23T10:36:46Z</time>
      </trkpt>
      <trkpt lat="48.09111" lon="7.1979">
        <ele>787.48</ele>
        <time>2021-06-23T10:36:48Z</time>
      </trkpt>
      <trkpt lat="48.09103" lon="7.19748">
        <ele>787.6</ele>
        <time>2021-06-23T10:36:51Z</time>
      </trkpt>
      <trkpt lat="48.09098" lon="7.19712">
        <ele>788.79</ele>
        <time>2021-06-23T10:36:53Z</time>
      </trkpt>
      <trkpt lat="48.09089" lon="7.19667">
        <ele>792.33</ele>
        <time>2021-06-23T10:36:56Z</time>
      </trkpt>
      <trkpt lat="48.09079" lon="7.19639">
        <ele>794.33</ele>
        <time>2021-06-23T10:36:58Z</time>
      </trkpt>
      <trkpt lat="48.0907" lon="7.19622">
        <ele>796.18</ele>
        <time>2021-06-23T10:37:00Z</time>
      </trkpt>
      <trkpt lat="48.09062" lon="7.19598">
        <ele>797.66</ele>
        <time>2021-06-23T10:37:03Z</time>
      </trkpt>
      <trkpt lat="48.09038" lon="7.19493">
        <ele>798.27</ele>
        <time>2021-06-23T10:37:05Z</time>
      </trkpt>
      <trkpt lat="48.0903" lon="7.19466">
        <ele>801.19</ele>
        <time>2021-06-23T10:37:08Z</time>
      </trkpt>
      <trkpt lat="48.09017" lon="7.19447">
        <ele>805.01</ele>
        <time>2021-06-23T10:37:10Z</time>
      </trkpt>
      <trkpt lat="48.08997" lon="7.19427">
        <ele>811.34</ele>
        <time>2021-06-23T10:37:12Z</time>
      </trkpt>
      <trkpt lat="48.08997" lon="7.19427">
        <ele>811.34</ele>
        <time>2021-06-23T10:37:12Z</time>
      </trkpt>
      <trkpt lat="48.08962" lon="7.19399">
        <ele>818.68</ele>
        <time>2021-06-23T10:37:16Z</time>
      </trkpt>
      <trkpt lat="48.08893" lon="7.1937">
        <ele>820.97</ele>
        <time>2021-06-23T10:37:19Z</time>
      </trkpt>
      <trkpt lat="48.08884" lon="7.19368">
        <ele>822.76</ele>
        <time>2021-06-23T10:37:22Z</time>
      </trkpt>
      <trkpt lat="48.0887" lon="7.19368">
        <ele>824.93</ele>
        <time>2021-06-23T10:37:25Z</time>
      </trkpt>
      <trkpt lat="48.08857" lon="7.19376">
        <ele>824.28</ele>
        <time>2021-06-23T10:37:28Z</time>
      </trkpt>
      <trkpt lat="48.08792" lon="7.19468">
        <ele>828.59</ele>
        <time>2021-06-23T10:37:32Z</time>
      </trkpt>
      <trkpt lat="48.08754" lon="7.19514">
        <ele>830.61</ele>
        <time>2021-06-23T10:37:35Z</time>
      </trkpt>
      <trkpt lat="48.08738" lon="7.19529">
        <ele>832.82</ele>
        <time>2021-06-23T10:37:38Z</time>
      </trkpt>
      <trkpt lat="48.08717" lon="7.19544">
        <ele>835.63</ele>
        <time>2021-06-23T10:37:41Z</time>
      </trkpt>
      <trkpt lat="48.0863" lon="7.19595">
        <ele>838.1</ele>
        <time>2021-06-23T10:37:44Z</time>
      </trkpt>
      <trkpt lat="48.08571" lon="7.19614">
        <ele>840.16</ele>
        <time>2021-06-23T10:37:48Z</time>
      </trkpt>
      <trkpt lat="48.0851" lon="7.19618">
        <ele>846.77</ele>
        <time>2021-06-23T10:37:51Z</time>
      </trkpt>
      <trkpt lat="48.08428" lon="7.19607">
        <ele>846.24</ele>
        <time>2021-06-23T10:37:54Z</time>
      </trkpt>
      <trkpt lat="48.08407" lon="7.196">
        <ele>847.58</ele>
        <time>2021-06-23T10:37:57Z</time>
      </trkpt>
      <trkpt lat="48.08377" lon="7.19588">
        <ele>849.82</ele>
        <time>2021-06-23T10:38:01Z</time>
      </trkpt>
      <trkpt lat="48.08347" lon="7.19569">
        <ele>852.62</ele>
        <time>2021-06-23T10:38:04Z</time>
      </trkpt>
      <trkpt lat="48.08329" lon="7.19552">
        <ele>854.29</ele>
        <time>2021-06-23T10:38:07Z</time>
      </trkpt>
      <trkpt lat="48.08314" lon="7.19532">
        <ele>857.66</ele>
        <time>2021-06-23T10:38:10Z</time>
      </trkpt>
      <trkpt lat="48.08314" lon="7.19532">
        <ele>857.66</ele>
        <time>2021-06-23T10:38:10Z</time>
      </trkpt>
      <trkpt lat="48.08305" lon="7.19516">
        <ele>863.94</ele>
        <time>2021-06-23T10:38:13Z</time>
      </trkpt>
      <trkpt lat="48.08299" lon="7.195">
        <ele>866.77</ele>
        <time>2021-06-23T10:38:16Z</time>
      </trkpt>
      <trkpt lat="48.08286" lon="7.19443">
        <ele>868.09</ele>
        <time>2021-06-23T10:38:18Z</time>
      </trkpt>
      <trkpt lat="48.08282" lon="7.19419">
        <ele>867.41</ele>
        <time>2021-06-23T10:38:21Z</time>
      </trkpt>
      <trkpt lat="48.08269" lon="7.19295">
        <ele>869.38</ele>
        <time>2021-06-23T10:38:24Z</time>
      </trkpt>
      <trkpt lat="48.08272" lon="7.19212">
        <ele>872.04</ele>
        <time>2021-06-23T10:38:27Z</time>
      </trkpt>
      <trkpt lat="48.08279" lon="7.1917">
        <ele>875.46</ele>
        <time>2021-06-23T10:38:29Z</time>
      </trkpt>
      <trkpt lat="48.08287" lon="7.19143">
        <ele>877.6</ele>
        <time>2021-06-23T10:38:32Z</time>
      </trkpt>
      <trkpt lat="48.08311" lon="7.19093">
        <ele>881.89</ele>
        <time>2021-06-23T10:38:35Z</time>
      </trkpt>
      <trkpt lat="48.08332" lon="7.1906">
        <ele>882.46</ele>
        <time>2021-06-23T10:38:38Z</time>
      </trkpt>
      <trkpt lat="48.08402" lon="7.18982">
        <ele>888.18</ele>
        <time>2021-06-23T10:38:40Z</time>
      </trkpt>
      <trkpt lat="48.08414" lon="7.18964">
        <ele>889.46</ele>
        <time>2021-06-23T10:38:43Z</time>
      </trkpt>
      <trkpt lat="48.08424" lon="7.18942">
        <ele>889.35</ele>
        <time>2021-06-23T10:38:46Z</time>
      </trkpt>
      <trkpt lat="48.08428" lon="7.18924">
        <ele>888.74</ele>
        <time>2021-06-23T10:38:49Z</time>
      </trkpt>
      <trkpt lat="48.08438" lon="7.18867">
        <ele>887.85</ele>
        <time>2021-06-23T10:38:51Z</time>
      </trkpt>
      <trkpt lat="48.0845" lon="7.18809">
        <ele>889.37</ele>
        <time>2021-06-23T10:38:54Z</time>
      </trkpt>
      <trkpt lat="48.0846" lon="7.18735">
        <ele>889.68</ele>
        <time>2021-06-23T10:38:57Z</time>
      </trkpt>
      <trkpt lat="48.08468" lon="7.1863">
        <ele>896.74</ele>
        <time>2021-06-23T10:39:00Z</time>
      </trkpt>
      <trkpt lat="48.08477" lon="7.18599">
        <ele>899.56</ele>
        <time>2021-06-23T10:39:02Z</time>
      </trkpt>
      <trkpt lat="48.08491" lon="7.18564">
        <ele>899.35</ele>
        <time>2021-06-23T10:39:05Z</time>
      </trkpt>
      <trkpt lat="48.08493" lon="7.18553">
        <ele>898.92</ele>
        <time>2021-06-23T10:39:08Z</time>
      </trkpt>
      <trkpt lat="48.08496" lon="7.18514">
        <ele>897.74</ele>
        <time>2021-06-23T10:39:11Z</time>
      </trkpt>
      <trkpt lat="48.08495" lon="7.18467">
        <ele>896.41</ele>
        <time>2021-06-23T10:39:13Z</time>
      </trkpt>
      <trkpt lat="48.08483" lon="7.18378">
        <ele>892.91</ele>
        <time>2021-06-23T10:39:16Z</time>
      </trkpt>
      <trkpt lat="48.08483" lon="7.18378">
        <ele>892.91</ele>
        <time>2021-06-23T10:39:16Z</time>
      </trkpt>
      <trkpt lat="48.08468" lon="7.18306">
        <ele>889.02</ele>
        <time>2021-06-23T10:39:19Z</time>
      </trkpt>
      <trkpt lat="48.08447" lon="7.1822">
        <ele>891.08</ele>
        <time>2021-06-23T10:39:22Z</time>
      </trkpt>
      <trkpt lat="48.08432" lon="7.1815">
        <ele>891.3</ele>
        <time>2021-06-23T10:39:25Z</time>
      </trkpt>
      <trkpt lat="48.08414" lon="7.18029">
        <ele>892.59</ele>
        <time>2021-06-23T10:39:28Z</time>
      </trkpt>
      <trkpt lat="48.08409" lon="7.17979">
        <ele>893.1</ele>
        <time>2021-06-23T10:39:31Z</time>
      </trkpt>
      <trkpt lat="48.08398" lon="7.17915">
        <ele>893.92</ele>
        <time>2021-06-23T10:39:34Z</time>
      </trkpt>
      <trkpt lat="48.08386" lon="7.17857">
        <ele>892</ele>
        <time>2021-06-23T10:39:37Z</time>
      </trkpt>
      <trkpt lat="48.0838" lon="7.17834">
        <ele>889.21</ele>
        <time>2021-06-23T10:39:40Z</time>
      </trkpt>
      <trkpt lat="48.0837" lon="7.17813">
        <ele>888.95</ele>
        <time>2021-06-23T10:39:43Z</time>
      </trkpt>
      <trkpt lat="48.0836" lon="7.17794">
        <ele>889.39</ele>
        <time>2021-06-23T10:39:47Z</time>
      </trkpt>
      <trkpt lat="48.08342" lon="7.17771">
        <ele>891.27</ele>
        <time>2021-06-23T10:39:50Z</time>
      </trkpt>
      <trkpt lat="48.08296" lon="7.17717">
        <ele>897.95</ele>
        <time>2021-06-23T10:39:53Z</time>
      </trkpt>
      <trkpt lat="48.0826" lon="7.17662">
        <ele>898.54</ele>
        <time>2021-06-23T10:39:56Z</time>
      </trkpt>
      <trkpt lat="48.08247" lon="7.17638">
        <ele>898.96</ele>
        <time>2021-06-23T10:39:59Z</time>
      </trkpt>
      <trkpt lat="48.0824" lon="7.17612">
        <ele>901.16</ele>
        <time>2021-06-23T10:40:02Z</time>
      </trkpt>
      <trkpt lat="48.08232" lon="7.17504">
        <ele>903.46</ele>
        <time>2021-06-23T10:40:05Z</time>
      </trkpt>
      <trkpt lat="48.08208" lon="7.17374">
        <ele>911.46</ele>
        <time>2021-06-23T10:40:08Z</time>
      </trkpt>
      <trkpt lat="48.08195" lon="7.17293">
        <ele>912.33</ele>
        <time>2021-06-23T10:40:11Z</time>
      </trkpt>
      <trkpt lat="48.08186" lon="7.17267">
        <ele>913.49</ele>
        <time>2021-06-23T10:40:14Z</time>
      </trkpt>
      <trkpt lat="48.08179" lon="7.17254">
        <ele>914.64</ele>
        <time>2021-06-23T10:40:17Z</time>
      </trkpt>
      <trkpt lat="48.08169" lon="7.17243">
        <ele>916.74</ele>
        <time>2021-06-23T10:40:20Z</time>
      </trkpt>
      <trkpt lat="48.08159" lon="7.17235">
        <ele>919.13</ele>
        <time>2021-06-23T10:40:23Z</time>
      </trkpt>
      <trkpt lat="48.08143" lon="7.17214">
        <ele>921.81</ele>
        <time>2021-06-23T10:40:26Z</time>
      </trkpt>
      <trkpt lat="48.08133" lon="7.17195">
        <ele>921.3</ele>
        <time>2021-06-23T10:40:29Z</time>
      </trkpt>
      <trkpt lat="48.08128" lon="7.17178">
        <ele>920.94</ele>
        <time>2021-06-23T10:40:32Z</time>
      </trkpt>
      <trkpt lat="48.0812" lon="7.17161">
        <ele>920.96</ele>
        <time>2021-06-23T10:40:35Z</time>
      </trkpt>
      <trkpt lat="48.08083" lon="7.1711">
        <ele>925.08</ele>
        <time>2021-06-23T10:40:38Z</time>
      </trkpt>
      <trkpt lat="48.08073" lon="7.1709">
        <ele>926.21</ele>
        <time>2021-06-23T10:40:41Z</time>
      </trkpt>
      <trkpt lat="48.08054" lon="7.17034">
        <ele>929.97</ele>
        <time>2021-06-23T10:40:44Z</time>
      </trkpt>
      <trkpt lat="48.07965" lon="7.16795">
        <ele>938.04</ele>
        <time>2021-06-23T10:40:47Z</time>
      </trkpt>
      <trkpt lat="48.07957" lon="7.16757">
        <ele>941.37</ele>
        <time>2021-06-23T10:40:51Z</time>
      </trkpt>
      <trkpt lat="48.07953" lon="7.16714">
        <ele>942.05</ele>
        <time>2021-06-23T10:40:54Z</time>
      </trkpt>
      <trkpt lat="48.07953" lon="7.16714">
        <ele>942.05</ele>
        <time>2021-06-23T10:40:54Z</time>
      </trkpt>
      <trkpt lat="48.07952" lon="7.16663">
        <ele>941.24</ele>
        <time>2021-06-23T10:40:56Z</time>
      </trkpt>
      <trkpt lat="48.07954" lon="7.16591">
        <ele>947.52</ele>
        <time>2021-06-23T10:40:58Z</time>
      </trkpt>
      <trkpt lat="48.07956" lon="7.1657">
        <ele>949.1</ele>
        <time>2021-06-23T10:41:01Z</time>
      </trkpt>
      <trkpt lat="48.07973" lon="7.16468">
        <ele>956.18</ele>
        <time>2021-06-23T10:41:03Z</time>
      </trkpt>
      <trkpt lat="48.07982" lon="7.16432">
        <ele>957.47</ele>
        <time>2021-06-23T10:41:05Z</time>
      </trkpt>
      <trkpt lat="48.0799" lon="7.16417">
        <ele>958.1</ele>
        <time>2021-06-23T10:41:08Z</time>
      </trkpt>
      <trkpt lat="48.07994" lon="7.16413">
        <ele>958.18</ele>
        <time>2021-06-23T10:41:10Z</time>
      </trkpt>
      <trkpt lat="48.08005" lon="7.16408">
        <ele>957.83</ele>
        <time>2021-06-23T10:41:12Z</time>
      </trkpt>
      <trkpt lat="48.08045" lon="7.16412">
        <ele>955.06</ele>
        <time>2021-06-23T10:41:15Z</time>
      </trkpt>
      <trkpt lat="48.08107" lon="7.16403">
        <ele>956.96</ele>
        <time>2021-06-23T10:41:17Z</time>
      </trkpt>
      <trkpt lat="48.08132" lon="7.16396">
        <ele>956.84</ele>
        <time>2021-06-23T10:41:20Z</time>
      </trkpt>
      <trkpt lat="48.08145" lon="7.16391">
        <ele>956.27</ele>
        <time>2021-06-23T10:41:22Z</time>
      </trkpt>
      <trkpt lat="48.08155" lon="7.16383">
        <ele>955.86</ele>
        <time>2021-06-23T10:41:24Z</time>
      </trkpt>
      <trkpt lat="48.08179" lon="7.16358">
        <ele>956.38</ele>
        <time>2021-06-23T10:41:27Z</time>
      </trkpt>
      <trkpt lat="48.08207" lon="7.16314">
        <ele>959.05</ele>
        <time>2021-06-23T10:41:29Z</time>
      </trkpt>
      <trkpt lat="48.08216" lon="7.16292">
        <ele>959.84</ele>
        <time>2021-06-23T10:41:31Z</time>
      </trkpt>
      <trkpt lat="48.08219" lon="7.16276">
        <ele>960.27</ele>
        <time>2021-06-23T10:41:34Z</time>
      </trkpt>
      <trkpt lat="48.0822" lon="7.16261">
        <ele>960.72</ele>
        <time>2021-06-23T10:41:36Z</time>
      </trkpt>
      <trkpt lat="48.08219" lon="7.16238">
        <ele>961.54</ele>
        <time>2021-06-23T10:41:38Z</time>
      </trkpt>
      <trkpt lat="48.08214" lon="7.16212">
        <ele>962.57</ele>
        <time>2021-06-23T10:41:41Z</time>
      </trkpt>
      <trkpt lat="48.08207" lon="7.16193">
        <ele>962.96</ele>
        <time>2021-06-23T10:41:43Z</time>
      </trkpt>
      <trkpt lat="48.08182" lon="7.16137">
        <ele>959.82</ele>
        <time>2021-06-23T10:41:45Z</time>
      </trkpt>
      <trkpt lat="48.08147" lon="7.16035">
        <ele>961.09</ele>
        <time>2021-06-23T10:41:48Z</time>
      </trkpt>
      <trkpt lat="48.08137" lon="7.15998">
        <ele>962.45</ele>
        <time>2021-06-23T10:41:50Z</time>
      </trkpt>
      <trkpt lat="48.08123" lon="7.15937">
        <ele>960.83</ele>
        <time>2021-06-23T10:41:53Z</time>
      </trkpt>
      <trkpt lat="48.08118" lon="7.15923">
        <ele>959.89</ele>
        <time>2021-06-23T10:41:55Z</time>
      </trkpt>
      <trkpt lat="48.08053" lon="7.15802">
        <ele>959.31</ele>
        <time>2021-06-23T10:41:57Z</time>
      </trkpt>
      <trkpt lat="48.08037" lon="7.15768">
        <ele>960.48</ele>
        <time>2021-06-23T10:42:00Z</time>
      </trkpt>
      <trkpt lat="48.08006" lon="7.15693">
        <ele>962.58</ele>
        <time>2021-06-23T10:42:02Z</time>
      </trkpt>
      <trkpt lat="48.07964" lon="7.15614">
        <ele>963.23</ele>
        <time>2021-06-23T10:42:04Z</time>
      </trkpt>
      <trkpt lat="48.07959" lon="7.15598">
        <ele>964.65</ele>
        <time>2021-06-23T10:42:07Z</time>
      </trkpt>
      <trkpt lat="48.07958" lon="7.15567">
        <ele>966.73</ele>
        <time>2021-06-23T10:42:09Z</time>
      </trkpt>
      <trkpt lat="48.07968" lon="7.15531">
        <ele>968.92</ele>
        <time>2021-06-23T10:42:11Z</time>
      </trkpt>
      <trkpt lat="48.07981" lon="7.15504">
        <ele>972.2</ele>
        <time>2021-06-23T10:42:14Z</time>
      </trkpt>
      <trkpt lat="48.07988" lon="7.15491">
        <ele>973.94</ele>
        <time>2021-06-23T10:42:16Z</time>
      </trkpt>
      <trkpt lat="48.08004" lon="7.15477">
        <ele>975.95</ele>
        <time>2021-06-23T10:42:18Z</time>
      </trkpt>
      <trkpt lat="48.08019" lon="7.15472">
        <ele>975.67</ele>
        <time>2021-06-23T10:42:21Z</time>
      </trkpt>
      <trkpt lat="48.0807" lon="7.15464">
        <ele>968.96</ele>
        <time>2021-06-23T10:42:23Z</time>
      </trkpt>
      <trkpt lat="48.08119" lon="7.15451">
        <ele>969.96</ele>
        <time>2021-06-23T10:42:26Z</time>
      </trkpt>
      <trkpt lat="48.08169" lon="7.15441">
        <ele>965.62</ele>
        <time>2021-06-23T10:42:28Z</time>
      </trkpt>
      <trkpt lat="48.08196" lon="7.15433">
        <ele>965.6</ele>
        <time>2021-06-23T10:42:30Z</time>
      </trkpt>
      <trkpt lat="48.08244" lon="7.15413">
        <ele>962.82</ele>
        <time>2021-06-23T10:42:33Z</time>
      </trkpt>
      <trkpt lat="48.08278" lon="7.15389">
        <ele>958.97</ele>
        <time>2021-06-23T10:42:35Z</time>
      </trkpt>
      <trkpt lat="48.08291" lon="7.15372">
        <ele>958.19</ele>
        <time>2021-06-23T10:42:37Z</time>
      </trkpt>
      <trkpt lat="48.08295" lon="7.15361">
        <ele>958.11</ele>
        <time>2021-06-23T10:42:40Z</time>
      </trkpt>
      <trkpt lat="48.08297" lon="7.1535">
        <ele>958.16</ele>
        <time>2021-06-23T10:42:42Z</time>
      </trkpt>
      <trkpt lat="48.08297" lon="7.15339">
        <ele>958.5</ele>
        <time>2021-06-23T10:42:44Z</time>
      </trkpt>
      <trkpt lat="48.08291" lon="7.15319">
        <ele>959.08</ele>
        <time>2021-06-23T10:42:47Z</time>
      </trkpt>
      <trkpt lat="48.08239" lon="7.15223">
        <ele>968.51</ele>
        <time>2021-06-23T10:42:49Z</time>
      </trkpt>
      <trkpt lat="48.08231" lon="7.15198">
        <ele>970.59</ele>
        <time>2021-06-23T10:42:51Z</time>
      </trkpt>
      <trkpt lat="48.08229" lon="7.15184">
        <ele>971.17</ele>
        <time>2021-06-23T10:42:54Z</time>
      </trkpt>
      <trkpt lat="48.0823" lon="7.15149">
        <ele>971.5</ele>
        <time>2021-06-23T10:42:56Z</time>
      </trkpt>
      <trkpt lat="48.08236" lon="7.1511">
        <ele>972.51</ele>
        <time>2021-06-23T10:42:59Z</time>
      </trkpt>
      <trkpt lat="48.08241" lon="7.15094">
        <ele>973.12</ele>
        <time>2021-06-23T10:43:01Z</time>
      </trkpt>
      <trkpt lat="48.08252" lon="7.15079">
        <ele>973.87</ele>
        <time>2021-06-23T10:43:03Z</time>
      </trkpt>
      <trkpt lat="48.08263" lon="7.15072">
        <ele>972.59</ele>
        <time>2021-06-23T10:43:06Z</time>
      </trkpt>
      <trkpt lat="48.08359" lon="7.15034">
        <ele>956.99</ele>
        <time>2021-06-23T10:43:08Z</time>
      </trkpt>
      <trkpt lat="48.08395" lon="7.15015">
        <ele>949.99</ele>
        <time>2021-06-23T10:43:10Z</time>
      </trkpt>
      <trkpt lat="48.08395" lon="7.15015">
        <ele>949.99</ele>
        <time>2021-06-23T10:43:10Z</time>
      </trkpt>
      <trkpt lat="48.08405" lon="7.15008">
        <ele>949.19</ele>
        <time>2021-06-23T10:43:13Z</time>
      </trkpt>
      <trkpt lat="48.08414" lon="7.14995">
        <ele>948.79</ele>
        <time>2021-06-23T10:43:16Z</time>
      </trkpt>
      <trkpt lat="48.08418" lon="7.14979">
        <ele>949.37</ele>
        <time>2021-06-23T10:43:19Z</time>
      </trkpt>
      <trkpt lat="48.08417" lon="7.14959">
        <ele>950.45</ele>
        <time>2021-06-23T10:43:22Z</time>
      </trkpt>
      <trkpt lat="48.08413" lon="7.14946">
        <ele>951.38</ele>
        <time>2021-06-23T10:43:25Z</time>
      </trkpt>
      <trkpt lat="48.08399" lon="7.14924">
        <ele>952.37</ele>
        <time>2021-06-23T10:43:27Z</time>
      </trkpt>
      <trkpt lat="48.0832" lon="7.14834">
        <ele>963.04</ele>
        <time>2021-06-23T10:43:30Z</time>
      </trkpt>
      <trkpt lat="48.08298" lon="7.14815">
        <ele>964.62</ele>
        <time>2021-06-23T10:43:33Z</time>
      </trkpt>
      <trkpt lat="48.08225" lon="7.14762">
        <ele>967.3</ele>
        <time>2021-06-23T10:43:36Z</time>
      </trkpt>
      <trkpt lat="48.08199" lon="7.14747">
        <ele>968.1</ele>
        <time>2021-06-23T10:43:39Z</time>
      </trkpt>
      <trkpt lat="48.0815" lon="7.14726">
        <ele>971.81</ele>
        <time>2021-06-23T10:43:42Z</time>
      </trkpt>
      <trkpt lat="48.08128" lon="7.14712">
        <ele>973.25</ele>
        <time>2021-06-23T10:43:44Z</time>
      </trkpt>
      <trkpt lat="48.08101" lon="7.14689">
        <ele>975.34</ele>
        <time>2021-06-23T10:43:47Z</time>
      </trkpt>
      <trkpt lat="48.07996" lon="7.14564">
        <ele>979.44</ele>
        <time>2021-06-23T10:43:50Z</time>
      </trkpt>
      <trkpt lat="48.07981" lon="7.14538">
        <ele>980.25</ele>
        <time>2021-06-23T10:43:53Z</time>
      </trkpt>
      <trkpt lat="48.07954" lon="7.14476">
        <ele>981.17</ele>
        <time>2021-06-23T10:43:56Z</time>
      </trkpt>
      <trkpt lat="48.07923" lon="7.14397">
        <ele>977.43</ele>
        <time>2021-06-23T10:43:59Z</time>
      </trkpt>
      <trkpt lat="48.0792" lon="7.14382">
        <ele>977.36</ele>
        <time>2021-06-23T10:44:02Z</time>
      </trkpt>
      <trkpt lat="48.0792" lon="7.1437">
        <ele>978.39</ele>
        <time>2021-06-23T10:44:04Z</time>
      </trkpt>
      <trkpt lat="48.0792" lon="7.1437">
        <ele>978.39</ele>
        <time>2021-06-23T10:44:04Z</time>
      </trkpt>
      <trkpt lat="48.07923" lon="7.14353">
        <ele>979.05</ele>
        <time>2021-06-23T10:44:06Z</time>
      </trkpt>
      <trkpt lat="48.07928" lon="7.14339">
        <ele>980.84</ele>
        <time>2021-06-23T10:44:08Z</time>
      </trkpt>
      <trkpt lat="48.0794" lon="7.14316">
        <ele>984.92</ele>
        <time>2021-06-23T10:44:10Z</time>
      </trkpt>
      <trkpt lat="48.07953" lon="7.14303">
        <ele>986.84</ele>
        <time>2021-06-23T10:44:12Z</time>
      </trkpt>
      <trkpt lat="48.08016" lon="7.14276">
        <ele>987.1</ele>
        <time>2021-06-23T10:44:14Z</time>
      </trkpt>
      <trkpt lat="48.08028" lon="7.14268">
        <ele>987.31</ele>
        <time>2021-06-23T10:44:16Z</time>
      </trkpt>
      <trkpt lat="48.08046" lon="7.14248">
        <ele>988.31</ele>
        <time>2021-06-23T10:44:17Z</time>
      </trkpt>
      <trkpt lat="48.08052" lon="7.14235">
        <ele>989.13</ele>
        <time>2021-06-23T10:44:19Z</time>
      </trkpt>
      <trkpt lat="48.08057" lon="7.1422">
        <ele>990.21</ele>
        <time>2021-06-23T10:44:21Z</time>
      </trkpt>
      <trkpt lat="48.08073" lon="7.14136">
        <ele>994.17</ele>
        <time>2021-06-23T10:44:23Z</time>
      </trkpt>
      <trkpt lat="48.08081" lon="7.14107">
        <ele>993.67</ele>
        <time>2021-06-23T10:44:25Z</time>
      </trkpt>
      <trkpt lat="48.08089" lon="7.14084">
        <ele>995.2</ele>
        <time>2021-06-23T10:44:27Z</time>
      </trkpt>
      <trkpt lat="48.08101" lon="7.14064">
        <ele>996.4</ele>
        <time>2021-06-23T10:44:29Z</time>
      </trkpt>
      <trkpt lat="48.08117" lon="7.14043">
        <ele>997.67</ele>
        <time>2021-06-23T10:44:30Z</time>
      </trkpt>
      <trkpt lat="48.08138" lon="7.14022">
        <ele>998.1</ele>
        <time>2021-06-23T10:44:32Z</time>
      </trkpt>
      <trkpt lat="48.08157" lon="7.14008">
        <ele>997.88</ele>
        <time>2021-06-23T10:44:34Z</time>
      </trkpt>
      <trkpt lat="48.08171" lon="7.14001">
        <ele>997.53</ele>
        <time>2021-06-23T10:44:36Z</time>
      </trkpt>
      <trkpt lat="48.08222" lon="7.13988">
        <ele>998.21</ele>
        <time>2021-06-23T10:44:38Z</time>
      </trkpt>
      <trkpt lat="48.08234" lon="7.13987">
        <ele>997.77</ele>
        <time>2021-06-23T10:44:40Z</time>
      </trkpt>
      <trkpt lat="48.08261" lon="7.1399">
        <ele>995.44</ele>
        <time>2021-06-23T10:44:42Z</time>
      </trkpt>
      <trkpt lat="48.08306" lon="7.14002">
        <ele>991.53</ele>
        <time>2021-06-23T10:44:43Z</time>
      </trkpt>
      <trkpt lat="48.08323" lon="7.14002">
        <ele>987.55</ele>
        <time>2021-06-23T10:44:45Z</time>
      </trkpt>
      <trkpt lat="48.08338" lon="7.1401">
        <ele>983.94</ele>
        <time>2021-06-23T10:44:49Z</time>
      </trkpt>
      <trkpt lat="48.08353" lon="7.13977">
        <ele>982.69</ele>
        <time>2021-06-23T10:44:55Z</time>
      </trkpt>
      <trkpt lat="48.08353" lon="7.13977">
        <ele>982.69</ele>
        <time>2021-06-23T10:44:55Z</time>
      </trkpt>
      <trkpt lat="48.08354" lon="7.13975">
        <ele>981.44</ele>
        <time>2021-06-23T10:44:56Z</time>
      </trkpt>
      <trkpt lat="48.08352" lon="7.13963">
        <ele>981.84</ele>
        <time>2021-06-23T10:44:58Z</time>
      </trkpt>
      <trkpt lat="48.08341" lon="7.13949">
        <ele>984.1</ele>
        <time>2021-06-23T10:45:01Z</time>
      </trkpt>
      <trkpt lat="48.08336" lon="7.13936">
        <ele>984.21</ele>
        <time>2021-06-23T10:45:05Z</time>
      </trkpt>
      <trkpt lat="48.08322" lon="7.13912">
        <ele>984.39</ele>
        <time>2021-06-23T10:45:08Z</time>
      </trkpt>
      <trkpt lat="48.08226" lon="7.13761">
        <ele>984.78</ele>
        <time>2021-06-23T10:45:11Z</time>
      </trkpt>
      <trkpt lat="48.08214" lon="7.13738">
        <ele>985.79</ele>
        <time>2021-06-23T10:45:15Z</time>
      </trkpt>
      <trkpt lat="48.08202" lon="7.13714">
        <ele>985.67</ele>
        <time>2021-06-23T10:45:18Z</time>
      </trkpt>
      <trkpt lat="48.08179" lon="7.13647">
        <ele>977.46</ele>
        <time>2021-06-23T10:45:22Z</time>
      </trkpt>
      <trkpt lat="48.08091" lon="7.13467">
        <ele>970.06</ele>
        <time>2021-06-23T10:45:25Z</time>
      </trkpt>
      <trkpt lat="48.08074" lon="7.1344">
        <ele>969.89</ele>
        <time>2021-06-23T10:45:29Z</time>
      </trkpt>
      <trkpt lat="48.08035" lon="7.1339">
        <ele>968.12</ele>
        <time>2021-06-23T10:45:32Z</time>
      </trkpt>
      <trkpt lat="48.07948" lon="7.1323">
        <ele>955.74</ele>
        <time>2021-06-23T10:45:35Z</time>
      </trkpt>
      <trkpt lat="48.07942" lon="7.13215">
        <ele>954.56</ele>
        <time>2021-06-23T10:45:39Z</time>
      </trkpt>
      <trkpt lat="48.0794" lon="7.13205">
        <ele>954.03</ele>
        <time>2021-06-23T10:45:42Z</time>
      </trkpt>
      <trkpt lat="48.07939" lon="7.13185">
        <ele>952.79</ele>
        <time>2021-06-23T10:45:46Z</time>
      </trkpt>
      <trkpt lat="48.07941" lon="7.13158">
        <ele>950.75</ele>
        <time>2021-06-23T10:45:49Z</time>
      </trkpt>
      <trkpt lat="48.07964" lon="7.13092">
        <ele>945.6</ele>
        <time>2021-06-23T10:45:53Z</time>
      </trkpt>
      <trkpt lat="48.0797" lon="7.1307">
        <ele>944.85</ele>
        <time>2021-06-23T10:45:56Z</time>
      </trkpt>
      <trkpt lat="48.07975" lon="7.1304">
        <ele>943.98</ele>
        <time>2021-06-23T10:45:59Z</time>
      </trkpt>
      <trkpt lat="48.07975" lon="7.1304">
        <ele>943.98</ele>
        <time>2021-06-23T10:45:59Z</time>
      </trkpt>
      <trkpt lat="48.07982" lon="7.12968">
        <ele>942.78</ele>
        <time>2021-06-23T10:46:02Z</time>
      </trkpt>
      <trkpt lat="48.07986" lon="7.12954">
        <ele>942.82</ele>
        <time>2021-06-23T10:46:04Z</time>
      </trkpt>
      <trkpt lat="48.07992" lon="7.12939">
        <ele>943.05</ele>
        <time>2021-06-23T10:46:06Z</time>
      </trkpt>
      <trkpt lat="48.08024" lon="7.12891">
        <ele>941.76</ele>
        <time>2021-06-23T10:46:08Z</time>
      </trkpt>
      <trkpt lat="48.0804" lon="7.12864">
        <ele>939.47</ele>
        <time>2021-06-23T10:46:10Z</time>
      </trkpt>
      <trkpt lat="48.08048" lon="7.12841">
        <ele>938.82</ele>
        <time>2021-06-23T10:46:13Z</time>
      </trkpt>
      <trkpt lat="48.08053" lon="7.12811">
        <ele>939.18</ele>
        <time>2021-06-23T10:46:15Z</time>
      </trkpt>
      <trkpt lat="48.0806" lon="7.12739">
        <ele>936.41</ele>
        <time>2021-06-23T10:46:17Z</time>
      </trkpt>
      <trkpt lat="48.08059" lon="7.127">
        <ele>935.45</ele>
        <time>2021-06-23T10:46:19Z</time>
      </trkpt>
      <trkpt lat="48.08052" lon="7.1265">
        <ele>936.13</ele>
        <time>2021-06-23T10:46:21Z</time>
      </trkpt>
      <trkpt lat="48.08052" lon="7.12627">
        <ele>936.39</ele>
        <time>2021-06-23T10:46:23Z</time>
      </trkpt>
      <trkpt lat="48.08057" lon="7.12609">
        <ele>935.83</ele>
        <time>2021-06-23T10:46:26Z</time>
      </trkpt>
      <trkpt lat="48.08062" lon="7.126">
        <ele>935.03</ele>
        <time>2021-06-23T10:46:28Z</time>
      </trkpt>
      <trkpt lat="48.08068" lon="7.12594">
        <ele>934.36</ele>
        <time>2021-06-23T10:46:30Z</time>
      </trkpt>
      <trkpt lat="48.0808" lon="7.1259">
        <ele>933.29</ele>
        <time>2021-06-23T10:46:32Z</time>
      </trkpt>
      <trkpt lat="48.08097" lon="7.12591">
        <ele>932.74</ele>
        <time>2021-06-23T10:46:34Z</time>
      </trkpt>
      <trkpt lat="48.08191" lon="7.12603">
        <ele>926.98</ele>
        <time>2021-06-23T10:46:36Z</time>
      </trkpt>
      <trkpt lat="48.082" lon="7.12602">
        <ele>926.9</ele>
        <time>2021-06-23T10:46:39Z</time>
      </trkpt>
      <trkpt lat="48.08213" lon="7.12594">
        <ele>927.54</ele>
        <time>2021-06-23T10:46:41Z</time>
      </trkpt>
      <trkpt lat="48.08246" lon="7.12567">
        <ele>933.64</ele>
        <time>2021-06-23T10:46:43Z</time>
      </trkpt>
      <trkpt lat="48.08267" lon="7.12562">
        <ele>937.37</ele>
        <time>2021-06-23T10:46:45Z</time>
      </trkpt>
      <trkpt lat="48.08281" lon="7.12565">
        <ele>938.71</ele>
        <time>2021-06-23T10:46:47Z</time>
      </trkpt>
      <trkpt lat="48.08295" lon="7.12573">
        <ele>937.8</ele>
        <time>2021-06-23T10:46:49Z</time>
      </trkpt>
      <trkpt lat="48.08333" lon="7.12602">
        <ele>934</ele>
        <time>2021-06-23T10:46:52Z</time>
      </trkpt>
      <trkpt lat="48.08351" lon="7.12608">
        <ele>933.92</ele>
        <time>2021-06-23T10:46:54Z</time>
      </trkpt>
      <trkpt lat="48.08361" lon="7.12609">
        <ele>934.24</ele>
        <time>2021-06-23T10:46:56Z</time>
      </trkpt>
      <trkpt lat="48.08425" lon="7.12594">
        <ele>933.27</ele>
        <time>2021-06-23T10:46:58Z</time>
      </trkpt>
      <trkpt lat="48.08532" lon="7.12545">
        <ele>930.7</ele>
        <time>2021-06-23T10:47:00Z</time>
      </trkpt>
      <trkpt lat="48.08557" lon="7.12525">
        <ele>929.12</ele>
        <time>2021-06-23T10:47:02Z</time>
      </trkpt>
      <trkpt lat="48.08576" lon="7.12499">
        <ele>928.08</ele>
        <time>2021-06-23T10:47:05Z</time>
      </trkpt>
      <trkpt lat="48.08582" lon="7.12488">
        <ele>927.63</ele>
        <time>2021-06-23T10:47:07Z</time>
      </trkpt>
      <trkpt lat="48.08582" lon="7.12488">
        <ele>927.63</ele>
        <time>2021-06-23T10:47:07Z</time>
      </trkpt>
      <trkpt lat="48.08595" lon="7.12457">
        <ele>925.41</ele>
        <time>2021-06-23T10:47:10Z</time>
      </trkpt>
      <trkpt lat="48.0861" lon="7.12409">
        <ele>923.6</ele>
        <time>2021-06-23T10:47:13Z</time>
      </trkpt>
      <trkpt lat="48.08616" lon="7.12337">
        <ele>921.98</ele>
        <time>2021-06-23T10:47:16Z</time>
      </trkpt>
      <trkpt lat="48.08626" lon="7.12292">
        <ele>918.09</ele>
        <time>2021-06-23T10:47:19Z</time>
      </trkpt>
      <trkpt lat="48.08629" lon="7.12266">
        <ele>916.4</ele>
        <time>2021-06-23T10:47:22Z</time>
      </trkpt>
      <trkpt lat="48.08633" lon="7.122">
        <ele>915.37</ele>
        <time>2021-06-23T10:47:25Z</time>
      </trkpt>
      <trkpt lat="48.08629" lon="7.12111">
        <ele>911.39</ele>
        <time>2021-06-23T10:47:28Z</time>
      </trkpt>
      <trkpt lat="48.08635" lon="7.12045">
        <ele>909.45</ele>
        <time>2021-06-23T10:47:31Z</time>
      </trkpt>
      <trkpt lat="48.08622" lon="7.1192">
        <ele>904.99</ele>
        <time>2021-06-23T10:47:34Z</time>
      </trkpt>
      <trkpt lat="48.08623" lon="7.11902">
        <ele>904.21</ele>
        <time>2021-06-23T10:47:37Z</time>
      </trkpt>
      <trkpt lat="48.08627" lon="7.11878">
        <ele>903.44</ele>
        <time>2021-06-23T10:47:40Z</time>
      </trkpt>
      <trkpt lat="48.08634" lon="7.11856">
        <ele>902.82</ele>
        <time>2021-06-23T10:47:43Z</time>
      </trkpt>
      <trkpt lat="48.08698" lon="7.11726">
        <ele>895.12</ele>
        <time>2021-06-23T10:47:46Z</time>
      </trkpt>
      <trkpt lat="48.08713" lon="7.117">
        <ele>892.97</ele>
        <time>2021-06-23T10:47:49Z</time>
      </trkpt>
      <trkpt lat="48.08749" lon="7.11655">
        <ele>888.26</ele>
        <time>2021-06-23T10:47:52Z</time>
      </trkpt>
      <trkpt lat="48.08772" lon="7.11634">
        <ele>886.13</ele>
        <time>2021-06-23T10:47:55Z</time>
      </trkpt>
      <trkpt lat="48.08792" lon="7.11619">
        <ele>887.37</ele>
        <time>2021-06-23T10:47:58Z</time>
      </trkpt>
      <trkpt lat="48.08774" lon="7.11528">
        <ele>885.24</ele>
        <time>2021-06-23T10:48:00Z</time>
      </trkpt>
      <trkpt lat="48.08771" lon="7.11489">
        <ele>882.08</ele>
        <time>2021-06-23T10:48:02Z</time>
      </trkpt>
      <trkpt lat="48.08772" lon="7.11456">
        <ele>878.43</ele>
        <time>2021-06-23T10:48:04Z</time>
      </trkpt>
      <trkpt lat="48.08787" lon="7.11349">
        <ele>875.24</ele>
        <time>2021-06-23T10:48:06Z</time>
      </trkpt>
      <trkpt lat="48.08787" lon="7.11349">
        <ele>875.24</ele>
        <time>2021-06-23T10:48:06Z</time>
      </trkpt>
      <trkpt lat="48.08788" lon="7.11322">
        <ele>872.26</ele>
        <time>2021-06-23T10:48:08Z</time>
      </trkpt>
      <trkpt lat="48.08784" lon="7.11306">
        <ele>871.58</ele>
        <time>2021-06-23T10:48:09Z</time>
      </trkpt>
      <trkpt lat="48.08779" lon="7.113">
        <ele>870.73</ele>
        <time>2021-06-23T10:48:11Z</time>
      </trkpt>
      <trkpt lat="48.08774" lon="7.11298">
        <ele>869.55</ele>
        <time>2021-06-23T10:48:12Z</time>
      </trkpt>
      <trkpt lat="48.08763" lon="7.11302">
        <ele>867.03</ele>
        <time>2021-06-23T10:48:14Z</time>
      </trkpt>
      <trkpt lat="48.08756" lon="7.11315">
        <ele>865.55</ele>
        <time>2021-06-23T10:48:15Z</time>
      </trkpt>
      <trkpt lat="48.08744" lon="7.11364">
        <ele>865.17</ele>
        <time>2021-06-23T10:48:17Z</time>
      </trkpt>
      <trkpt lat="48.08733" lon="7.11383">
        <ele>864.29</ele>
        <time>2021-06-23T10:48:18Z</time>
      </trkpt>
      <trkpt lat="48.08715" lon="7.11397">
        <ele>863.11</ele>
        <time>2021-06-23T10:48:20Z</time>
      </trkpt>
      <trkpt lat="48.08692" lon="7.114">
        <ele>862.26</ele>
        <time>2021-06-23T10:48:21Z</time>
      </trkpt>
      <trkpt lat="48.08677" lon="7.11398">
        <ele>861.93</ele>
        <time>2021-06-23T10:48:23Z</time>
      </trkpt>
      <trkpt lat="48.0864" lon="7.11378">
        <ele>857.32</ele>
        <time>2021-06-23T10:48:25Z</time>
      </trkpt>
      <trkpt lat="48.0862" lon="7.11371">
        <ele>855.61</ele>
        <time>2021-06-23T10:48:26Z</time>
      </trkpt>
      <trkpt lat="48.08534" lon="7.11354">
        <ele>849.51</ele>
        <time>2021-06-23T10:48:28Z</time>
      </trkpt>
      <trkpt lat="48.08453" lon="7.11348">
        <ele>842.74</ele>
        <time>2021-06-23T10:48:29Z</time>
      </trkpt>
      <trkpt lat="48.08388" lon="7.11339">
        <ele>836.2</ele>
        <time>2021-06-23T10:48:31Z</time>
      </trkpt>
      <trkpt lat="48.08347" lon="7.11339">
        <ele>834.83</ele>
        <time>2021-06-23T10:48:32Z</time>
      </trkpt>
      <trkpt lat="48.08291" lon="7.11325">
        <ele>831.63</ele>
        <time>2021-06-23T10:48:34Z</time>
      </trkpt>
      <trkpt lat="48.0827" lon="7.11323">
        <ele>830.86</ele>
        <time>2021-06-23T10:48:35Z</time>
      </trkpt>
      <trkpt lat="48.0821" lon="7.11328">
        <ele>827.39</ele>
        <time>2021-06-23T10:48:37Z</time>
      </trkpt>
      <trkpt lat="48.08171" lon="7.11324">
        <ele>823.22</ele>
        <time>2021-06-23T10:48:38Z</time>
      </trkpt>
      <trkpt lat="48.08118" lon="7.11323">
        <ele>818.96</ele>
        <time>2021-06-23T10:48:40Z</time>
      </trkpt>
      <trkpt lat="48.08095" lon="7.11317">
        <ele>817.33</ele>
        <time>2021-06-23T10:48:41Z</time>
      </trkpt>
      <trkpt lat="48.08095" lon="7.11317">
        <ele>817.33</ele>
        <time>2021-06-23T10:48:41Z</time>
      </trkpt>
      <trkpt lat="48.08061" lon="7.11299">
        <ele>809.63</ele>
        <time>2021-06-23T10:48:43Z</time>
      </trkpt>
      <trkpt lat="48.08053" lon="7.11287">
        <ele>807.87</ele>
        <time>2021-06-23T10:48:44Z</time>
      </trkpt>
      <trkpt lat="48.0805" lon="7.11271">
        <ele>806.82</ele>
        <time>2021-06-23T10:48:45Z</time>
      </trkpt>
      <trkpt lat="48.08054" lon="7.11257">
        <ele>807.05</ele>
        <time>2021-06-23T10:48:46Z</time>
      </trkpt>
      <trkpt lat="48.08063" lon="7.1125">
        <ele>807.24</ele>
        <time>2021-06-23T10:48:47Z</time>
      </trkpt>
      <trkpt lat="48.08071" lon="7.11249">
        <ele>807.48</ele>
        <time>2021-06-23T10:48:48Z</time>
      </trkpt>
      <trkpt lat="48.08092" lon="7.11261">
        <ele>809.14</ele>
        <time>2021-06-23T10:48:50Z</time>
      </trkpt>
      <trkpt lat="48.08103" lon="7.11264">
        <ele>809.48</ele>
        <time>2021-06-23T10:48:51Z</time>
      </trkpt>
      <trkpt lat="48.08114" lon="7.11263">
        <ele>809.54</ele>
        <time>2021-06-23T10:48:52Z</time>
      </trkpt>
      <trkpt lat="48.08128" lon="7.11258">
        <ele>809.68</ele>
        <time>2021-06-23T10:48:53Z</time>
      </trkpt>
      <trkpt lat="48.08159" lon="7.11242">
        <ele>807.55</ele>
        <time>2021-06-23T10:48:54Z</time>
      </trkpt>
      <trkpt lat="48.08176" lon="7.11236">
        <ele>806.76</ele>
        <time>2021-06-23T10:48:55Z</time>
      </trkpt>
      <trkpt lat="48.08237" lon="7.11225">
        <ele>804.46</ele>
        <time>2021-06-23T10:48:57Z</time>
      </trkpt>
      <trkpt lat="48.08266" lon="7.11221">
        <ele>800.92</ele>
        <time>2021-06-23T10:48:58Z</time>
      </trkpt>
      <trkpt lat="48.08301" lon="7.11222">
        <ele>797.35</ele>
        <time>2021-06-23T10:48:59Z</time>
      </trkpt>
      <trkpt lat="48.08348" lon="7.11229">
        <ele>798.72</ele>
        <time>2021-06-23T10:49:00Z</time>
      </trkpt>
      <trkpt lat="48.08364" lon="7.11227">
        <ele>797.36</ele>
        <time>2021-06-23T10:49:01Z</time>
      </trkpt>
      <trkpt lat="48.08393" lon="7.11218">
        <ele>794.09</ele>
        <time>2021-06-23T10:49:02Z</time>
      </trkpt>
      <trkpt lat="48.08456" lon="7.11192">
        <ele>796.05</ele>
        <time>2021-06-23T10:49:04Z</time>
      </trkpt>
      <trkpt lat="48.08456" lon="7.11192">
        <ele>796.05</ele>
        <time>2021-06-23T10:49:04Z</time>
      </trkpt>
      <trkpt lat="48.08463" lon="7.11186">
        <ele>796.82</ele>
        <time>2021-06-23T10:49:05Z</time>
      </trkpt>
      <trkpt lat="48.08469" lon="7.11175">
        <ele>797.15</ele>
        <time>2021-06-23T10:49:07Z</time>
      </trkpt>
      <trkpt lat="48.0847" lon="7.11165">
        <ele>796.45</ele>
        <time>2021-06-23T10:49:08Z</time>
      </trkpt>
      <trkpt lat="48.08467" lon="7.11156">
        <ele>795.35</ele>
        <time>2021-06-23T10:49:10Z</time>
      </trkpt>
      <trkpt lat="48.08462" lon="7.1115">
        <ele>793.88</ele>
        <time>2021-06-23T10:49:11Z</time>
      </trkpt>
      <trkpt lat="48.08455" lon="7.11149">
        <ele>792.05</ele>
        <time>2021-06-23T10:49:13Z</time>
      </trkpt>
      <trkpt lat="48.08433" lon="7.11171">
        <ele>788.51</ele>
        <time>2021-06-23T10:49:14Z</time>
      </trkpt>
      <trkpt lat="48.0842" lon="7.11177">
        <ele>787.47</ele>
        <time>2021-06-23T10:49:16Z</time>
      </trkpt>
      <trkpt lat="48.0838" lon="7.11184">
        <ele>784.53</ele>
        <time>2021-06-23T10:49:17Z</time>
      </trkpt>
      <trkpt lat="48.0836" lon="7.11184">
        <ele>784.15</ele>
        <time>2021-06-23T10:49:19Z</time>
      </trkpt>
      <trkpt lat="48.08343" lon="7.1118">
        <ele>783.73</ele>
        <time>2021-06-23T10:49:20Z</time>
      </trkpt>
      <trkpt lat="48.08326" lon="7.11168">
        <ele>781.04</ele>
        <time>2021-06-23T10:49:22Z</time>
      </trkpt>
      <trkpt lat="48.08239" lon="7.11093">
        <ele>769.74</ele>
        <time>2021-06-23T10:49:23Z</time>
      </trkpt>
      <trkpt lat="48.08147" lon="7.10991">
        <ele>763.88</ele>
        <time>2021-06-23T10:49:25Z</time>
      </trkpt>
      <trkpt lat="48.08082" lon="7.10909">
        <ele>754.75</ele>
        <time>2021-06-23T10:49:26Z</time>
      </trkpt>
      <trkpt lat="48.08052" lon="7.10879">
        <ele>752.74</ele>
        <time>2021-06-23T10:49:28Z</time>
      </trkpt>
      <trkpt lat="48.08011" lon="7.10849">
        <ele>748.16</ele>
        <time>2021-06-23T10:49:29Z</time>
      </trkpt>
      <trkpt lat="48.07953" lon="7.10812">
        <ele>745.26</ele>
        <time>2021-06-23T10:49:31Z</time>
      </trkpt>
      <trkpt lat="48.079" lon="7.10753">
        <ele>740.54</ele>
        <time>2021-06-23T10:49:32Z</time>
      </trkpt>
      <trkpt lat="48.07871" lon="7.10727">
        <ele>738.8</ele>
        <time>2021-06-23T10:49:34Z</time>
      </trkpt>
      <trkpt lat="48.07758" lon="7.10669">
        <ele>727.75</ele>
        <time>2021-06-23T10:49:35Z</time>
      </trkpt>
      <trkpt lat="48.07747" lon="7.10658">
        <ele>726.25</ele>
        <time>2021-06-23T10:49:37Z</time>
      </trkpt>
      <trkpt lat="48.07742" lon="7.10645">
        <ele>725.34</ele>
        <time>2021-06-23T10:49:38Z</time>
      </trkpt>
      <trkpt lat="48.07744" lon="7.10631">
        <ele>724.54</ele>
        <time>2021-06-23T10:49:40Z</time>
      </trkpt>
      <trkpt lat="48.07747" lon="7.10625">
        <ele>724.25</ele>
        <time>2021-06-23T10:49:41Z</time>
      </trkpt>
      <trkpt lat="48.07757" lon="7.10618">
        <ele>724.5</ele>
        <time>2021-06-23T10:49:43Z</time>
      </trkpt>
      <trkpt lat="48.0777" lon="7.10613">
        <ele>725.39</ele>
        <time>2021-06-23T10:49:44Z</time>
      </trkpt>
      <trkpt lat="48.07818" lon="7.10609">
        <ele>723.12</ele>
        <time>2021-06-23T10:49:46Z</time>
      </trkpt>
      <trkpt lat="48.07838" lon="7.10611">
        <ele>721.36</ele>
        <time>2021-06-23T10:49:48Z</time>
      </trkpt>
      <trkpt lat="48.07918" lon="7.10631">
        <ele>717.43</ele>
        <time>2021-06-23T10:49:49Z</time>
      </trkpt>
      <trkpt lat="48.07947" lon="7.10629">
        <ele>718.19</ele>
        <time>2021-06-23T10:49:51Z</time>
      </trkpt>
      <trkpt lat="48.07999" lon="7.10603">
        <ele>713.48</ele>
        <time>2021-06-23T10:49:52Z</time>
      </trkpt>
      <trkpt lat="48.0801" lon="7.10603">
        <ele>713.46</ele>
        <time>2021-06-23T10:49:54Z</time>
      </trkpt>
      <trkpt lat="48.08032" lon="7.10613">
        <ele>714.8</ele>
        <time>2021-06-23T10:49:55Z</time>
      </trkpt>
      <trkpt lat="48.08038" lon="7.10612">
        <ele>714.02</ele>
        <time>2021-06-23T10:49:57Z</time>
      </trkpt>
      <trkpt lat="48.08044" lon="7.10606">
        <ele>712.2</ele>
        <time>2021-06-23T10:49:58Z</time>
      </trkpt>
      <trkpt lat="48.08047" lon="7.10596">
        <ele>710.04</ele>
        <time>2021-06-23T10:50:00Z</time>
      </trkpt>
      <trkpt lat="48.08046" lon="7.10586">
        <ele>708.25</ele>
        <time>2021-06-23T10:50:01Z</time>
      </trkpt>
      <trkpt lat="48.0804" lon="7.10575">
        <ele>706.15</ele>
        <time>2021-06-23T10:50:03Z</time>
      </trkpt>
      <trkpt lat="48.08036" lon="7.10573">
        <ele>705.86</ele>
        <time>2021-06-23T10:50:04Z</time>
      </trkpt>
      <trkpt lat="48.08018" lon="7.10572">
        <ele>706.35</ele>
        <time>2021-06-23T10:50:06Z</time>
      </trkpt>
      <trkpt lat="48.08" lon="7.10572">
        <ele>707.15</ele>
        <time>2021-06-23T10:50:07Z</time>
      </trkpt>
      <trkpt lat="48.07958" lon="7.10565">
        <ele>704.77</ele>
        <time>2021-06-23T10:50:09Z</time>
      </trkpt>
      <trkpt lat="48.07934" lon="7.10559">
        <ele>701.95</ele>
        <time>2021-06-23T10:50:10Z</time>
      </trkpt>
      <trkpt lat="48.0792" lon="7.10553">
        <ele>699.66</ele>
        <time>2021-06-23T10:50:12Z</time>
      </trkpt>
      <trkpt lat="48.07845" lon="7.10507">
        <ele>694.69</ele>
        <time>2021-06-23T10:50:13Z</time>
      </trkpt>
      <trkpt lat="48.07727" lon="7.10447">
        <ele>688.82</ele>
        <time>2021-06-23T10:50:15Z</time>
      </trkpt>
      <trkpt lat="48.07659" lon="7.10381">
        <ele>682.33</ele>
        <time>2021-06-23T10:50:16Z</time>
      </trkpt>
      <trkpt lat="48.07641" lon="7.10373">
        <ele>680.63</ele>
        <time>2021-06-23T10:50:18Z</time>
      </trkpt>
      <trkpt lat="48.07526" lon="7.10348">
        <ele>670.91</ele>
        <time>2021-06-23T10:50:19Z</time>
      </trkpt>
      <trkpt lat="48.07434" lon="7.10335">
        <ele>669.6</ele>
        <time>2021-06-23T10:50:21Z</time>
      </trkpt>
      <trkpt lat="48.07404" lon="7.10334">
        <ele>667.64</ele>
        <time>2021-06-23T10:50:22Z</time>
      </trkpt>
      <trkpt lat="48.07387" lon="7.10341">
        <ele>668.09</ele>
        <time>2021-06-23T10:50:24Z</time>
      </trkpt>
      <trkpt lat="48.07359" lon="7.10366">
        <ele>667.81</ele>
        <time>2021-06-23T10:50:25Z</time>
      </trkpt>
      <trkpt lat="48.07354" lon="7.10366">
        <ele>666.09</ele>
        <time>2021-06-23T10:50:27Z</time>
      </trkpt>
      <trkpt lat="48.0735" lon="7.10362">
        <ele>664.89</ele>
        <time>2021-06-23T10:50:28Z</time>
      </trkpt>
      <trkpt lat="48.07346" lon="7.1035">
        <ele>662.26</ele>
        <time>2021-06-23T10:50:30Z</time>
      </trkpt>
      <trkpt lat="48.07346" lon="7.10338">
        <ele>660.77</ele>
        <time>2021-06-23T10:50:32Z</time>
      </trkpt>
      <trkpt lat="48.07351" lon="7.10326">
        <ele>660.15</ele>
        <time>2021-06-23T10:50:33Z</time>
      </trkpt>
      <trkpt lat="48.07358" lon="7.10321">
        <ele>660.26</ele>
        <time>2021-06-23T10:50:35Z</time>
      </trkpt>
      <trkpt lat="48.07358" lon="7.10321">
        <ele>660.26</ele>
        <time>2021-06-23T10:50:35Z</time>
      </trkpt>
      <trkpt lat="48.07388" lon="7.10307">
        <ele>659.34</ele>
        <time>2021-06-23T10:50:38Z</time>
      </trkpt>
      <trkpt lat="48.07444" lon="7.10289">
        <ele>656.66</ele>
        <time>2021-06-23T10:50:42Z</time>
      </trkpt>
      <trkpt lat="48.07518" lon="7.10281">
        <ele>653.78</ele>
        <time>2021-06-23T10:50:45Z</time>
      </trkpt>
      <trkpt lat="48.07603" lon="7.10267">
        <ele>648.64</ele>
        <time>2021-06-23T10:50:49Z</time>
      </trkpt>
      <trkpt lat="48.07682" lon="7.10261">
        <ele>644.83</ele>
        <time>2021-06-23T10:50:52Z</time>
      </trkpt>
      <trkpt lat="48.07808" lon="7.10256">
        <ele>639.53</ele>
        <time>2021-06-23T10:50:55Z</time>
      </trkpt>
      <trkpt lat="48.07808" lon="7.10256">
        <ele>639.53</ele>
        <time>2021-06-23T10:50:55Z</time>
      </trkpt>
      <trkpt lat="48.07843" lon="7.10255">
        <ele>637.59</ele>
        <time>2021-06-23T10:50:57Z</time>
      </trkpt>
      <trkpt lat="48.07852" lon="7.10253">
        <ele>636.82</ele>
        <time>2021-06-23T10:50:58Z</time>
      </trkpt>
      <trkpt lat="48.07859" lon="7.10246">
        <ele>636.17</ele>
        <time>2021-06-23T10:50:59Z</time>
      </trkpt>
      <trkpt lat="48.07862" lon="7.10236">
        <ele>636.7</ele>
        <time>2021-06-23T10:51:00Z</time>
      </trkpt>
      <trkpt lat="48.07862" lon="7.10223">
        <ele>637.17</ele>
        <time>2021-06-23T10:51:01Z</time>
      </trkpt>
      <trkpt lat="48.07833" lon="7.10017">
        <ele>628.9</ele>
        <time>2021-06-23T10:51:02Z</time>
      </trkpt>
      <trkpt lat="48.07829" lon="7.09931">
        <ele>629.01</ele>
        <time>2021-06-23T10:51:04Z</time>
      </trkpt>
      <trkpt lat="48.07832" lon="7.09893">
        <ele>627.83</ele>
        <time>2021-06-23T10:51:05Z</time>
      </trkpt>
      <trkpt lat="48.07831" lon="7.09879">
        <ele>626.64</ele>
        <time>2021-06-23T10:51:06Z</time>
      </trkpt>
      <trkpt lat="48.07826" lon="7.09862">
        <ele>624.8</ele>
        <time>2021-06-23T10:51:07Z</time>
      </trkpt>
      <trkpt lat="48.07819" lon="7.09849">
        <ele>624.14</ele>
        <time>2021-06-23T10:51:08Z</time>
      </trkpt>
      <trkpt lat="48.0781" lon="7.09838">
        <ele>623.35</ele>
        <time>2021-06-23T10:51:09Z</time>
      </trkpt>
      <trkpt lat="48.078" lon="7.09833">
        <ele>623.04</ele>
        <time>2021-06-23T10:51:11Z</time>
      </trkpt>
      <trkpt lat="48.07796" lon="7.09833">
        <ele>623.03</ele>
        <time>2021-06-23T10:51:12Z</time>
      </trkpt>
      <trkpt lat="48.07796" lon="7.09833">
        <ele>623.03</ele>
        <time>2021-06-23T10:51:12Z</time>
      </trkpt>
      <trkpt lat="48.07783" lon="7.09836">
        <ele>622.79</ele>
        <time>2021-06-23T10:51:14Z</time>
      </trkpt>
      <trkpt lat="48.07775" lon="7.09842">
        <ele>622.63</ele>
        <time>2021-06-23T10:51:16Z</time>
      </trkpt>
      <trkpt lat="48.07767" lon="7.09853">
        <ele>622.49</ele>
        <time>2021-06-23T10:51:18Z</time>
      </trkpt>
      <trkpt lat="48.07725" lon="7.0993">
        <ele>618.52</ele>
        <time>2021-06-23T10:51:20Z</time>
      </trkpt>
      <trkpt lat="48.07713" lon="7.09946">
        <ele>618.27</ele>
        <time>2021-06-23T10:51:22Z</time>
      </trkpt>
      <trkpt lat="48.07647" lon="7.10004">
        <ele>616.58</ele>
        <time>2021-06-23T10:51:23Z</time>
      </trkpt>
      <trkpt lat="48.07622" lon="7.10023">
        <ele>615.46</ele>
        <time>2021-06-23T10:51:25Z</time>
      </trkpt>
      <trkpt lat="48.07593" lon="7.10036">
        <ele>613</ele>
        <time>2021-06-23T10:51:27Z</time>
      </trkpt>
      <trkpt lat="48.07514" lon="7.10044">
        <ele>603.68</ele>
        <time>2021-06-23T10:51:29Z</time>
      </trkpt>
      <trkpt lat="48.07444" lon="7.10071">
        <ele>597.59</ele>
        <time>2021-06-23T10:51:31Z</time>
      </trkpt>
      <trkpt lat="48.07435" lon="7.10073">
        <ele>596.47</ele>
        <time>2021-06-23T10:51:33Z</time>
      </trkpt>
      <trkpt lat="48.07338" lon="7.10067">
        <ele>587.86</ele>
        <time>2021-06-23T10:51:35Z</time>
      </trkpt>
      <trkpt lat="48.07292" lon="7.10058">
        <ele>582.72</ele>
        <time>2021-06-23T10:51:37Z</time>
      </trkpt>
      <trkpt lat="48.07292" lon="7.10045">
        <ele>582.89</ele>
        <time>2021-06-23T10:51:40Z</time>
      </trkpt>
      <trkpt lat="48.07284" lon="7.10026">
        <ele>583.58</ele>
        <time>2021-06-23T10:51:43Z</time>
      </trkpt>
      <trkpt lat="48.0725" lon="7.09999">
        <ele>586.61</ele>
        <time>2021-06-23T10:51:46Z</time>
      </trkpt>
      <trkpt lat="48.07237" lon="7.09985">
        <ele>589.72</ele>
        <time>2021-06-23T10:51:49Z</time>
      </trkpt>
      <trkpt lat="48.07202" lon="7.09931">
        <ele>597.67</ele>
        <time>2021-06-23T10:51:53Z</time>
      </trkpt>
      <trkpt lat="48.07189" lon="7.09917">
        <ele>597.99</ele>
        <time>2021-06-23T10:51:56Z</time>
      </trkpt>
      <trkpt lat="48.07174" lon="7.09906">
        <ele>597.95</ele>
        <time>2021-06-23T10:51:59Z</time>
      </trkpt>
      <trkpt lat="48.07142" lon="7.09891">
        <ele>597.52</ele>
        <time>2021-06-23T10:52:02Z</time>
      </trkpt>
      <trkpt lat="48.07117" lon="7.09886">
        <ele>595.38</ele>
        <time>2021-06-23T10:52:05Z</time>
      </trkpt>
      <trkpt lat="48.07087" lon="7.09887">
        <ele>593.42</ele>
        <time>2021-06-23T10:52:08Z</time>
      </trkpt>
      <trkpt lat="48.06894" lon="7.09909">
        <ele>604.15</ele>
        <time>2021-06-23T10:52:11Z</time>
      </trkpt>
      <trkpt lat="48.06873" lon="7.09909">
        <ele>604.21</ele>
        <time>2021-06-23T10:52:14Z</time>
      </trkpt>
      <trkpt lat="48.06854" lon="7.09905">
        <ele>604.78</ele>
        <time>2021-06-23T10:52:17Z</time>
      </trkpt>
      <trkpt lat="48.06777" lon="7.09865">
        <ele>614.09</ele>
        <time>2021-06-23T10:52:20Z</time>
      </trkpt>
      <trkpt lat="48.06761" lon="7.09862">
        <ele>614.74</ele>
        <time>2021-06-23T10:52:23Z</time>
      </trkpt>
      <trkpt lat="48.06745" lon="7.09864">
        <ele>614.22</ele>
        <time>2021-06-23T10:52:26Z</time>
      </trkpt>
      <trkpt lat="48.06698" lon="7.09878">
        <ele>613.84</ele>
        <time>2021-06-23T10:52:29Z</time>
      </trkpt>
      <trkpt lat="48.06676" lon="7.09882">
        <ele>614.81</ele>
        <time>2021-06-23T10:52:32Z</time>
      </trkpt>
      <trkpt lat="48.06664" lon="7.09881">
        <ele>615.67</ele>
        <time>2021-06-23T10:52:35Z</time>
      </trkpt>
      <trkpt lat="48.06649" lon="7.09871">
        <ele>616.29</ele>
        <time>2021-06-23T10:52:38Z</time>
      </trkpt>
      <trkpt lat="48.06642" lon="7.09862">
        <ele>617.14</ele>
        <time>2021-06-23T10:52:41Z</time>
      </trkpt>
      <trkpt lat="48.06637" lon="7.09848">
        <ele>617.92</ele>
        <time>2021-06-23T10:52:44Z</time>
      </trkpt>
      <trkpt lat="48.06635" lon="7.09835">
        <ele>618.38</ele>
        <time>2021-06-23T10:52:48Z</time>
      </trkpt>
      <trkpt lat="48.06635" lon="7.09835">
        <ele>618.38</ele>
        <time>2021-06-23T10:52:48Z</time>
      </trkpt>
      <trkpt lat="48.06635" lon="7.0982">
        <ele>618.54</ele>
        <time>2021-06-23T10:52:49Z</time>
      </trkpt>
      <trkpt lat="48.06638" lon="7.09809">
        <ele>618.79</ele>
        <time>2021-06-23T10:52:50Z</time>
      </trkpt>
      <trkpt lat="48.06645" lon="7.0979">
        <ele>620.24</ele>
        <time>2021-06-23T10:52:51Z</time>
      </trkpt>
      <trkpt lat="48.06659" lon="7.09765">
        <ele>621.96</ele>
        <time>2021-06-23T10:52:53Z</time>
      </trkpt>
      <trkpt lat="48.06667" lon="7.09742">
        <ele>622.83</ele>
        <time>2021-06-23T10:52:54Z</time>
      </trkpt>
      <trkpt lat="48.06675" lon="7.09711">
        <ele>623.67</ele>
        <time>2021-06-23T10:52:55Z</time>
      </trkpt>
      <trkpt lat="48.06679" lon="7.09676">
        <ele>625.66</ele>
        <time>2021-06-23T10:52:57Z</time>
      </trkpt>
      <trkpt lat="48.06679" lon="7.09644">
        <ele>626.17</ele>
        <time>2021-06-23T10:52:58Z</time>
      </trkpt>
      <trkpt lat="48.06658" lon="7.09445">
        <ele>633.87</ele>
        <time>2021-06-23T10:52:59Z</time>
      </trkpt>
      <trkpt lat="48.06656" lon="7.09432">
        <ele>636.73</ele>
        <time>2021-06-23T10:53:01Z</time>
      </trkpt>
      <trkpt lat="48.0665" lon="7.09419">
        <ele>638.35</ele>
        <time>2021-06-23T10:53:02Z</time>
      </trkpt>
      <trkpt lat="48.0664" lon="7.09407">
        <ele>639.82</ele>
        <time>2021-06-23T10:53:03Z</time>
      </trkpt>
      <trkpt lat="48.0664" lon="7.09407">
        <ele>639.82</ele>
        <time>2021-06-23T10:53:03Z</time>
      </trkpt>
      <trkpt lat="48.06629" lon="7.09401">
        <ele>640.47</ele>
        <time>2021-06-23T10:53:05Z</time>
      </trkpt>
      <trkpt lat="48.06617" lon="7.09402">
        <ele>639.64</ele>
        <time>2021-06-23T10:53:06Z</time>
      </trkpt>
      <trkpt lat="48.06586" lon="7.09419">
        <ele>636.12</ele>
        <time>2021-06-23T10:53:07Z</time>
      </trkpt>
      <trkpt lat="48.06574" lon="7.09422">
        <ele>636.67</ele>
        <time>2021-06-23T10:53:08Z</time>
      </trkpt>
      <trkpt lat="48.06563" lon="7.09418">
        <ele>638.79</ele>
        <time>2021-06-23T10:53:10Z</time>
      </trkpt>
      <trkpt lat="48.06533" lon="7.09399">
        <ele>647.01</ele>
        <time>2021-06-23T10:53:11Z</time>
      </trkpt>
      <trkpt lat="48.06523" lon="7.09394">
        <ele>648.22</ele>
        <time>2021-06-23T10:53:12Z</time>
      </trkpt>
      <trkpt lat="48.06501" lon="7.09393">
        <ele>647.53</ele>
        <time>2021-06-23T10:53:13Z</time>
      </trkpt>
      <trkpt lat="48.0641" lon="7.09434">
        <ele>657</ele>
        <time>2021-06-23T10:53:15Z</time>
      </trkpt>
      <trkpt lat="48.06375" lon="7.09448">
        <ele>657.39</ele>
        <time>2021-06-23T10:53:16Z</time>
      </trkpt>
      <trkpt lat="48.06358" lon="7.09451">
        <ele>655.64</ele>
        <time>2021-06-23T10:53:17Z</time>
      </trkpt>
      <trkpt lat="48.06344" lon="7.0945">
        <ele>654.42</ele>
        <time>2021-06-23T10:53:18Z</time>
      </trkpt>
      <trkpt lat="48.06323" lon="7.09445">
        <ele>653.48</ele>
        <time>2021-06-23T10:53:20Z</time>
      </trkpt>
      <trkpt lat="48.06311" lon="7.09439">
        <ele>653.03</ele>
        <time>2021-06-23T10:53:21Z</time>
      </trkpt>
      <trkpt lat="48.06296" lon="7.09427">
        <ele>653.54</ele>
        <time>2021-06-23T10:53:22Z</time>
      </trkpt>
      <trkpt lat="48.0628" lon="7.09409">
        <ele>654.35</ele>
        <time>2021-06-23T10:53:23Z</time>
      </trkpt>
      <trkpt lat="48.06271" lon="7.09392">
        <ele>655.84</ele>
        <time>2021-06-23T10:53:25Z</time>
      </trkpt>
      <trkpt lat="48.06247" lon="7.09339">
        <ele>663.11</ele>
        <time>2021-06-23T10:53:26Z</time>
      </trkpt>
      <trkpt lat="48.06236" lon="7.09324">
        <ele>664.22</ele>
        <time>2021-06-23T10:53:27Z</time>
      </trkpt>
      <trkpt lat="48.06224" lon="7.09314">
        <ele>664.21</ele>
        <time>2021-06-23T10:53:28Z</time>
      </trkpt>
      <trkpt lat="48.06208" lon="7.09309">
        <ele>664.09</ele>
        <time>2021-06-23T10:53:30Z</time>
      </trkpt>
      <trkpt lat="48.06193" lon="7.09311">
        <ele>662.84</ele>
        <time>2021-06-23T10:53:31Z</time>
      </trkpt>
      <trkpt lat="48.06182" lon="7.09315">
        <ele>662.29</ele>
        <time>2021-06-23T10:53:32Z</time>
      </trkpt>
      <trkpt lat="48.06148" lon="7.09339">
        <ele>660.38</ele>
        <time>2021-06-23T10:53:33Z</time>
      </trkpt>
      <trkpt lat="48.06129" lon="7.09346">
        <ele>660.73</ele>
        <time>2021-06-23T10:53:35Z</time>
      </trkpt>
      <trkpt lat="48.06111" lon="7.09346">
        <ele>662.33</ele>
        <time>2021-06-23T10:53:36Z</time>
      </trkpt>
      <trkpt lat="48.06088" lon="7.09339">
        <ele>664.81</ele>
        <time>2021-06-23T10:53:37Z</time>
      </trkpt>
      <trkpt lat="48.06064" lon="7.09322">
        <ele>667.93</ele>
        <time>2021-06-23T10:53:39Z</time>
      </trkpt>
      <trkpt lat="48.06037" lon="7.09297">
        <ele>670.84</ele>
        <time>2021-06-23T10:53:40Z</time>
      </trkpt>
      <trkpt lat="48.06002" lon="7.09254">
        <ele>672.79</ele>
        <time>2021-06-23T10:53:41Z</time>
      </trkpt>
      <trkpt lat="48.05978" lon="7.09206">
        <ele>676.93</ele>
        <time>2021-06-23T10:53:42Z</time>
      </trkpt>
      <trkpt lat="48.05963" lon="7.09157">
        <ele>680.35</ele>
        <time>2021-06-23T10:53:44Z</time>
      </trkpt>
      <trkpt lat="48.05963" lon="7.09157">
        <ele>680.35</ele>
        <time>2021-06-23T10:53:44Z</time>
      </trkpt>
      <trkpt lat="48.05956" lon="7.09123">
        <ele>680.94</ele>
        <time>2021-06-23T10:53:45Z</time>
      </trkpt>
      <trkpt lat="48.05955" lon="7.09099">
        <ele>680.28</ele>
        <time>2021-06-23T10:53:47Z</time>
      </trkpt>
      <trkpt lat="48.05957" lon="7.09069">
        <ele>680.64</ele>
        <time>2021-06-23T10:53:48Z</time>
      </trkpt>
      <trkpt lat="48.05962" lon="7.09052">
        <ele>682.14</ele>
        <time>2021-06-23T10:53:50Z</time>
      </trkpt>
      <trkpt lat="48.05969" lon="7.09035">
        <ele>684.2</ele>
        <time>2021-06-23T10:53:51Z</time>
      </trkpt>
      <trkpt lat="48.0602" lon="7.08941">
        <ele>693.1</ele>
        <time>2021-06-23T10:53:53Z</time>
      </trkpt>
      <trkpt lat="48.06044" lon="7.0888">
        <ele>696.22</ele>
        <time>2021-06-23T10:53:55Z</time>
      </trkpt>
      <trkpt lat="48.06058" lon="7.08829">
        <ele>700.27</ele>
        <time>2021-06-23T10:53:56Z</time>
      </trkpt>
      <trkpt lat="48.06063" lon="7.08778">
        <ele>700.7</ele>
        <time>2021-06-23T10:53:58Z</time>
      </trkpt>
      <trkpt lat="48.06062" lon="7.08699">
        <ele>701.19</ele>
        <time>2021-06-23T10:53:59Z</time>
      </trkpt>
      <trkpt lat="48.06063" lon="7.08671">
        <ele>702.22</ele>
        <time>2021-06-23T10:54:01Z</time>
      </trkpt>
      <trkpt lat="48.06082" lon="7.08502">
        <ele>706.77</ele>
        <time>2021-06-23T10:54:02Z</time>
      </trkpt>
      <trkpt lat="48.06091" lon="7.08456">
        <ele>706.92</ele>
        <time>2021-06-23T10:54:04Z</time>
      </trkpt>
      <trkpt lat="48.06121" lon="7.0836">
        <ele>709.56</ele>
        <time>2021-06-23T10:54:06Z</time>
      </trkpt>
      <trkpt lat="48.06129" lon="7.08329">
        <ele>711.06</ele>
        <time>2021-06-23T10:54:07Z</time>
      </trkpt>
      <trkpt lat="48.06143" lon="7.08235">
        <ele>711.95</ele>
        <time>2021-06-23T10:54:09Z</time>
      </trkpt>
      <trkpt lat="48.06147" lon="7.08216">
        <ele>711.97</ele>
        <time>2021-06-23T10:54:10Z</time>
      </trkpt>
      <trkpt lat="48.06156" lon="7.082">
        <ele>712.09</ele>
        <time>2021-06-23T10:54:12Z</time>
      </trkpt>
      <trkpt lat="48.0617" lon="7.08184">
        <ele>713.94</ele>
        <time>2021-06-23T10:54:14Z</time>
      </trkpt>
      <trkpt lat="48.06185" lon="7.08171">
        <ele>716.48</ele>
        <time>2021-06-23T10:54:15Z</time>
      </trkpt>
      <trkpt lat="48.06218" lon="7.08151">
        <ele>720.68</ele>
        <time>2021-06-23T10:54:17Z</time>
      </trkpt>
      <trkpt lat="48.06233" lon="7.08145">
        <ele>721.79</ele>
        <time>2021-06-23T10:54:18Z</time>
      </trkpt>
      <trkpt lat="48.06246" lon="7.08143">
        <ele>723.22</ele>
        <time>2021-06-23T10:54:20Z</time>
      </trkpt>
      <trkpt lat="48.06295" lon="7.0815">
        <ele>731.12</ele>
        <time>2021-06-23T10:54:21Z</time>
      </trkpt>
      <trkpt lat="48.06313" lon="7.08146">
        <ele>733.16</ele>
        <time>2021-06-23T10:54:23Z</time>
      </trkpt>
      <trkpt lat="48.06323" lon="7.0814">
        <ele>733.91</ele>
        <time>2021-06-23T10:54:25Z</time>
      </trkpt>
      <trkpt lat="48.06336" lon="7.08127">
        <ele>735.11</ele>
        <time>2021-06-23T10:54:26Z</time>
      </trkpt>
      <trkpt lat="48.06345" lon="7.08114">
        <ele>736.34</ele>
        <time>2021-06-23T10:54:28Z</time>
      </trkpt>
      <trkpt lat="48.06352" lon="7.08094">
        <ele>737.47</ele>
        <time>2021-06-23T10:54:29Z</time>
      </trkpt>
      <trkpt lat="48.06357" lon="7.08073">
        <ele>737.39</ele>
        <time>2021-06-23T10:54:31Z</time>
      </trkpt>
      <trkpt lat="48.06357" lon="7.08058">
        <ele>736.28</ele>
        <time>2021-06-23T10:54:32Z</time>
      </trkpt>
      <trkpt lat="48.06353" lon="7.08011">
        <ele>732.49</ele>
        <time>2021-06-23T10:54:34Z</time>
      </trkpt>
      <trkpt lat="48.06355" lon="7.07989">
        <ele>732.59</ele>
        <time>2021-06-23T10:54:36Z</time>
      </trkpt>
      <trkpt lat="48.06363" lon="7.07949">
        <ele>735.65</ele>
        <time>2021-06-23T10:54:37Z</time>
      </trkpt>
      <trkpt lat="48.06382" lon="7.07873">
        <ele>739.03</ele>
        <time>2021-06-23T10:54:39Z</time>
      </trkpt>
      <trkpt lat="48.06399" lon="7.0781">
        <ele>740.35</ele>
        <time>2021-06-23T10:54:40Z</time>
      </trkpt>
      <trkpt lat="48.06399" lon="7.0781">
        <ele>740.35</ele>
        <time>2021-06-23T10:54:40Z</time>
      </trkpt>
      <trkpt lat="48.06401" lon="7.07805">
        <ele>741.66</ele>
        <time>2021-06-23T10:54:42Z</time>
      </trkpt>
      <trkpt lat="48.06416" lon="7.07776">
        <ele>742.19</ele>
        <time>2021-06-23T10:54:44Z</time>
      </trkpt>
      <trkpt lat="48.06428" lon="7.07763">
        <ele>741.31</ele>
        <time>2021-06-23T10:54:46Z</time>
      </trkpt>
      <trkpt lat="48.06445" lon="7.0775">
        <ele>741.05</ele>
        <time>2021-06-23T10:54:48Z</time>
      </trkpt>
      <trkpt lat="48.06467" lon="7.0774">
        <ele>740.03</ele>
        <time>2021-06-23T10:54:50Z</time>
      </trkpt>
      <trkpt lat="48.06581" lon="7.07708">
        <ele>754.44</ele>
        <time>2021-06-23T10:54:51Z</time>
      </trkpt>
      <trkpt lat="48.06645" lon="7.07675">
        <ele>758.39</ele>
        <time>2021-06-23T10:54:53Z</time>
      </trkpt>
      <trkpt lat="48.0666" lon="7.07664">
        <ele>758.57</ele>
        <time>2021-06-23T10:54:55Z</time>
      </trkpt>
      <trkpt lat="48.06675" lon="7.07649">
        <ele>759.21</ele>
        <time>2021-06-23T10:54:57Z</time>
      </trkpt>
      <trkpt lat="48.06717" lon="7.07591">
        <ele>763.65</ele>
        <time>2021-06-23T10:54:59Z</time>
      </trkpt>
      <trkpt lat="48.06722" lon="7.07602">
        <ele>767.29</ele>
        <time>2021-06-23T10:55:00Z</time>
      </trkpt>
      <trkpt lat="48.06722" lon="7.07608">
        <ele>768.28</ele>
        <time>2021-06-23T10:55:00Z</time>
      </trkpt>
      <trkpt lat="48.06722" lon="7.07608">
        <ele>768.28</ele>
        <time>2021-06-23T10:55:00Z</time>
      </trkpt>
      <trkpt lat="48.06721" lon="7.07617">
        <ele>769.26</ele>
        <time>2021-06-23T10:55:04Z</time>
      </trkpt>
      <trkpt lat="48.06701" lon="7.07644">
        <ele>766.08</ele>
        <time>2021-06-23T10:55:07Z</time>
      </trkpt>
      <trkpt lat="48.0666" lon="7.07715">
        <ele>768.92</ele>
        <time>2021-06-23T10:55:11Z</time>
      </trkpt>
      <trkpt lat="48.06647" lon="7.0773">
        <ele>769.61</ele>
        <time>2021-06-23T10:55:14Z</time>
      </trkpt>
      <trkpt lat="48.06616" lon="7.07758">
        <ele>770.87</ele>
        <time>2021-06-23T10:55:17Z</time>
      </trkpt>
      <trkpt lat="48.06499" lon="7.07849">
        <ele>776.52</ele>
        <time>2021-06-23T10:55:21Z</time>
      </trkpt>
      <trkpt lat="48.06489" lon="7.07865">
        <ele>777.53</ele>
        <time>2021-06-23T10:55:24Z</time>
      </trkpt>
      <trkpt lat="48.06477" lon="7.07892">
        <ele>778.98</ele>
        <time>2021-06-23T10:55:28Z</time>
      </trkpt>
      <trkpt lat="48.06468" lon="7.0792">
        <ele>778.59</ele>
        <time>2021-06-23T10:55:31Z</time>
      </trkpt>
      <trkpt lat="48.06463" lon="7.07946">
        <ele>778.63</ele>
        <time>2021-06-23T10:55:35Z</time>
      </trkpt>
      <trkpt lat="48.06462" lon="7.07986">
        <ele>780.94</ele>
        <time>2021-06-23T10:55:38Z</time>
      </trkpt>
      <trkpt lat="48.06465" lon="7.08033">
        <ele>784.78</ele>
        <time>2021-06-23T10:55:41Z</time>
      </trkpt>
      <trkpt lat="48.06483" lon="7.08173">
        <ele>797.12</ele>
        <time>2021-06-23T10:55:45Z</time>
      </trkpt>
      <trkpt lat="48.06483" lon="7.08218">
        <ele>800.18</ele>
        <time>2021-06-23T10:55:48Z</time>
      </trkpt>
      <trkpt lat="48.0648" lon="7.08244">
        <ele>801.3</ele>
        <time>2021-06-23T10:55:52Z</time>
      </trkpt>
      <trkpt lat="48.06475" lon="7.08264">
        <ele>801.04</ele>
        <time>2021-06-23T10:55:55Z</time>
      </trkpt>
      <trkpt lat="48.06438" lon="7.08377">
        <ele>803.71</ele>
        <time>2021-06-23T10:55:59Z</time>
      </trkpt>
      <trkpt lat="48.06435" lon="7.08401">
        <ele>805.27</ele>
        <time>2021-06-23T10:56:02Z</time>
      </trkpt>
      <trkpt lat="48.06436" lon="7.08437">
        <ele>807.84</ele>
        <time>2021-06-23T10:56:05Z</time>
      </trkpt>
      <trkpt lat="48.06441" lon="7.08473">
        <ele>809.21</ele>
        <time>2021-06-23T10:56:09Z</time>
      </trkpt>
      <trkpt lat="48.06446" lon="7.08496">
        <ele>809.44</ele>
        <time>2021-06-23T10:56:12Z</time>
      </trkpt>
      <trkpt lat="48.06451" lon="7.0851">
        <ele>809.85</ele>
        <time>2021-06-23T10:56:16Z</time>
      </trkpt>
      <trkpt lat="48.06472" lon="7.08551">
        <ele>809.51</ele>
        <time>2021-06-23T10:56:19Z</time>
      </trkpt>
      <trkpt lat="48.06483" lon="7.08579">
        <ele>807.26</ele>
        <time>2021-06-23T10:56:23Z</time>
      </trkpt>
      <trkpt lat="48.06489" lon="7.08589">
        <ele>806.52</ele>
        <time>2021-06-23T10:56:26Z</time>
      </trkpt>
      <trkpt lat="48.06493" lon="7.08591">
        <ele>806.76</ele>
        <time>2021-06-23T10:56:29Z</time>
      </trkpt>
      <trkpt lat="48.06501" lon="7.08592">
        <ele>807.99</ele>
        <time>2021-06-23T10:56:33Z</time>
      </trkpt>
      <trkpt lat="48.06507" lon="7.08589">
        <ele>809.55</ele>
        <time>2021-06-23T10:56:36Z</time>
      </trkpt>
      <trkpt lat="48.06508" lon="7.08584">
        <ele>810.53</ele>
        <time>2021-06-23T10:56:37Z</time>
      </trkpt>
      <trkpt lat="48.06508" lon="7.08584">
        <ele>810.53</ele>
        <time>2021-06-23T10:56:37Z</time>
      </trkpt>
      <trkpt lat="48.06509" lon="7.08579">
        <ele>811.51</ele>
        <time>2021-06-23T10:56:42Z</time>
      </trkpt>
      <trkpt lat="48.06505" lon="7.08518">
        <ele>819.85</ele>
        <time>2021-06-23T10:56:47Z</time>
      </trkpt>
      <trkpt lat="48.06508" lon="7.0849">
        <ele>821.77</ele>
        <time>2021-06-23T10:56:51Z</time>
      </trkpt>
      <trkpt lat="48.06554" lon="7.0834">
        <ele>829.95</ele>
        <time>2021-06-23T10:56:56Z</time>
      </trkpt>
      <trkpt lat="48.06573" lon="7.08267">
        <ele>833.48</ele>
        <time>2021-06-23T10:57:01Z</time>
      </trkpt>
      <trkpt lat="48.06581" lon="7.08222">
        <ele>834.35</ele>
        <time>2021-06-23T10:57:06Z</time>
      </trkpt>
      <trkpt lat="48.06588" lon="7.08161">
        <ele>833.64</ele>
        <time>2021-06-23T10:57:11Z</time>
      </trkpt>
      <trkpt lat="48.06598" lon="7.08105">
        <ele>835.25</ele>
        <time>2021-06-23T10:57:16Z</time>
      </trkpt>
      <trkpt lat="48.06609" lon="7.08081">
        <ele>835.55</ele>
        <time>2021-06-23T10:57:21Z</time>
      </trkpt>
      <trkpt lat="48.0662" lon="7.08064">
        <ele>836.27</ele>
        <time>2021-06-23T10:57:26Z</time>
      </trkpt>
      <trkpt lat="48.06634" lon="7.0805">
        <ele>837.6</ele>
        <time>2021-06-23T10:57:31Z</time>
      </trkpt>
      <trkpt lat="48.06651" lon="7.08037">
        <ele>840.39</ele>
        <time>2021-06-23T10:57:36Z</time>
      </trkpt>
      <trkpt lat="48.06741" lon="7.07987">
        <ele>847.86</ele>
        <time>2021-06-23T10:57:41Z</time>
      </trkpt>
      <trkpt lat="48.06833" lon="7.07931">
        <ele>860.01</ele>
        <time>2021-06-23T10:57:46Z</time>
      </trkpt>
      <trkpt lat="48.0693" lon="7.07886">
        <ele>870.2</ele>
        <time>2021-06-23T10:57:50Z</time>
      </trkpt>
      <trkpt lat="48.06966" lon="7.07876">
        <ele>871.97</ele>
        <time>2021-06-23T10:57:55Z</time>
      </trkpt>
      <trkpt lat="48.07003" lon="7.07876">
        <ele>875.29</ele>
        <time>2021-06-23T10:58:00Z</time>
      </trkpt>
      <trkpt lat="48.07037" lon="7.0789">
        <ele>879.64</ele>
        <time>2021-06-23T10:58:05Z</time>
      </trkpt>
      <trkpt lat="48.07147" lon="7.07924">
        <ele>885.46</ele>
        <time>2021-06-23T10:58:10Z</time>
      </trkpt>
      <trkpt lat="48.07177" lon="7.07923">
        <ele>889.56</ele>
        <time>2021-06-23T10:58:15Z</time>
      </trkpt>
      <trkpt lat="48.0725" lon="7.07909">
        <ele>894.62</ele>
        <time>2021-06-23T10:58:20Z</time>
      </trkpt>
      <trkpt lat="48.07294" lon="7.07883">
        <ele>902.05</ele>
        <time>2021-06-23T10:58:25Z</time>
      </trkpt>
      <trkpt lat="48.07329" lon="7.07848">
        <ele>903.83</ele>
        <time>2021-06-23T10:58:30Z</time>
      </trkpt>
      <trkpt lat="48.07353" lon="7.07816">
        <ele>904.07</ele>
        <time>2021-06-23T10:58:35Z</time>
      </trkpt>
      <trkpt lat="48.07372" lon="7.07767">
        <ele>905.13</ele>
        <time>2021-06-23T10:58:40Z</time>
      </trkpt>
      <trkpt lat="48.07382" lon="7.07725">
        <ele>908.08</ele>
        <time>2021-06-23T10:58:45Z</time>
      </trkpt>
      <trkpt lat="48.0739" lon="7.07684">
        <ele>909.98</ele>
        <time>2021-06-23T10:58:50Z</time>
      </trkpt>
      <trkpt lat="48.07386" lon="7.07647">
        <ele>910.97</ele>
        <time>2021-06-23T10:58:54Z</time>
      </trkpt>
      <trkpt lat="48.07378" lon="7.07612">
        <ele>912.07</ele>
        <time>2021-06-23T10:58:59Z</time>
      </trkpt>
      <trkpt lat="48.07345" lon="7.07498">
        <ele>913.36</ele>
        <time>2021-06-23T10:59:04Z</time>
      </trkpt>
      <trkpt lat="48.07338" lon="7.07483">
        <ele>914.6</ele>
        <time>2021-06-23T10:59:09Z</time>
      </trkpt>
      <trkpt lat="48.07337" lon="7.07473">
        <ele>916.15</ele>
        <time>2021-06-23T10:59:14Z</time>
      </trkpt>
      <trkpt lat="48.0734" lon="7.07466">
        <ele>919.55</ele>
        <time>2021-06-23T10:59:19Z</time>
      </trkpt>
      <trkpt lat="48.07347" lon="7.07464">
        <ele>923.18</ele>
        <time>2021-06-23T10:59:20Z</time>
      </trkpt>
      <trkpt lat="48.07353" lon="7.07468">
        <ele>924.15</ele>
        <time>2021-06-23T10:59:21Z</time>
      </trkpt>
      <trkpt lat="48.07359" lon="7.07477">
        <ele>923.98</ele>
        <time>2021-06-23T10:59:22Z</time>
      </trkpt>
      <trkpt lat="48.07359" lon="7.07477">
        <ele>923.98</ele>
        <time>2021-06-23T10:59:22Z</time>
      </trkpt>
      <trkpt lat="48.07375" lon="7.07511">
        <ele>921.98</ele>
        <time>2021-06-23T10:59:26Z</time>
      </trkpt>
      <trkpt lat="48.07414" lon="7.0757">
        <ele>926.63</ele>
        <time>2021-06-23T10:59:31Z</time>
      </trkpt>
      <trkpt lat="48.07466" lon="7.07641">
        <ele>935.84</ele>
        <time>2021-06-23T10:59:36Z</time>
      </trkpt>
      <trkpt lat="48.07513" lon="7.07698">
        <ele>941.51</ele>
        <time>2021-06-23T10:59:41Z</time>
      </trkpt>
      <trkpt lat="48.07546" lon="7.07758">
        <ele>941.82</ele>
        <time>2021-06-23T10:59:45Z</time>
      </trkpt>
      <trkpt lat="48.07551" lon="7.07761">
        <ele>941.68</ele>
        <time>2021-06-23T10:59:50Z</time>
      </trkpt>
      <trkpt lat="48.07568" lon="7.07763">
        <ele>941.39</ele>
        <time>2021-06-23T10:59:55Z</time>
      </trkpt>
      <trkpt lat="48.07568" lon="7.07741">
        <ele>943.99</ele>
        <time>2021-06-23T10:59:59Z</time>
      </trkpt>
      <trkpt lat="48.07568" lon="7.07741">
        <ele>943.99</ele>
        <time>2021-06-23T10:59:59Z</time>
      </trkpt>
      <trkpt lat="48.07568" lon="7.07763">
        <ele>941.39</ele>
        <time>2021-06-23T11:00:04Z</time>
      </trkpt>
      <trkpt lat="48.07559" lon="7.07762">
        <ele>941.51</ele>
        <time>2021-06-23T11:00:05Z</time>
      </trkpt>
      <trkpt lat="48.07557" lon="7.07745">
        <ele>942.82</ele>
        <time>2021-06-23T11:00:12Z</time>
      </trkpt>
      <trkpt lat="48.0752" lon="7.0765">
        <ele>948.3</ele>
        <time>2021-06-23T11:00:19Z</time>
      </trkpt>
      <trkpt lat="48.07503" lon="7.07613">
        <ele>951.33</ele>
        <time>2021-06-23T11:00:26Z</time>
      </trkpt>
      <trkpt lat="48.07469" lon="7.07506">
        <ele>957.68</ele>
        <time>2021-06-23T11:00:32Z</time>
      </trkpt>
      <trkpt lat="48.07452" lon="7.07468">
        <ele>960.22</ele>
        <time>2021-06-23T11:00:39Z</time>
      </trkpt>
      <trkpt lat="48.07434" lon="7.07415">
        <ele>966.4</ele>
        <time>2021-06-23T11:00:46Z</time>
      </trkpt>
      <trkpt lat="48.07421" lon="7.07403">
        <ele>966.25</ele>
        <time>2021-06-23T11:00:53Z</time>
      </trkpt>
      <trkpt lat="48.07404" lon="7.07382">
        <ele>967.45</ele>
        <time>2021-06-23T11:01:00Z</time>
      </trkpt>
      <trkpt lat="48.07315" lon="7.07225">
        <ele>980.24</ele>
        <time>2021-06-23T11:01:07Z</time>
      </trkpt>
      <trkpt lat="48.07289" lon="7.07177">
        <ele>982.08</ele>
        <time>2021-06-23T11:01:14Z</time>
      </trkpt>
      <trkpt lat="48.07265" lon="7.07113">
        <ele>986.96</ele>
        <time>2021-06-23T11:01:21Z</time>
      </trkpt>
      <trkpt lat="48.07251" lon="7.07061">
        <ele>990.69</ele>
        <time>2021-06-23T11:01:28Z</time>
      </trkpt>
      <trkpt lat="48.07248" lon="7.07026">
        <ele>991.6</ele>
        <time>2021-06-23T11:01:34Z</time>
      </trkpt>
      <trkpt lat="48.07251" lon="7.06996">
        <ele>993.6</ele>
        <time>2021-06-23T11:01:41Z</time>
      </trkpt>
      <trkpt lat="48.07257" lon="7.06949">
        <ele>1001.1</ele>
        <time>2021-06-23T11:01:48Z</time>
      </trkpt>
      <trkpt lat="48.07267" lon="7.06909">
        <ele>1005.51</ele>
        <time>2021-06-23T11:01:55Z</time>
      </trkpt>
      <trkpt lat="48.07273" lon="7.06867">
        <ele>1006.69</ele>
        <time>2021-06-23T11:02:02Z</time>
      </trkpt>
      <trkpt lat="48.07276" lon="7.06819">
        <ele>1007.37</ele>
        <time>2021-06-23T11:02:09Z</time>
      </trkpt>
      <trkpt lat="48.07284" lon="7.06765">
        <ele>1011.9</ele>
        <time>2021-06-23T11:02:16Z</time>
      </trkpt>
      <trkpt lat="48.07286" lon="7.06739">
        <ele>1013.97</ele>
        <time>2021-06-23T11:02:23Z</time>
      </trkpt>
      <trkpt lat="48.07285" lon="7.06668">
        <ele>1016.98</ele>
        <time>2021-06-23T11:02:29Z</time>
      </trkpt>
      <trkpt lat="48.07286" lon="7.06628">
        <ele>1018.97</ele>
        <time>2021-06-23T11:02:36Z</time>
      </trkpt>
      <trkpt lat="48.07286" lon="7.06603">
        <ele>1021.21</ele>
        <time>2021-06-23T11:02:43Z</time>
      </trkpt>
      <trkpt lat="48.07282" lon="7.06562">
        <ele>1023.19</ele>
        <time>2021-06-23T11:02:50Z</time>
      </trkpt>
      <trkpt lat="48.07283" lon="7.06535">
        <ele>1025.81</ele>
        <time>2021-06-23T11:02:57Z</time>
      </trkpt>
      <trkpt lat="48.07291" lon="7.0647">
        <ele>1030.76</ele>
        <time>2021-06-23T11:03:04Z</time>
      </trkpt>
      <trkpt lat="48.07291" lon="7.0647">
        <ele>1030.76</ele>
        <time>2021-06-23T11:03:04Z</time>
      </trkpt>
      <trkpt lat="48.07287" lon="7.06417">
        <ele>1029.58</ele>
        <time>2021-06-23T11:03:12Z</time>
      </trkpt>
      <trkpt lat="48.0729" lon="7.06366">
        <ele>1031.09</ele>
        <time>2021-06-23T11:03:19Z</time>
      </trkpt>
      <trkpt lat="48.07297" lon="7.06331">
        <ele>1033.01</ele>
        <time>2021-06-23T11:03:27Z</time>
      </trkpt>
      <trkpt lat="48.07303" lon="7.06314">
        <ele>1033.06</ele>
        <time>2021-06-23T11:03:35Z</time>
      </trkpt>
      <trkpt lat="48.07323" lon="7.06278">
        <ele>1034.56</ele>
        <time>2021-06-23T11:03:43Z</time>
      </trkpt>
      <trkpt lat="48.07428" lon="7.06122">
        <ele>1044.98</ele>
        <time>2021-06-23T11:03:50Z</time>
      </trkpt>
      <trkpt lat="48.07512" lon="7.05987">
        <ele>1049.57</ele>
        <time>2021-06-23T11:03:58Z</time>
      </trkpt>
      <trkpt lat="48.07565" lon="7.05862">
        <ele>1041.88</ele>
        <time>2021-06-23T11:04:06Z</time>
      </trkpt>
      <trkpt lat="48.07572" lon="7.05857">
        <ele>1043.04</ele>
        <time>2021-06-23T11:04:13Z</time>
      </trkpt>
      <trkpt lat="48.07578" lon="7.05858">
        <ele>1044.8</ele>
        <time>2021-06-23T11:04:21Z</time>
      </trkpt>
      <trkpt lat="48.07581" lon="7.05862">
        <ele>1046.45</ele>
        <time>2021-06-23T11:04:29Z</time>
      </trkpt>
      <trkpt lat="48.07583" lon="7.05869">
        <ele>1048.08</ele>
        <time>2021-06-23T11:04:37Z</time>
      </trkpt>
      <trkpt lat="48.07581" lon="7.05879">
        <ele>1048.81</ele>
        <time>2021-06-23T11:04:44Z</time>
      </trkpt>
      <trkpt lat="48.0757" lon="7.05894">
        <ele>1048.48</ele>
        <time>2021-06-23T11:04:52Z</time>
      </trkpt>
      <trkpt lat="48.07563" lon="7.05939">
        <ele>1052.46</ele>
        <time>2021-06-23T11:05:00Z</time>
      </trkpt>
      <trkpt lat="48.07551" lon="7.06058">
        <ele>1062.71</ele>
        <time>2021-06-23T11:05:07Z</time>
      </trkpt>
      <trkpt lat="48.07545" lon="7.06095">
        <ele>1066.73</ele>
        <time>2021-06-23T11:05:15Z</time>
      </trkpt>
      <trkpt lat="48.07549" lon="7.06182">
        <ele>1075.66</ele>
        <time>2021-06-23T11:05:23Z</time>
      </trkpt>
      <trkpt lat="48.07548" lon="7.06197">
        <ele>1076.38</ele>
        <time>2021-06-23T11:05:31Z</time>
      </trkpt>
      <trkpt lat="48.07541" lon="7.06228">
        <ele>1075.52</ele>
        <time>2021-06-23T11:05:38Z</time>
      </trkpt>
      <trkpt lat="48.07524" lon="7.06271">
        <ele>1074.19</ele>
        <time>2021-06-23T11:05:46Z</time>
      </trkpt>
      <trkpt lat="48.07523" lon="7.06278">
        <ele>1074.39</ele>
        <time>2021-06-23T11:05:54Z</time>
      </trkpt>
      <trkpt lat="48.07526" lon="7.06281">
        <ele>1074.99</ele>
        <time>2021-06-23T11:06:01Z</time>
      </trkpt>
      <trkpt lat="48.07531" lon="7.0628">
        <ele>1075.74</ele>
        <time>2021-06-23T11:06:09Z</time>
      </trkpt>
      <trkpt lat="48.07631" lon="7.06162">
        <ele>1087.11</ele>
        <time>2021-06-23T11:06:17Z</time>
      </trkpt>
      <trkpt lat="48.07747" lon="7.06065">
        <ele>1094.17</ele>
        <time>2021-06-23T11:06:25Z</time>
      </trkpt>
    </trkseg>
  </trk>
</gpx>